[[{"header":{"parameterUnit":"m.s-1","parameterCategory":1,"la1":30.6,"la2":28.766,"lo1":-90.7593,"lo2":-88.6598,"dy":0.0162,"dx":0.0183,"nx":116,"ny":114,"refTime":"2023-06-06T12:00:00:Z","depth":0,"parameterNumber":2,"parameterNumberName":"U-component_of_WINDS"},"data":[0.0,0.0,0.0,0.0,0.0,0.0,0.0,0.0,0.0,0.0,0.0,0.0,0.0,0.0,0.0,0.0,0.0,0.0,0.0,0.0,0.0,0.0,0.0,0.0,0.0,0.0,0.0,0.0,0.0,0.0,0.0,0.0,0.0,0.0,0.0,0.0,0.0,0.0,0.0,0.0,0.0,0.0,0.0,0.0,0.0,0.0,0.0,0.0,0.0,0.0,0.0,0.0,0.0,0.0,0.0,0.0,0.0,0.0,0.0,0.0,0.0,0.0,0.0,0.0,0.0,0.0,0.0,0.0,0.0,0.0,0.0,0.0,0.0,0.0,0.0,0.0,0.0,0.0,0.0,0.0,0.0,0.0,0.0,0.0,0.0,0.0,0.0,0.0,0.0,0.0,0.0,0.0,0.0,0.0,0.0,0.0,0.0,0.0,0.0,0.0,0.0,0.0,0.0,0.0,0.0,0.0,0.0,0.0,0.0,0.0,0.0,0.0,0.0,0.0,0.0,0.0,0.0,0.0,0.0,0.0,0.0,0.0,0.0,0.0,0.0,0.0,0.0,0.0,0.0,0.0,0.0,0.0,0.0,0.0,0.0,0.0,0.0,0.0,0.0,0.0,0.0,0.0,0.0,0.0,0.0,0.0,0.0,0.0,0.0,0.0,0.0,0.0,0.0,0.0,0.0,0.0,0.0,0.0,0.0,0.0,0.0,0.0,0.0,0.0,0.0,0.0,0.0,0.0,0.0,0.0,0.0,0.0,0.0,0.0,0.0,0.0,0.0,0.0,0.0,0.0,0.0,0.0,0.0,0.0,0.0,0.0,0.0,0.0,0.0,0.0,0.0,0.0,0.0,0.0,0.0,0.0,0.0,0.0,0.0,0.0,0.0,0.0,0.0,0.0,0.0,0.0,0.0,0.0,0.0,0.0,0.0,0.0,0.0,0.0,0.0,0.0,0.0,0.0,0.0,0.0,0.0,0.0,0.0,0.0,0.0,0.0,0.0,0.0,0.0,0.0,0.0,0.0,0.0,0.0,0.0,0.0,0.0,0.0,0.0,0.0,0.0,0.0,0.0,0.0,0.0,0.0,0.0,0.0,0.0,0.0,0.0,0.0,0.0,0.0,0.0,0.0,0.0,0.0,0.0,0.0,0.0,0.0,0.0,0.0,0.0,0.0,0.0,0.0,0.0,0.0,0.0,0.0,0.0,0.0,0.0,0.0,0.0,0.0,0.0,0.0,0.0,0.0,0.0,0.0,0.0,0.0,0.0,0.0,0.0,0.0,0.0,0.0,0.0,0.0,0.0,0.0,0.0,0.0,0.0,0.0,0.0,0.0,0.0,0.0,0.0,0.0,0.0,0.0,0.0,0.0,0.0,0.0,0.0,0.0,0.0,0.0,0.0,0.0,0.0,0.0,0.0,0.0,0.0,0.0,0.0,0.0,0.0,0.0,0.0,0.0,0.0,0.0,0.0,0.0,0.0,0.0,0.0,0.0,0.0,0.0,0.0,0.0,0.0,0.0,0.0,0.0,0.0,0.0,0.0,0.0,0.0,0.0,0.0,0.0,0.0,0.0,0.0,0.0,0.0,0.0,0.0,0.0,0.0,0.0,0.0,0.0,0.0,0.0,0.0,0.0,0.0,0.0,0.0,0.0,0.0,0.0,0.0,0.0,0.0,0.0,0.0,0.0,0.0,0.0,0.0,0.0,0.0,0.0,0.0,0.0,0.0,0.0,0.0,0.0,0.0,0.0,0.0,0.0,0.0,0.0,0.0,0.0,0.0,0.0,0.0,0.0,0.0,0.0,0.0,0.0,0.0,0.0,0.0,0.0,0.0,0.0,0.0,0.0,0.0,0.0,0.0,0.0,0.0,0.0,0.0,0.0,0.0,0.0,0.0,0.0,0.0,0.0,0.0,0.0,0.0,0.0,0.0,0.0,0.0,0.0,0.0,0.0,0.0,0.0,0.0,0.0,0.0,0.0,0.0,0.0,0.0,0.0,0.0,0.0,0.0,0.0,0.0,0.0,0.0,0.0,0.0,0.0,0.0,0.0,0.0,0.0,0.0,0.0,0.0,0.0,0.0,0.0,0.0,0.0,0.0,0.0,0.0,0.0,0.0,0.0,0.0,0.0,0.0,0.0,0.0,0.0,0.0,0.0,0.0,0.0,0.0,0.0,0.0,0.0,0.0,0.0,0.0,0.0,0.0,0.0,0.0,0.0,0.0,0.0,0.0,0.0,0.0,0.0,0.0,0.0,0.0,0.0,0.0,0.0,0.0,0.0,0.0,0.0,0.0,0.0,0.0,0.0,0.0,0.0,0.0,0.0,0.0,0.0,0.0,0.0,0.0,0.0,0.0,0.0,0.0,0.0,0.0,0.0,0.0,0.0,0.0,0.0,0.0,0.0,0.0,0.0,0.0,0.0,0.0,0.0,0.0,0.0,0.0,0.0,0.0,0.0,0.0,0.0,0.0,0.0,0.0,0.0,0.0,0.0,0.0,0.0,0.0,0.0,0.0,0.0,0.0,0.0,0.0,0.0,0.0,0.0,0.0,0.0,0.0,0.0,0.0,0.0,0.0,0.0,0.0,0.0,0.0,0.0,0.0,0.0,0.0,0.0,0.0,0.0,0.0,0.0,0.0,0.0,0.0,0.0,0.0,0.0,0.0,0.0,0.0,0.0,0.0,0.0,0.0,0.0,0.0,0.0,0.0,0.0,0.0,0.0,0.0,0.0,0.0,0.0,0.0,0.0,0.0,0.0,0.0,0.0,0.0,0.0,0.0,0.0,0.0,0.0,0.0,0.0,0.0,0.0,0.0,0.0,0.0,0.0,0.0,0.0,0.0,0.0,0.0,0.0,0.0,0.0,0.0,0.0,0.0,0.0,0.0,0.0,0.0,0.0,0.0,0.0,0.0,0.0,0.0,0.0,0.0,0.0,0.0,0.0,0.0,0.0,0.0,0.0,0.0,0.0,0.0,0.0,0.0,0.0,0.0,0.0,0.0,0.0,0.0,0.0,0.0,0.0,0.0,0.0,0.0,0.0,0.0,0.0,0.0,0.0,0.0,0.0,0.0,0.0,0.0,0.0,0.0,0.0,0.0,0.0,0.0,0.0,0.0,0.0,0.0,0.0,0.0,0.0,0.0,0.0,0.0,0.0,0.0,0.0,0.0,0.0,0.0,0.0,0.0,0.0,0.0,0.0,0.0,0.0,0.0,0.0,0.0,0.0,0.0,0.0,0.0,0.0,0.0,0.0,0.0,0.0,0.0,0.0,0.0,0.0,0.0,0.0,0.0,0.0,0.0,0.0,0.0,0.0,0.0,0.0,0.0,0.0,0.0,0.0,0.0,0.0,0.0,0.0,0.0,0.0,0.0,0.0,0.0,0.0,0.0,0.0,0.0,0.0,0.0,0.0,0.0,0.0,0.0,0.0,0.0,0.0,0.0,0.0,0.0,0.0,0.0,0.0,0.0,0.0,0.0,0.0,0.0,0.0,0.0,0.0,0.0,0.0,0.0,0.0,0.0,0.0,0.0,0.0,0.0,0.0,0.0,0.0,0.0,0.0,0.0,0.0,0.0,0.0,0.0,0.0,0.0,0.0,0.0,0.0,0.0,0.0,0.0,0.0,0.0,0.0,0.0,0.0,0.0,0.0,0.0,0.0,0.0,0.0,0.0,0.0,0.0,0.0,0.0,0.0,0.0,0.0,0.0,0.0,0.0,0.0,0.0,0.0,0.0,0.0,0.0,0.0,0.0,0.0,0.0,0.0,0.0,0.0,0.0,0.0,0.0,0.0,0.0,0.0,0.0,0.0,0.0,0.0,0.0,0.0,0.0,0.0,0.0,0.0,0.0,0.0,0.0,0.0,0.0,0.0,0.0,0.0,0.0,0.0,0.0,0.0,0.0,0.0,0.0,0.0,0.0,0.0,0.0,0.0,0.0,0.0,0.0,0.0,0.0,0.0,0.0,0.0,0.0,0.0,0.0,0.0,0.0,0.0,0.0,0.0,0.0,0.0,0.0,0.0,0.0,0.0,0.0,0.0,0.0,0.0,0.0,0.0,0.0,0.0,0.0,0.0,0.0,0.0,0.0,0.0,0.0,0.0,0.0,0.0,0.0,0.0,0.0,0.0,0.0,0.0,0.0,0.0,0.0,0.0,0.0,0.0,0.0,0.0,0.0,0.0,0.0,0.0,0.0,0.0,0.0,0.0,0.0,0.0,0.0,0.0,0.0,0.0,0.0,0.0,0.0,0.0,0.0,0.0,0.0,0.0,0.0,0.0,0.0,0.0,0.0,0.0,0.0,0.0,0.0,0.0,0.0,0.0,0.0,0.0,0.0,0.0,0.0,0.0,0.0,0.0,0.0,0.0,0.0,0.0,0.0,0.0,0.0,0.0,0.0,0.0,0.0,0.0,0.0,0.0,0.0,0.0,0.0,0.0,0.0,0.0,0.0,0.0,0.0,0.0,0.0,0.0,0.0,0.0,0.0,0.0,0.0,0.0,0.0,0.0,0.0,0.0,0.0,0.0,0.0,0.0,0.0,0.0,0.0,0.0,0.0,0.0,0.0,0.0,0.0,0.0,0.0,0.0,0.0,0.0,0.0,0.0,0.0,0.0,0.0,0.0,0.0,0.0,0.0,0.0,0.0,0.0,0.0,0.0,0.0,0.0,0.0,0.0,0.0,0.0,0.0,0.0,0.0,0.0,0.0,0.0,0.0,0.0,0.0,0.0,0.0,0.0,0.0,0.0,0.0,0.0,0.0,0.0,0.0,0.0,0.0,0.0,0.0,0.0,0.0,0.0,0.0,0.0,0.0,0.0,0.0,0.0,0.0,0.0,0.0,0.0,0.0,0.0,0.0,0.0,0.0,0.0,0.0,0.0,0.0,0.0,0.0,0.0,0.0,0.0,0.0,0.0,0.0,0.0,0.0,0.0,0.0,0.0,0.0,0.0,0.0,0.0,0.0,0.0,0.0,0.0,0.0,0.0,0.0,0.0,0.0,0.0,0.0,0.0,0.0,0.0,0.0,0.0,0.0,0.0,0.0,0.0,0.0,0.0,0.0,0.0,0.0,0.0,0.0,0.0,0.0,0.0,0.0,0.0,0.0,0.0,0.0,0.0,0.0,0.0,0.0,0.0,0.0,0.0,0.0,0.0,0.0,0.0,0.0,0.0,0.0,0.0,0.0,0.0,0.0,0.0,0.0,0.0,0.0,0.0,0.0,0.0,0.0,0.0,0.0,0.0,0.0,0.0,0.0,0.0,0.0,0.0,0.0,0.0,0.0,0.0,0.0,0.0,0.0,0.0,0.0,0.0,0.0,0.0,0.0,0.0,0.0,0.0,0.0,0.0,0.0,0.0,0.0,0.0,0.0,0.0,0.0,0.0,0.0,0.0,0.0,0.0,0.0,0.0,0.0,0.0,0.0,0.0,0.0,0.0,0.0,0.0,0.0,0.0,0.0,0.0,0.0,0.0,0.0,0.0,0.0,0.0,0.0,0.0,0.0,0.0,0.0,0.0,0.0,0.0,0.0,0.0,0.0,0.0,0.0,0.0,0.0,0.0,0.0,0.0,0.0,0.0,0.0,0.0,0.0,0.0,0.0,0.0,0.0,0.0,0.0,0.0,0.0,0.0,0.0,0.0,0.0,0.0,0.0,0.0,0.0,0.0,0.0,0.0,0.0,0.0,0.0,0.0,0.0,0.0,0.0,0.0,0.0,0.0,0.0,0.0,0.0,0.0,0.0,0.0,0.0,0.0,0.0,0.0,0.0,0.0,0.0,0.0,0.0,0.0,0.0,0.0,0.0,0.0,0.0,0.0,0.0,0.0,0.0,0.0,0.0,0.0,0.0,0.0,0.0,0.0,0.0,0.0,0.0,0.0,0.0,0.0,0.0,0.0,0.0,0.0,0.0,0.0,0.0,0.0,0.0,0.0,0.0,0.0,0.0,0.0,0.0,0.0,0.0,0.0,0.0,0.0,0.0,0.0,0.0,0.0,0.0,0.0,0.0,0.0,0.0,0.0,0.0,0.0,0.0,0.0,0.0,0.0,0.0,0.0,0.0,0.0,0.0,0.0,0.0,0.0,0.0,0.0,0.0,0.0,0.7026,0.6635,0.0,0.0,0.0,0.0,0.0,0.0,0.0,0.0,0.0,0.0,0.0,0.0,0.0,0.0,0.0,0.0,0.0,0.0,0.0,0.0,0.0,0.0,0.0,0.0,0.0,0.0,0.0,0.0,0.0,0.0,0.0,0.0,0.0,0.0,0.0,0.0,0.0,0.6191,0.6191,0.6142,0.6062,0.6867,0.7473,0.7897,0.0,0.0,0.0,0.0,0.0,0.0,0.0,0.0,0.0,0.0,0.0,0.0,0.0,0.0,0.0,0.0,0.0,0.0,0.0,0.0,0.0,0.0,0.0,0.0,0.0,0.0,0.0,0.0,0.0,0.0,0.0,0.0,0.0,0.0,0.0,0.0,0.0,0.0,0.0,0.0,0.0,0.0,0.0,0.0,0.0,0.0,0.0,0.0,0.0,0.0,0.0,0.0,0.0,0.0,0.0,0.0,0.0,0.0,0.0,0.0,0.0,0.0,0.0,0.0,0.0,0.0,0.0,0.0,0.0,0.0,0.5853,0.5396,0.0,0.0,0.0,0.0,0.0,0.0,0.0,0.0,0.0,0.0,0.0,0.0,0.0,0.0,0.0,0.0,0.0,0.0,0.0,0.0,0.0,0.0,0.0,0.6953,0.6774,0.652,0.6796,0.7012,0.0,0.0,0.0,0.0,0.0,0.0,0.0,0.6713,0.6755,0.6471,0.661,0.6605,0.6459,0.7326,0.7569,0.7313,0.745,0.0,0.0,0.0,0.0,0.0,0.0,0.0,0.0,0.0,0.0,0.0,0.0,0.0,0.0,0.0,0.0,0.0,0.0,0.0,0.0,0.0,0.0,0.0,0.0,0.0,0.0,0.0,0.0,0.0,0.0,0.0,0.0,0.0,0.0,0.0,0.0,0.0,0.0,0.0,0.0,0.0,0.0,0.0,0.0,0.0,0.0,0.0,0.0,0.0,0.0,0.0,0.0,0.0,0.0,0.0,0.0,0.0,0.0,0.0,0.0,0.0,0.0,0.0,0.5878,0.4695,0.5848,0.5848,0.5537,0.4989,0.5487,0.5085,0.4218,0.6185,0.0,0.0,0.0,0.0,0.0,0.0,0.0,0.0,0.0,0.0,0.0,0.0,0.0,0.0,0.0,0.0,0.0,0.0,0.0,0.0,0.0,0.6556,0.6233,0.6872,0.6657,0.667,0.707,0.0,0.0,0.0,0.0,0.0,0.5998,0.6029,0.6143,0.6334,0.7081,0.7444,0.7437,0.8259,0.8611,0.8537,0.7819,0.7638,0.7826,0.0,0.0,0.0,0.0,0.0,0.0,0.0,0.0,0.0,0.0,0.0,0.0,0.0,0.0,0.0,0.0,0.0,0.0,0.0,0.0,0.0,0.0,0.0,0.0,0.0,0.0,0.0,0.0,0.0,0.0,0.0,0.0,0.0,0.0,0.0,0.0,0.0,0.0,0.0,0.0,0.0,0.7239,0.7239,0.0,0.0,0.0,0.0,0.0,0.0,0.0,0.0,0.0,0.0,0.0,0.0,0.0,0.7587,0.8354,0.9229,0.8456,0.6083,0.5976,0.7821,1.1255,1.1255,0.9613,0.6748,0.6829,0.0,0.5997,0.671,0.0,0.0,0.0,0.0,0.0,0.0,0.0,0.0,0.0,0.0,0.0,0.0,0.0,0.0,0.0,0.0,0.0,0.0,0.0,0.0,0.0,0.7232,0.6906,0.7253,0.7215,0.7232,0.732,0.728,0.0,0.0,0.0,0.6331,0.6135,0.6119,0.6355,0.6812,0.7306,0.7632,0.7781,0.8629,0.9111,0.9285,0.8911,0.8543,0.8163,0.7856,0.0,0.0,0.0,0.0,0.0,0.0,0.0,0.0,0.0,0.0,0.0,0.0,0.0,0.0,0.0,0.0,0.0,0.0,0.0,0.0,0.0,0.0,0.0,0.0,0.0,0.0,0.0,0.0,0.0,0.0,0.0,0.0,0.0,0.0,0.0,0.0,0.0,0.0,0.0,0.7419,0.7,0.7,0.7,0.7206,0.0,0.0,0.0,0.0,0.0,0.0,0.0,0.0,0.0,0.7626,0.6971,0.6994,0.7847,0.8386,0.7866,0.6363,0.6627,0.7654,0.9447,1.2107,1.1031,0.7228,0.9874,1.0521,0.9601,0.8472,0.7606,0.6926,0.0,0.0,0.0,0.0,0.7269,0.7467,0.0,0.0,0.0,0.0,0.0,0.0,0.0,0.0,0.0,0.0,0.0,0.0,0.8416,0.7865,0.7543,0.78,0.7811,0.7741,0.7586,0.7387,0.7155,0.6908,0.6317,0.6041,0.6149,0.6456,0.6833,0.728,0.7811,0.819,0.8478,0.9284,0.9817,1.0127,1.0127,0.9639,0.8791,0.8318,0.7976,0.7698,0.0,0.0,0.0,0.0,0.0,0.0,0.0,0.0,0.0,0.0,0.0,0.0,0.0,0.0,0.0,0.0,0.0,0.0,0.0,0.0,0.0,0.0,0.0,0.0,0.0,0.0,0.0,0.0,0.0,0.0,0.0,0.0,0.0,0.0,0.0,0.0,0.0,0.8019,0.7453,0.7453,0.7186,0.7239,0.0,0.0,0.0,0.0,0.0,0.0,0.9276,0.6109,0.4771,0.5818,0.6289,0.6698,0.7092,0.7095,0.7095,0.7095,0.7095,0.7095,0.7228,1.074,1.0394,0.7312,1.0783,1.2486,1.2599,1.0548,0.8998,0.7929,0.7929,0.7428,0.6728,0.6728,0.7233,0.7565,0.0,0.0,0.0,0.0,0.0,0.0,0.0,0.0,0.0,0.0,0.0,0.6707,0.8825,0.7956,0.7625,0.8635,0.8151,0.7798,0.7777,0.7237,0.6752,0.6362,0.6312,0.6109,0.5746,0.6848,0.7455,0.7488,0.8891,0.9719,0.999,1.0621,1.1062,1.1302,1.1302,1.0816,0.9943,0.9125,0.8597,0.8328,0.7979,0.0,0.0,0.0,0.0,0.0,0.0,0.0,0.0,0.0,0.0,0.0,0.0,0.0,0.0,0.0,0.0,0.0,0.0,0.0,0.0,0.0,0.0,0.0,0.0,0.0,0.0,0.0,0.0,0.0,0.0,0.0,0.0,0.0,0.0,0.0,0.0,0.0,0.0,0.8717,0.7692,0.0,0.0,0.0,0.0,0.4399,0.4525,0.5045,0.5625,0.5992,0.641,0.6987,0.7038,0.7065,0.7095,0.7095,0.7095,0.7095,0.7095,0.7095,0.7095,0.7356,0.7312,0.7095,0.7356,0.9937,1.3901,1.2645,1.1436,1.0412,1.0412,1.0392,1.0333,1.0333,1.0387,0.9931,0.0,0.0,0.0,0.0,0.0,0.0,0.0,0.0,0.7587,0.7879,0.7325,0.7275,0.8282,0.8032,0.7936,0.8311,0.8048,0.7802,0.7673,0.7066,0.6687,0.6626,0.6378,0.6332,0.6527,0.7326,0.7949,0.833,0.9426,1.0114,1.0414,1.1002,1.143,1.171,1.171,1.1643,1.1443,1.018,0.9372,0.8845,0.8179,0.7896,0.0,0.0,0.0,0.0,0.0,0.0,0.0,0.0,0.0,0.0,0.0,0.0,0.0,0.0,0.0,0.0,0.0,0.0,0.0,0.0,0.0,0.0,0.0,0.0,0.0,0.0,0.0,0.0,0.0,0.0,0.0,0.0,0.0,0.0,0.0,0.0,0.0,0.9688,0.821,0.0,0.9272,0.9432,0.8154,0.4987,0.5313,0.5917,0.6474,0.6712,0.6879,0.7088,0.7095,0.7095,0.7095,0.7095,0.7095,0.7095,0.7095,0.7095,0.7095,0.7095,0.7095,0.7272,1.0308,1.2565,1.4055,1.3627,1.2752,1.1683,1.1683,1.1683,1.1683,1.1683,1.1683,1.1144,0.0,0.0,0.0,0.0,0.0,0.0,0.0,0.0,0.7652,0.7515,0.7387,0.7442,0.7817,0.7955,0.8123,0.8311,0.7993,0.774,0.7706,0.6915,0.645,0.6436,0.6179,0.633,0.6986,0.7786,0.8438,0.8924,0.9531,1.0178,1.0862,1.0932,1.1351,1.206,1.2154,1.2308,1.2385,1.1416,1.0555,0.9724,0.8851,0.8497,0.8425,0.0,0.0,0.0,0.0,0.0,0.0,0.0,0.0,0.0,0.0,0.0,0.0,0.0,0.0,0.0,0.0,0.0,0.0,0.0,0.0,0.0,0.0,0.0,0.0,0.0,0.0,0.0,0.0,0.0,0.0,0.0,0.0,0.0,0.0,0.6645,0.8171,1.0856,1.0114,0.9559,0.9953,0.8763,0.7418,0.6061,0.4865,0.4331,0.4674,0.4688,0.4688,0.4688,0.6245,0.7095,0.7095,0.7095,0.7095,0.7095,0.7095,0.7095,0.7088,0.6936,0.691,0.7356,1.204,1.4088,1.4088,1.4088,1.3621,1.2866,1.2458,1.2552,1.2859,1.2452,1.2305,1.1731,0.0,0.0,0.0,0.0,0.0,0.0,0.7637,0.7695,0.7554,0.7166,0.7,0.7093,0.7568,0.7779,0.8114,0.8718,0.7945,0.7552,0.7812,0.6766,0.6021,0.5731,0.5734,0.6116,0.6977,0.8154,0.8898,0.9141,0.9236,0.9954,1.1307,1.0494,1.0847,1.2224,1.2567,1.2752,1.2759,1.2766,1.2118,1.0995,1.0094,0.9695,0.9581,0.0,0.0,0.0,0.0,0.0,0.0,0.0,0.0,0.0,0.0,0.0,0.0,0.0,0.0,0.0,0.0,0.0,0.0,0.0,0.0,0.0,0.0,0.0,0.0,0.0,0.0,0.0,0.0,0.0,0.0,0.0,0.0,0.0,0.8918,0.9956,1.1122,1.2225,1.338,1.3586,1.2278,0.8608,0.6525,0.7055,0.2689,0.0,0.0,0.0,0.0,0.0,0.4463,0.6959,0.7095,0.6959,0.6959,0.7095,0.7095,0.7088,0.7048,0.6522,0.6573,0.7328,1.1895,1.387,1.387,1.387,1.387,1.38,1.2767,1.3066,1.3948,1.2786,1.2257,1.1545,0.0,0.0,0.0,0.0,0.0,0.0,0.7686,0.7695,0.7614,0.7416,0.7315,0.7433,0.7903,0.7567,0.7456,0.7827,0.6742,0.6072,0.6146,0.5456,0.5339,0.6034,0.6255,0.6511,0.6852,0.7606,0.7935,0.7817,0.8272,0.8761,0.9237,1.0061,1.0276,1.0019,1.1059,1.1684,1.2003,1.2107,1.2426,1.2741,1.1249,1.0366,0.9863,0.0,0.0,0.0,0.0,0.0,0.0,0.0,0.0,0.0,0.0,0.0,0.0,0.0,0.0,0.0,0.0,0.0,0.0,0.0,0.0,0.0,0.0,0.0,0.0,0.0,0.0,0.0,0.0,0.0,0.0,0.0,1.0962,1.2331,1.1463,1.2365,1.3233,1.3561,1.3888,1.262,0.8881,0.7527,0.6923,0.7085,0.2692,0.0,0.0,0.0,0.0,0.0,0.1255,0.3618,0.7051,0.3662,0.3662,0.7095,0.7095,0.6915,0.6495,0.6375,0.6388,0.6606,0.8308,0.9008,0.9008,0.9008,0.9008,0.933,1.2408,1.3794,1.4048,1.3721,1.1209,0.7778,0.0,0.0,0.0,0.0,0.0,0.0,0.7666,0.7695,0.7551,0.7132,0.7272,0.7322,0.7112,0.6974,0.6895,0.6874,0.622,0.5712,0.5508,0.4885,0.4907,0.5776,0.5817,0.6042,0.6536,0.7072,0.7341,0.7289,0.7477,0.7871,0.8397,0.8906,0.9107,0.9119,1.0003,1.0595,1.0979,1.1178,1.1969,1.2946,1.1702,1.1127,1.0915,0.9817,0.8938,0.8225,0.7872,0.7426,0.7226,0.8705,0.0,0.0,0.0,0.0,0.0,0.0,0.0,0.0,0.0,0.0,0.0,0.0,0.0,0.0,0.0,0.0,0.0,0.0,0.0,0.0,0.0,0.0,0.0,0.0,0.9666,1.0989,1.0578,1.2578,1.3392,1.1391,1.1171,1.0091,0.7356,0.7095,0.6293,0.4264,0.1572,0.0,0.0,-0.187,-0.2995,-0.2995,-0.1031,0.1345,0.4107,0.1389,0.2371,0.7095,0.7095,0.6916,0.662,0.6412,0.5318,0.3694,0.4001,0.5265,0.7095,0.7095,0.5935,0.4592,0.0,0.0,0.0,0.0,0.6277,0.3653,0.0,0.0,0.0,0.0,0.0,0.0,0.7515,0.756,0.7306,0.657,0.6972,0.6922,0.5841,0.6138,0.6282,0.5885,0.5842,0.565,0.5259,0.4647,0.4596,0.5213,0.4924,0.5185,0.6087,0.6556,0.688,0.7056,0.6682,0.7047,0.8048,0.741,0.7687,0.875,0.9138,0.9451,0.9751,1.0051,1.0953,1.2074,1.1711,1.1934,1.2318,1.1489,1.035,0.9185,0.9051,0.8323,0.7859,1.0895,0.0,0.0,0.0,0.0,0.0,0.0,0.0,0.0,0.0,0.0,0.0,0.0,0.0,0.0,0.0,0.0,0.0,0.0,0.0,0.0,0.0,0.0,0.0,0.0,0.68,0.7099,0.7076,1.0221,1.115,0.7529,0.6614,0.6311,0.6299,0.6293,0.4526,0.0301,0.0,0.0,0.0,-0.4526,0.0,0.0,0.0,-0.0808,-0.0808,-0.0269,0.2103,0.6293,0.6293,0.6293,0.6275,0.5262,0.2732,-0.084,-0.1199,0.0924,0.4724,0.4724,0.229,-0.088,0.4301,0.629,0.5745,0.1115,-0.0617,-0.0687,0.0,0.0,0.0,0.0,0.0,0.0,0.6696,0.6702,0.6638,0.6379,0.6678,0.6656,0.5935,0.5582,0.5276,0.4969,0.4078,0.3555,0.3566,0.369,0.4073,0.4773,0.5062,0.5271,0.5464,0.5823,0.5847,0.552,0.5459,0.5603,0.6,0.6742,0.6855,0.6501,0.7626,0.833,0.8696,0.8941,0.9771,1.0988,1.1835,1.2503,1.2939,1.2058,1.1683,1.1503,1.0593,1.0104,0.9863,0.9573,0.8365,0.7084,0.7509,0.8569,0.0,0.0,0.0,0.0,0.0,0.0,0.0,0.0,0.0,0.0,0.0,0.0,0.0,0.0,0.0,0.0,0.0,0.0,0.0,0.731,0.7021,0.5788,0.2059,0.2209,0.3826,0.6735,0.3691,0.1395,0.1353,0.1389,0.0974,0.005,0.0,0.0,0.0,-0.4526,-0.7095,-0.7095,-0.6201,-0.5711,-0.5711,-0.1925,0.0449,0.1389,0.1389,0.0,0.1254,-0.271,-0.4947,-0.5898,-0.8684,-0.9957,-1.0008,-1.0008,-0.9973,-0.9178,-0.1591,0.1368,0.0914,-0.2943,-0.4354,-0.4873,0.0,0.0,0.0,0.0,0.0,0.0,0.6445,0.6307,0.6158,0.5885,0.6137,0.6037,0.5234,0.5188,0.5008,0.4498,0.3769,0.3441,0.364,0.3691,0.3855,0.4229,0.4584,0.4786,0.4893,0.5201,0.5231,0.4992,0.5612,0.5954,0.6079,0.6626,0.6744,0.6448,0.6691,0.703,0.7477,0.7609,0.8451,0.9724,1.0826,1.1855,1.2792,1.2943,1.3066,1.312,1.2569,1.198,1.1343,1.0755,1.016,0.9999,1.1903,1.1141,0.9455,0.0,0.0,0.0,0.0,0.0,0.0,0.0,0.0,0.0,0.0,0.0,0.0,0.0,0.0,0.6826,0.7455,0.0,0.4909,0.374,0.3528,0.2727,0.0314,0.0,0.0897,0.3263,0.144,0.0,0.0,0.0,0.0,0.0,0.0,0.0,0.0,-0.2242,-0.4641,-0.7007,-0.7095,-0.7095,-0.7095,-0.473,-0.2371,-0.0045,-0.2416,-0.3573,-0.3707,-0.8452,-1.0611,-1.0838,-1.4737,-1.7901,-2.0312,-2.0312,-1.8776,-1.5961,-1.0972,-0.75,-0.5577,-0.7988,-0.8864,-0.9443,0.0,0.0,0.0,0.0,0.0,0.0,0.0,0.5925,0.5644,0.5332,0.5523,0.534,0.4461,0.4837,0.4864,0.41,0.3829,0.3802,0.3983,0.3905,0.3836,0.3836,0.4102,0.4358,0.4532,0.4748,0.4874,0.4928,0.5922,0.6424,0.6461,0.6465,0.6623,0.6833,0.6187,0.6125,0.6566,0.6647,0.7324,0.8437,0.9443,1.0527,1.1705,1.3094,1.3814,1.4088,1.4088,1.3467,1.2612,1.2385,1.2305,1.2835,1.5904,1.3332,0.9207,0.9518,0.9218,0.0,0.0,0.0,0.0,0.0,0.0,0.0,0.0,0.6703,0.602,0.5648,0.5272,0.5013,0.5079,0.2307,0.0,0.0,0.0,0.0,0.0,0.0,0.0,0.0,0.0808,0.1389,0.1389,0.1389,0.0987,0.009,0.0,0.0,0.0,0.0,-0.1747,-0.5578,-0.6605,-0.7095,-0.7095,-0.7095,-0.5176,-0.1434,-0.618,-0.8444,-0.8615,-1.3243,-1.5345,-1.5587,-1.9876,-2.3551,-2.6499,-2.6499,-2.4169,-2.0439,-1.8682,-1.5568,-1.2166,-1.3067,-1.3411,-1.3839,0.0,0.0,0.0,0.0,0.0,0.0,0.0,0.0,0.4913,0.4867,0.4899,0.4751,0.4278,0.4499,0.4323,0.3472,0.3422,0.3374,0.3232,0.3703,0.3967,0.3967,0.428,0.4539,0.4663,0.4701,0.4843,0.5076,0.5202,0.5384,0.5561,0.5668,0.5787,0.5957,0.6163,0.6422,0.6675,0.6695,0.687,0.7168,0.8214,0.8686,0.9073,1.1173,1.2877,1.4088,1.4088,1.4001,1.3728,1.2659,1.2305,1.2372,1.2799,1.1778,1.0662,1.2033,1.0711,0.9313,1.1609,1.3335,1.3542,0.9737,0.7985,0.7446,0.0,0.7001,0.5627,0.6102,0.6522,0.5547,0.1453,0.0312,0.0,0.0,0.0,0.0,0.0,0.0,0.0,0.0,0.3751,0.6293,0.6293,0.6293,0.4552,0.0314,0.0,0.0,0.0,0.0,-0.0225,-0.0763,-0.491,-0.7095,-0.7095,-0.7095,-0.6827,-0.6378,-1.1074,-1.33,-1.3464,-1.7874,-1.9874,-2.0099,-2.411,-2.6082,-2.6499,-2.6499,-2.4169,-2.0439,-1.8682,-1.7644,-1.7186,-1.7332,-1.7364,-1.7432,0.0,0.0,0.0,0.0,0.0,0.0,0.0,0.0,0.0,0.4296,0.4311,0.4264,0.4094,0.4256,0.4224,0.3858,0.3634,0.3424,0.3226,0.3553,0.3799,0.3883,0.4178,0.4341,0.4405,0.4602,0.4752,0.4874,0.5538,0.5891,0.6,0.6168,0.6005,0.5643,0.5986,0.5938,0.5711,0.6414,0.6736,0.687,0.7946,0.8337,0.8431,0.9961,1.1303,1.2544,1.3706,1.4088,0.0,1.1129,1.0722,1.1323,1.1323,1.2277,1.3333,1.3004,1.1365,0.9802,1.0358,1.1019,1.1099,0.9264,0.8945,0.8786,0.7624,0.6842,0.5657,0.3154,0.2792,0.2371,0.0359,0.0,0.0,0.0,0.0,0.0,0.0,0.0,0.0,0.0,0.1756,0.4055,0.6838,0.4599,0.2149,0.0135,0.0,0.0,0.0,0.0,0.0,0.0,-0.1925,-0.295,-0.295,-0.5711,-0.7095,-0.7143,-1.2541,-1.5097,-1.5206,-1.8906,-2.1859,-2.4133,-2.5791,-2.6499,-2.6499,-2.6499,-2.4169,-2.0537,-1.9813,-1.9492,-1.9375,-1.8379,-1.8008,-1.8008,0.0,0.0,0.0,0.0,0.0,0.0,0.0,0.0,0.0,0.0,0.3874,0.392,0.4099,0.4235,0.4315,0.4305,0.3875,0.3545,0.3387,0.3513,0.3648,0.375,0.3998,0.4133,0.4133,0.4395,0.4545,0.4655,0.5463,0.5904,0.5977,0.623,0.6049,0.5548,0.5905,0.5806,0.5388,0.626,0.6614,0.6654,0.744,0.7642,0.758,0.8562,0.9196,0.9933,1.2656,1.3808,1.3547,1.0,0.9152,0.9615,0.9615,1.1451,1.3357,1.2142,1.0876,0.9736,0.8999,0.8804,0.8965,0.9606,0.9699,0.8733,0.5348,0.4869,0.4152,0.0718,0.0,0.0,0.0,0.0,0.0,0.0,0.0,0.0,0.0,0.0,0.0,0.0,-0.0879,-0.0195,0.3098,0.1322,0.0,0.0,0.0,0.0,0.0,0.0,0.0,0.0,0.0,0.0,0.0,-0.473,-0.7927,-0.9543,-1.38,-1.5784,-1.5927,-1.9114,-2.2151,-2.4945,-2.6013,-2.6499,-2.6499,-2.6499,-2.4791,-2.2113,-2.1049,-2.0605,-2.0458,-1.917,-1.8418,-1.8076,0.0,0.0,0.0,0.0,0.0,0.0,0.0,0.0,0.0,0.0,0.0,0.0,0.0,0.4503,0.458,0.4584,0.3986,0.3601,0.3596,0.3598,0.3604,0.361,0.387,0.4001,0.4001,0.4011,0.4182,0.4498,0.4532,0.469,0.4962,0.5288,0.5511,0.5613,0.6095,0.6335,0.6471,0.6478,0.6439,0.63,0.6146,0.5911,0.5769,0.6639,0.6411,0.6172,1.0725,1.3106,1.3547,1.0,0.8039,0.7106,0.7106,0.797,0.8984,0.8943,0.8883,0.8836,0.8798,0.8804,0.9352,1.163,0.9662,0.5978,0.125,0.0224,0.018,0.0045,0.0,0.0,0.0,0.0,0.0,0.0,0.0,0.0,0.0,0.0,0.0,0.0,-0.309,-0.5411,-0.5832,-0.2301,0.0,0.0,0.0,0.0,0.0,0.0,0.0,0.0,0.0,0.0,0.0,-0.473,-0.9958,-1.5535,-1.5717,-1.5784,-1.5927,-1.9114,-2.0673,-2.0972,-2.4838,-2.6499,-2.6499,-2.6499,-2.6418,-2.5943,-2.2113,-2.0605,-2.0595,-2.0546,-1.9434,-1.8252,0.0,0.0,0.0,0.0,0.0,0.0,0.0,0.0,0.0,0.0,0.0,0.0,0.0,0.0,0.0,0.0,0.4054,0.3791,0.3606,0.3679,0.36,0.3276,0.3656,0.3826,0.3731,0.3921,0.4045,0.4168,0.4244,0.4345,0.4453,0.4775,0.4703,0.4309,0.5374,0.5577,0.5201,0.5801,0.6,0.5925,0.5538,0.5339,0.5293,0.5445,0.5209,0.4996,0.0,0.7131,0.7023,0.6216,0.6428,0.681,0.5697,0.5354,0.5423,0.5827,0.5955,0.5955,0.5955,0.652,0.741,0.8576,0.5613,0.197,0.0359,0.0,0.0,0.0,0.0,0.0,0.0,0.0,0.0,0.0,0.0,0.0,0.0,-0.2395,-0.4045,-0.3637,-0.4996,-0.5917,-0.5716,-0.4768,-0.4325,-0.4667,-0.4732,-0.335,-0.018,0.0,0.0,0.0,0.0,0.0,0.0,-0.473,-1.0012,-1.5784,-1.5784,-1.6934,-1.9042,-2.0129,-2.0605,-2.0828,-2.4791,-2.6499,-2.6499,-2.6499,-2.6499,-2.6117,-2.2151,-2.0605,-2.0605,-2.0605,-2.0233,-1.9619,0.0,0.0,0.0,0.0,0.0,0.0,0.0,0.0,0.0,0.0,0.0,0.0,0.0,0.0,0.0,0.0,0.0,0.4044,0.3964,0.3817,0.3614,0.3371,0.3482,0.3561,0.3604,0.3687,0.3809,0.3938,0.396,0.4011,0.4062,0.428,0.4191,0.3865,0.4791,0.4981,0.467,0.5248,0.5484,0.546,0.514,0.4988,0.4948,0.4767,0.4604,0.0,0.4249,0.3928,0.3692,0.429,0.5225,0.5922,0.4843,0.4081,0.372,0.4317,0.5222,0.5949,0.5531,0.5986,0.6249,0.4888,0.2282,0.0,0.0,0.0,0.0,0.0,0.0,0.0376,0.1703,0.1931,0.1524,0.0224,0.0,-0.0595,-0.2292,-0.4711,-0.6235,-0.602,-0.619,-0.6146,-0.5757,-0.6071,-0.6457,-0.6797,-0.6977,-0.5755,-0.2683,-0.0942,0.0,0.0,0.0,-0.0808,-0.2505,-0.7618,-1.3298,-1.9311,-1.8722,-1.9157,-2.0605,-2.0605,-2.1375,-2.285,-2.5394,-2.6499,-2.6499,-2.6499,-2.6499,-2.6117,-2.2151,-2.0605,-2.0605,-2.0605,-2.0605,-2.0449,0.0,0.0,0.0,0.0,0.0,0.0,0.0,0.0,0.0,0.0,0.0,0.0,0.0,0.0,0.0,0.0,0.0,0.0,0.4584,0.3986,0.3677,0.3781,0.3348,0.3256,0.3573,0.3398,0.3465,0.3768,0.3665,0.3672,0.3782,0.3788,0.3951,0.419,0.4389,0.4644,0.4864,0.4857,0.4854,0.4854,0.4837,0.4779,0.464,0.4522,0.4477,0.4412,0.3815,0.3604,0.3689,0.4255,0.4443,0.447,0.4576,0.4228,0.3876,0.437,0.648,0.8439,0.7401,0.6918,0.5667,0.1121,-0.018,-0.0314,-0.0045,0.0,0.0,0.0,0.0124,0.1275,0.4705,0.5347,0.4185,0.0567,0.0,-0.1632,-0.6316,-0.66,-0.6515,-0.7031,-0.6647,-0.6344,-0.6344,-0.6574,-0.6691,-0.6691,-0.7158,-0.7445,-0.7445,-0.2949,-0.0359,-0.0359,-0.0359,-0.2555,-0.7094,-1.2966,-1.9062,-2.5255,-2.3547,-2.2013,-2.0732,-2.0644,-2.2627,-2.6198,-2.6418,-2.6499,-2.6499,-2.6499,-2.6499,-2.6117,-2.2151,-2.0605,-2.0605,-2.0605,-2.0605,-2.0605,0.0,0.0,0.0,0.0,0.0,0.0,0.0,0.0,0.0,0.0,0.0,0.0,0.0,0.0,0.0,0.0,0.0,0.0,0.46,0.4254,0.393,0.3664,0.329,0.3138,0.3236,0.3331,0.3388,0.342,0.3541,0.3621,0.3658,0.3741,0.3894,0.4058,0.421,0.4406,0.46,0.4436,0.4365,0.4372,0.4168,0.4124,0.4185,0.4148,0.4296,0.4412,0.3815,0.3604,0.3624,0.3778,0.3829,0.4127,0.582,0.6262,0.5919,0.4809,0.5657,0.6946,0.7062,0.451,0.1523,0.0314,-0.2684,-0.4374,-0.0808,0.0,0.0,0.0,0.1803,0.362,0.4572,0.472,0.3693,0.053,0.0,-0.1214,-0.4674,-0.6169,-0.6927,-0.7078,0.0,-0.6915,-0.6915,-1.0068,-1.2123,-1.2123,-1.2241,-1.2303,-1.2303,-0.7844,-0.5309,-0.5309,-0.5309,-0.6068,-0.7759,-1.3998,-1.799,-1.9657,-1.829,-1.9335,-2.2441,-2.1192,-2.1155,-2.2264,-2.5205,-2.6499,-2.6499,-2.6499,-2.6499,-2.6117,-2.2151,-2.0605,-2.0605,-2.0605,-2.0605,-2.0605,0.0,0.0,0.0,0.0,0.0,0.0,0.0,0.0,0.0,0.0,0.0,0.0,0.0,0.0,0.0,0.0,0.0,0.0,0.0,0.4675,0.4314,0.4184,0.3538,0.3261,0.3409,0.3324,0.3283,0.3306,0.3414,0.348,0.348,0.349,0.3556,0.3704,0.3768,0.391,0.4095,0.3988,0.3967,0.0,0.0,0.3907,0.408,0.4011,0.4202,0.4412,0.3815,0.425,0.494,0.3928,0.4272,0.5417,0.7216,0.7104,0.6106,0.5163,0.5743,0.6255,0.4452,0.2014,-0.0494,-0.2593,-0.5132,-0.632,-0.341,-0.1335,0.0377,0.171,0.2282,0.2538,0.2538,0.2538,0.2579,0.2743,0.12,-0.1307,-0.5107,-0.6465,-0.7095,0.0,-0.7095,0.0,-0.7095,-1.1348,-1.4901,-1.6805,-1.5186,-1.4943,-1.6846,-1.2626,-1.0392,-1.0899,-1.0913,-1.1333,-1.22,-1.5814,-1.7321,-1.6807,-1.6146,-1.725,-1.9892,-2.0376,-2.0605,-2.0712,-2.2962,-2.4909,-2.6499,-2.6499,-2.6499,-2.6117,-2.2151,-2.0605,-2.0605,-2.0605,-2.0605,-2.0605,0.0,0.0,0.0,0.0,0.0,0.0,0.0,0.0,0.0,0.0,0.0,0.0,0.0,0.0,0.0,0.0,0.0,0.0,0.0,0.0,0.4696,0.4888,0.3873,0.3457,0.3775,0.3322,0.3138,0.3249,0.3269,0.3279,0.3276,0.3162,0.3162,0.3306,0.3286,0.3384,0.3548,0.3549,0.3592,0.3704,0.3724,0.3883,0.4064,0.0,0.4121,0.4307,0.3788,0.4874,0.6246,0.4272,0.4971,0.6867,0.8086,0.7123,0.5413,0.486,0.5365,0.5265,0.1121,-0.0449,-0.1925,-0.6068,-0.7038,-0.6868,-0.6317,-0.2663,0.1375,0.405,0.2548,0.0575,0.0086,0.0,0.1211,0.4876,0.241,-0.168,-0.6416,-0.7095,-0.7312,-0.7965,-0.8009,-0.8009,-0.8009,-1.1692,-1.5744,-1.9688,-1.6868,-1.6601,-2.0401,-1.7009,-1.5214,-1.5792,-1.5979,-1.6553,-1.7569,-1.7582,-1.6987,-1.5778,-1.5099,-1.5146,-1.588,-1.8523,-1.9756,-1.9756,-2.0362,-2.2563,-2.5721,-2.5721,-2.5721,-2.5381,-2.1935,-2.0605,-2.0605,-2.0605,-2.0605,-2.0605,0.0,0.0,0.0,0.0,0.0,0.0,0.0,0.0,0.0,0.0,0.4961,0.4626,0.0,0.0,0.0,0.0,0.0,0.0,0.0,0.0,0.0,0.4888,0.3873,0.3399,0.3639,0.318,0.2939,0.2966,0.3084,0.3141,0.3138,0.3114,0.3162,0.3303,0.3179,0.3226,0.334,0.3236,0.3195,0.3229,0.3333,0.3408,0.3471,0.3621,0.0,0.0,0.3641,0.3862,0.4122,0.3733,0.4189,0.5156,0.6352,0.6459,0.5453,0.1946,0.1075,0.1031,0.0225,-0.2861,-0.6068,-0.6871,-0.6773,-0.6293,-0.5689,-0.0739,0.0,0.5038,0.4813,0.3545,0.0556,0.0,0.0236,0.0982,0.0491,-0.1648,-0.6449,-0.7095,-0.8532,0.0,-1.2912,-1.2912,-1.2912,-1.3603,-1.4822,-1.6475,-1.8423,-1.9795,-2.0566,-1.9874,-1.8322,-1.588,-1.6774,-1.7375,-1.7582,-1.7582,-1.6987,-1.573,-1.14,-1.1595,-1.5792,-1.5424,-1.5228,-1.5428,-1.9027,-2.0972,-2.1642,-2.1642,-2.1642,-2.1565,-2.0857,-2.0605,-2.0605,-2.0605,-2.0605,-2.0605,0.0,0.0,0.0,0.0,0.0,0.0,0.0,0.5752,0.5595,0.533,0.5069,0.4863,0.4716,0.471,0.4909,0.0,0.0,0.0,0.0,0.0,0.0,0.0,0.4378,0.4029,0.4123,0.3564,0.3262,0.3262,0.0,0.3101,0.3101,0.3101,0.3138,0.3189,0.3135,0.3172,0.3286,0.3236,0.3144,0.3056,0.3162,0.3293,0.3467,0.0,0.0,0.0,0.3805,0.3604,0.3401,0.2146,0.1912,0.2658,0.5438,0.63,0.5487,0.1247,-0.1735,-0.3708,-0.3708,-0.5354,-0.7095,-0.7095,-0.6698,-0.6057,-0.5132,0.0,0.0,0.4801,0.3668,0.2049,0.0307,-0.1021,-0.1453,-0.0197,-0.1836,-0.4826,-0.9195,-1.0359,-1.1563,-1.3828,-1.4088,-1.4088,-1.4088,-1.4088,-1.4322,-1.4883,-1.8465,-2.0605,-2.0605,-2.1416,-2.0034,-1.5947,-1.6967,-1.7288,-1.6673,-1.7275,-1.5626,-1.1692,-0.9213,-0.9308,-1.1711,-1.0835,-1.1778,-1.4208,-1.6322,-1.8501,-2.0605,-2.0605,-2.0605,-2.0605,-2.0605,-2.0605,-2.0605,-2.0605,-2.0605,-2.0605,0.0,0.0,0.0,0.0,0.0,0.0,0.0,0.5652,0.5538,0.5224,0.5332,0.5313,0.4973,0.5081,0.5386,0.0,0.0,0.0,0.0,0.0,0.0,0.0,0.0,0.0,0.4602,0.0,0.0,0.3533,0.3188,0.0,0.0,0.0,0.0,0.0,0.3023,0.3096,0.3232,0.3191,0.3078,0.0,0.0,0.3171,0.0,0.0,0.0,0.0,0.0,0.3409,0.3128,0.1371,0.0691,0.1096,0.4041,0.4944,0.4311,0.0956,-0.3005,-0.6448,-0.6957,-0.7095,-0.7095,-0.7095,-0.6698,-0.5982,-0.4767,-0.0687,0.2973,0.3436,0.1647,0.0,0.0,-0.1558,-0.2214,-0.0293,-0.2772,-0.6419,-1.0581,-1.2859,-1.4088,-1.4088,-1.4309,0.0,-1.4462,-1.4235,-1.4088,-1.4088,-1.7285,-1.9629,-2.0557,-2.2197,-2.0854,-1.5967,-1.6727,-1.6767,-1.5791,-1.6747,-1.4112,-0.7988,-0.7988,-0.7988,-0.7968,-0.7368,-0.9091,-1.2607,-1.2607,-1.5114,-1.9225,-1.9225,-1.9756,-2.0605,-2.0605,-2.0605,-2.0605,-2.0605,-2.0605,-2.0605,0.0,0.0,0.0,0.0,0.0,0.0,0.0,0.6139,0.5968,0.552,0.6096,0.6337,0.5756,0.5713,0.576,0.0,0.0,0.0,0.0,0.0,0.0,0.0,0.0,0.0,0.0,0.0,0.0,0.3336,0.2928,0.0,0.0,0.0,0.0,0.0,0.0,0.2846,0.3013,0.2829,0.0,0.0,0.0,0.0,0.0,0.0,0.0,0.0,0.0,0.2781,0.2831,0.3161,0.2904,0.2236,0.0973,0.0573,0.0514,0.0104,0.0,0.0,-0.6512,-0.7095,-0.7095,-0.7095,-0.6698,-0.5982,-0.4767,0.0,0.0359,0.0391,0.0196,0.0,0.0,-0.0194,-0.026,-0.0033,-0.034,-0.2205,-0.6825,-1.1303,-1.4088,-1.4088,0.0,0.0,-1.5624,-1.471,-1.4088,-1.4088,-1.4454,-1.6437,-2.0401,-2.2197,-2.0854,-1.5967,-1.5884,-1.5891,-1.5784,-1.5884,-1.3288,-0.7988,-0.7988,-0.7988,-0.7968,-0.7368,-0.7312,-0.7749,-0.7749,-1.038,-1.4699,-1.4699,-1.7041,-2.0605,-2.0605,-2.0605,-2.0605,-2.0605,-2.0605,-2.0605,0.0,0.0,0.0,0.0,0.0,0.0,0.6914,0.6508,0.6325,0.6657,0.6709,0.6733,0.6815,0.6864,0.6797,0.6596,0.0,0.0,0.0,0.0,0.0,0.0,0.0,0.0,0.0,0.0,0.4075,0.4075,0.3674,0.0,0.0,0.0,0.0,0.0,0.0,0.2925,0.3273,0.2864,0.0,0.0,0.0,0.0,0.0,0.0,0.0,0.0,0.0,0.0,0.2788,0.3399,0.2477,0.0941,0.0231,0.0995,0.1877,0.0,-0.2477,-0.5515,-0.6745,-0.7095,-0.7095,-0.7095,-0.6698,-0.5982,-0.4767,0.0,0.0,0.0,0.0,0.0,0.0,0.0,0.0,0.0,0.0,-0.0651,-0.2514,-0.8691,-1.328,-1.4001,-1.6838,-1.7672,-1.5035,-1.4362,-1.4088,-1.4088,-1.4736,-1.6707,-2.041,-2.1221,-1.9501,-1.4909,-1.5464,-1.5784,-1.5784,-1.5784,-1.4752,-1.2662,-0.9505,-0.7988,-0.7968,-0.7368,-0.7095,-0.7095,-0.7095,-0.8141,-1.0091,-1.2954,-1.5103,-1.6683,-1.6683,-1.6683,-1.7001,-1.9629,-2.0605,-2.0605,0.0,0.0,0.0,0.0,0.0,0.7118,0.7167,0.6692,0.6549,0.7176,0.714,0.722,0.7657,0.796,0.7957,0.7494,0.7344,0.0,0.0,0.0,0.0,0.0,0.0,0.0,0.0,0.0,0.481,0.481,0.4344,0.4005,0.0,0.0,0.3306,0.3278,0.0,0.0,0.0,0.0,0.0,0.0,0.0,0.0,0.0,0.0,0.0,0.0,0.0,0.0,0.0,0.0,0.0,0.0791,0.0792,0.1603,0.2192,0.0494,-0.2099,-0.482,-0.6623,-0.7095,-0.7095,-0.7095,-0.6698,-0.5934,0.0,0.0,0.0,0.0,0.0,0.0,0.0,0.0,0.0,0.0,0.0,0.0,0.0,-0.6822,-1.2098,-1.2946,-1.6372,-1.7971,-1.6198,-1.6034,-1.6034,-1.6034,-1.5576,-1.6294,-1.8563,-1.9014,-1.7597,-1.4222,-1.5217,-1.5784,-1.5784,-1.5784,-1.4997,-1.344,-0.9747,-0.7897,-0.7712,-0.7287,-0.7095,-0.7095,-0.7095,-0.7095,-0.7356,-1.0654,-1.2863,-1.4088,-1.4088,-1.4088,-1.4615,-1.8988,-2.0605,-2.0605,0.0,0.0,0.0,0.0,0.0,0.0,0.6714,0.66,0.6616,0.6707,0.7393,0.7968,0.8168,0.8906,0.9076,0.8351,0.7918,0.0,0.0,0.0,0.0,0.0,0.0,0.0,0.0,0.0,0.5293,0.5293,0.4686,0.4017,0.3306,0.3306,0.3306,0.3278,0.0,0.0,0.0,0.0,0.0,0.0,0.0,0.0,0.0,0.0,0.0,0.0,0.0,0.0,0.0,0.0,0.0,0.0,0.0,0.1469,0.0022,0.0,-0.0025,-0.1098,-0.582,-0.7095,-0.7095,-0.7095,-0.6698,-0.5829,-0.4023,-0.1745,0.0,0.0,0.0,0.0,0.0,0.0,0.0,0.0,0.0,0.0,0.0,-0.6136,-1.0613,-1.0626,-1.2735,-1.5835,-2.0118,-2.0518,-2.0518,-2.0518,-1.6535,-1.4144,-1.4173,-1.5229,-1.5323,-1.4122,-1.5217,-1.5784,-1.5784,-1.5784,-1.3199,-0.8088,-0.8038,-0.7678,-0.7105,-0.7098,-0.7095,-0.7095,-0.7095,-0.7095,-0.7095,-0.7139,-0.9918,-1.4088,-1.4088,-1.4088,-1.4615,-1.8988,-2.0605,-2.0605,0.0,0.0,0.0,0.0,0.0,0.0,0.0,0.7538,0.7087,0.7897,0.8095,0.8343,0.8766,0.9163,0.9302,0.9074,0.8477,0.0,0.0,0.0,0.0,0.0,0.0,0.0,0.0,0.0,0.5293,0.5293,0.5112,0.4899,0.466,0.4248,0.4049,0.4033,0.3723,0.3253,0.0,0.0,0.0,0.0,0.0,0.0,0.5119,0.0,0.0,0.0,0.0,0.0,0.0,0.0,0.0,0.0,0.0,0.0,0.0,0.1967,0.1301,-0.0332,-0.1831,-0.4357,-0.6539,-0.6539,-0.6126,-0.4882,-0.1847,-0.0543,0.0,0.0,0.0,0.0,0.0,0.0,0.0,0.0,0.0,0.0,0.0,-0.1935,-0.5153,-1.0021,-1.1256,-1.317,-1.6949,-2.0338,-2.1836,-2.0693,-1.9304,-1.7245,-1.425,-1.5197,-1.5611,-1.5291,-1.5591,-1.5784,-1.5784,-1.5784,-1.3199,-0.7985,-0.7574,-0.728,-0.7095,-0.7095,-0.7095,-0.7095,-0.7095,-0.7095,-0.7095,-0.7095,-0.9874,-1.4088,-1.4088,-1.4088,-1.425,-1.5628,-1.8052,-2.0605,0.0,0.0,0.0,0.0,0.0,0.0,0.0,0.7835,0.7501,0.848,0.8495,0.8673,0.9327,0.9514,0.9528,0.9409,0.8978,0.0,0.0,0.0,0.0,0.0,0.0,0.0,0.6708,0.6382,0.5905,0.5293,0.5293,0.5293,0.5293,0.4915,0.4558,0.4237,0.407,0.3875,0.0,0.0,0.0,0.0,0.0,0.0,0.5119,0.0,0.0,0.0,0.0,0.0,0.0,0.0,0.0,0.0,0.0,0.0,0.0,0.0,0.1186,0.0,0.0,-0.1907,-0.3941,-0.3941,-0.3653,-0.276,-0.0508,0.0,0.0,0.0,0.0,0.0,0.0,0.0,0.0,0.0,-0.1136,-0.2036,-0.2026,-0.3162,-0.5985,-1.1298,-1.3917,-1.6168,-1.832,-1.9617,-2.0677,-2.1489,-2.1533,-1.9365,-1.4355,-1.4776,-1.517,-1.517,-1.517,-1.5384,-1.5778,-1.383,-1.1091,-0.7648,-0.7274,-0.8009,-0.9744,-0.9744,-0.9744,-0.9744,-0.9744,-0.9744,0.0,-0.7834,-0.9874,-1.4088,-1.4088,-1.4088,-1.4088,-1.4088,-1.6846,-2.0605,0.0,0.0,0.0,0.0,0.0,0.0,0.0,0.7649,0.783,0.8505,0.8619,0.8961,0.9818,0.9919,0.9816,0.9502,0.0,0.0,0.0,0.0,0.0,0.0,0.0,0.0,0.7695,0.7695,0.6966,0.5467,0.5356,0.5293,0.5293,0.5293,0.4858,0.4091,0.4091,0.4538,0.0,0.0,0.0,0.0,0.0,0.0,0.0,0.0,0.0,0.0,0.0,0.0,0.0,0.0,0.0,0.0,0.0,0.0,0.0,0.0,0.0,0.0,0.0,0.0,0.0,0.0,0.0,0.0,0.0,0.0,0.0,0.0,-0.0139,-0.0249,-0.0249,-0.0111,-0.011,-0.0441,-0.3031,-0.5032,-0.5032,-0.8238,-1.1607,-1.4241,-1.9609,-2.296,-2.2589,-1.848,-1.7708,-2.2227,-2.2528,-2.0025,-1.4396,-1.4088,-1.4088,-1.4088,-1.4088,-1.4427,-1.516,-1.0343,-0.7644,-0.7095,-0.7445,-0.9874,-1.4088,-1.4088,-1.4088,-1.4088,-1.4088,-1.4088,-1.3737,-0.9396,-1.0178,-1.4088,-1.4088,-1.4088,-1.4088,-1.4088,-1.6642,-2.0196,0.0,0.0,0.0,0.0,0.0,0.0,0.0,0.0,0.0,0.0,0.8793,0.924,0.9904,1.0155,1.0247,0.0,0.0,0.0,0.0,0.0,0.0,0.0,0.0,0.0,0.7695,0.7695,0.751,0.7131,0.5905,0.5293,0.5293,0.5293,0.5198,0.4992,0.4992,0.5103,0.0,0.0,0.0,0.0,0.0,0.0,0.0,0.0,0.0,0.0,0.5293,0.4172,0.0,0.0,0.0,0.0,0.0,0.0,0.0,0.0,0.1454,0.0,0.0,0.0,0.0,0.0,0.0,0.0,0.0,0.0,0.0,0.0,-0.1464,-0.2743,-0.2743,-0.1255,-0.1179,-0.4779,-0.305,-0.1258,-0.1258,-0.6643,-1.2725,-1.8404,-2.1474,-2.1632,-1.7886,-1.6473,-1.6292,-1.7429,-1.6691,-1.5581,-1.4186,-1.4088,-1.4088,-1.4088,-1.4088,-1.2506,-0.918,-0.7932,-0.7237,-0.7139,-1.074,-1.3039,-1.4088,-1.4088,-1.4088,-1.4088,-1.4088,-1.4088,-1.3997,-1.2912,-1.3082,-1.4088,-1.4088,-1.4088,-1.4088,-1.4088,-1.4741,-1.6116,0.0,0.0,0.0,0.0,0.0,0.0,0.0,0.0,0.0,0.0,0.0,0.0,0.0,0.0,0.0,0.0,0.0,0.0,0.0,0.0,0.0,0.0,0.0,0.7695,0.7695,0.7695,0.7695,0.7695,0.6822,0.6014,0.5293,0.5293,0.5293,0.5293,0.5293,0.5293,0.0,0.0,0.0,0.0,0.5601,0.0,0.0,0.0,0.0,0.0,0.4403,0.4016,0.0,0.3897,0.3364,0.2696,0.0,0.0,0.0,0.0,0.1031,0.0,0.0,0.0,0.0,0.0,0.0,0.0,0.0,0.0,0.0,0.0,-0.1031,-0.1944,-0.1944,-0.0874,-0.1524,-0.6235,-0.3066,-0.1383,-0.5359,-0.8628,-1.2544,-1.7761,-1.8245,-1.8128,-1.7991,-1.6204,-1.503,-1.503,-1.4442,-1.4088,-1.4088,-1.4088,-1.4088,-1.4088,-1.1997,-0.9657,-0.7139,-0.7095,-0.8181,-1.0351,-1.2912,-1.4088,-1.4088,-1.4088,-1.5186,-1.6968,-1.4985,-1.4088,-1.4088,-1.4088,-1.4088,-1.4088,-1.4088,-1.4088,-1.4088,-1.4088,-1.4088,-1.4741,0.0,0.0,0.0,0.0,0.0,0.0,0.0,0.0,0.0,0.0,0.0,0.0,0.0,0.0,0.0,0.0,0.0,0.0,0.0,0.0,0.0,0.0,0.7892,0.786,0.7695,0.7695,0.7695,0.7695,0.7695,0.7011,0.5663,0.5419,0.5435,0.5648,0.5404,0.5293,0.0,0.0,0.0,0.0,0.5851,0.0,0.0,0.0,0.0,0.0,0.0,0.0,0.0,0.5293,0.414,0.2696,0.2696,0.0,0.0,0.0,0.0,0.0,0.0,0.0,0.0106,0.0574,0.0617,0.0449,0.009,0.0,0.0,0.0,0.0,0.0,0.0,0.0,-0.1445,-0.5892,-0.3961,-0.4426,-1.177,-1.2201,-1.2841,-1.58,-1.4042,-1.4691,-2.0101,-1.6642,-1.4088,-1.4088,-1.4088,-1.4088,-1.4088,-1.4088,-1.4088,-1.4088,-1.0221,-0.7834,-0.7095,-0.7095,-0.944,-1.4088,-1.4088,-1.4088,-1.4088,-1.4088,-1.6116,-1.9383,-1.5711,-1.4088,-1.4088,-1.4088,-1.4088,-1.4088,-1.4088,-1.4088,-1.4088,-1.4088,-1.4088,-1.4741,0.0,0.0,0.0,0.0,0.0,0.0,0.0,0.0,0.0,0.0,0.0,0.0,0.0,0.0,0.0,0.0,0.0,0.0,0.0,0.0,0.0,0.8393,0.8754,0.8568,0.771,0.7695,0.7695,0.7695,0.7695,0.7578,0.7294,0.5944,0.6029,0.7273,0.5905,0.5293,0.5293,0.5293,0.0,0.0,0.5404,0.0,0.0,0.0,0.0,0.0,0.0,0.0,0.0,0.5293,0.414,0.2696,0.2696,0.0,0.0,0.0,0.0,0.0,0.0,0.0,0.0621,0.3166,0.3431,0.2504,0.0471,0.0,0.0,0.0,0.0,0.0,0.0,0.0,-0.1082,-0.4351,-0.8001,-1.0887,-1.2193,-1.4959,-1.7064,-1.7594,-1.5404,-1.5609,-2.0168,-1.6642,-1.4088,-1.4088,-1.4088,-1.4088,-1.4088,-1.4088,-1.4088,-1.4088,-1.3392,-1.1133,-0.7139,-0.7095,-0.944,-1.4088,-1.4088,-1.4088,-1.4088,-1.4088,-1.4454,-1.5061,-1.437,-1.4088,-1.4088,-1.4088,-1.4088,-1.4088,-1.4088,-1.4088,-1.4088,-1.4088,-1.4088,-1.4741,0.0,0.0,0.0,0.0,0.0,0.0,0.0,0.0,0.0,0.0,0.0,0.0,0.0,0.0,0.0,0.0,0.0,0.0,0.0,0.0,0.89,0.8096,0.9034,0.9172,0.8312,0.7904,0.7695,0.7695,0.7695,0.7249,0.6382,0.5648,0.5695,0.6413,0.6535,0.6595,0.6535,0.5663,0.5293,0.0,0.0,0.0,0.0,0.0,0.0,0.0,0.0,0.0,0.0,0.0,0.5171,0.476,0.3189,0.0,0.0,0.0,0.0,0.0,0.0,0.0,0.0343,0.1713,0.0869,-0.0577,-0.1697,0.0067,0.1566,0.0269,0.0,0.0,0.0,-0.1609,-0.4003,-0.7275,-1.0893,-1.3267,-1.3267,-1.4768,-1.6763,-1.9118,-1.8342,-1.8421,-2.0401,-1.6642,-1.4088,-1.4088,-1.4088,-1.4088,-1.4088,-1.1692,-1.1477,-1.3997,-1.4088,-1.3039,-1.0913,-1.0869,-1.1955,-1.4088,-1.4088,-1.4088,-1.4088,-1.4088,-1.5387,-1.7609,-1.7609,-1.6281,-1.4088,-1.4088,-1.4088,-1.4088,-1.4088,-1.4088,-1.4088,-1.4088,-1.4088,-1.4741,0.0,0.0,0.0,0.0,0.0,0.0,0.0,0.0,0.0,0.0,0.0,0.0,0.0,0.0,0.0,0.0,0.0,0.0,0.0,0.9422,0.8877,0.7749,0.8625,0.8863,0.8297,0.8241,0.8037,0.7695,0.7324,0.6504,0.5293,0.5293,0.5293,0.5372,0.6981,0.7695,0.7622,0.6382,0.5648,0.0,0.0,0.0,0.0,0.0,0.0,0.0,0.0,0.0,0.0,0.0,0.0,0.0,0.0,0.0,0.0,0.1032,0.0326,0.0,0.0,0.0,0.0,0.0,-0.1811,-0.3604,-0.3604,-0.1146,0.0592,-0.1261,-0.1643,-0.1791,-0.2321,-0.5166,-0.8304,-1.1,-1.2945,-1.4088,-1.4088,-1.4088,-1.5711,-2.0079,-2.0605,-2.0605,-2.0605,-1.7568,-1.5186,-1.4166,-1.4088,-1.4088,-1.4088,-1.0697,-1.0394,-1.3997,-1.4088,-1.4088,-1.4088,-1.4088,-1.4088,-1.4088,-1.4088,-1.4088,-1.4124,-1.5144,-1.7447,-2.0605,-2.0605,-1.87,-1.5545,-1.4538,-1.4088,-1.4088,-1.4088,-1.4088,-1.4088,-1.4088,-1.4088,-1.4741,0.0,0.0,0.0,0.0,0.0,0.0,0.0,0.0,0.0,0.0,0.0,0.0,0.0,0.0,0.0,0.0,0.0,0.0,0.0,0.8334,0.7811,0.7711,0.7137,0.6819,0.6765,0.8724,0.9076,0.7695,0.6199,0.5419,0.5293,0.5293,0.5293,0.5372,0.6981,0.7695,0.7695,0.7578,0.6671,0.5166,0.3544,0.0,0.0,0.0,0.0,0.0,0.0,0.0,0.0,0.0,0.0,0.0,0.0,0.0,0.2673,0.2544,0.1316,0.0,0.0,0.0,0.0,0.0,-0.1811,-0.3604,-0.3604,-0.4964,-0.6295,-0.6461,-0.6489,-0.712,-0.918,-1.1689,-1.3579,-1.3793,-1.3975,-1.4088,-1.4088,-1.4088,-1.5711,-2.0079,-2.0605,-2.0605,-2.0605,-2.0323,-1.8461,-1.4412,-1.4088,-1.4088,-1.4088,-1.3779,-1.3737,-1.4088,-1.4088,-1.4088,-1.4088,-1.4088,-1.4088,-1.4088,-1.4088,-1.4088,-1.425,-1.8292,-2.0313,-2.0605,-2.0605,-2.044,-1.9835,-1.5752,-1.4088,-1.4088,-1.4088,-1.4088,-1.4088,-1.4088,-1.4088,-1.4741,0.0,0.0,0.0,0.0,0.0,0.0,0.0,0.0,0.0,0.0,0.0,0.0,0.0,0.0,0.0,0.0,0.0,0.0,0.0,0.8273,0.7761,0.7037,0.8062,0.8651,0.8651,0.8566,0.8255,0.7695,0.6091,0.5293,0.5293,0.5293,0.5835,0.6777,0.6382,0.6762,0.7637,0.6626,0.5851,0.5246,0.458,0.0,0.0,0.0,0.0,0.0,0.0,0.0,0.0,0.0,0.4291,0.3105,0.3484,0.3443,0.3184,0.2809,0.2484,0.1901,0.0404,0.0,-0.0359,-0.1856,-0.1808,-0.2136,-0.5061,-0.8677,-1.2171,-1.4889,-1.5455,-1.4435,-1.1083,-1.0645,-1.1523,-1.3728,-1.4088,-1.4088,-1.4088,-1.4088,-1.4699,-1.6355,-1.8948,-2.0605,-2.0605,-2.0605,-1.9913,-1.8252,-1.8132,-1.8132,-1.8132,-1.5553,-1.4088,-1.4088,-1.4088,-1.4088,-1.4088,-1.6805,-1.8132,-1.8132,-1.8132,-1.8132,-1.8221,-1.9835,-2.0605,-2.0605,-2.0605,-1.9999,-1.8945,-1.8378,-1.7501,-1.6342,-1.4719,-1.4088,-1.4088,-1.4088,-1.4088,-1.4741,0.0,0.0,0.0,0.0,0.0,0.0,0.0,0.0,0.0,0.0,0.0,0.0,0.0,0.0,0.0,0.0,0.0,0.0,0.8417,0.7962,0.741,0.6637,0.8049,0.9178,0.988,0.8912,0.8166,0.7695,0.6091,0.5293,0.5293,0.5293,0.589,0.6897,0.5781,0.5905,0.6867,0.5773,0.5293,0.5266,0.4891,0.4965,0.0,0.0,0.0,0.0,0.0,0.0,0.0,0.0,0.414,0.2805,0.3409,0.3604,0.3484,0.2873,0.3126,0.3062,0.065,0.0,-0.094,-0.4837,-0.399,-0.2871,-0.5353,-1.0161,-1.5345,-1.9708,-2.0605,-1.9014,-1.3866,-1.1821,-1.2041,-1.5565,-1.6157,-1.6157,-1.6157,-1.6157,-1.6157,-1.6157,-1.878,-2.0605,-2.0605,-2.0605,-2.0605,-2.0605,-2.0605,-2.0605,-2.0605,-1.777,-1.6157,-1.6157,-1.6157,-1.6157,-1.6157,-1.9107,-2.0605,-2.0605,-2.0605,-2.0605,-2.0605,-2.0605,-2.0605,-2.0605,-2.0605,-1.993,-1.8867,-1.9492,-1.9385,-1.8629,-1.6867,-1.6157,-1.6157,-1.6157,-1.6157,-1.6396,0.0,0.0,0.0,0.0,0.0,0.0,0.0,0.0,0.0,0.0,0.0,0.0,0.0,0.0,0.0,0.0,0.0,0.0,0.843,0.7247,0.6599,0.6599,0.6599,0.7626,0.983,0.988,0.9157,0.7681,0.6075,0.5293,0.5293,0.5293,0.5293,0.5293,0.5293,0.5293,0.5277,0.5293,0.5293,0.5193,0.4003,0.4229,0.5293,0.0,0.0,0.0,0.0,0.0,0.0,0.0,0.4134,0.2812,0.3413,0.3604,0.3484,0.2873,0.3126,0.3062,0.0626,-0.0022,-0.1703,-0.8807,-0.8797,-0.6483,-0.4256,-0.9049,-1.526,-1.9737,-2.0644,-2.0105,-1.8335,-1.6613,-1.6594,-2.0048,-2.0605,-2.0605,-2.0605,-2.0605,-2.0605,-2.0605,-2.0605,-2.0605,-2.0605,-2.0605,-2.0605,-2.0605,-2.0605,-2.0605,-2.0605,-2.0605,-2.0605,-2.0605,-2.0605,-2.0605,-2.0605,-2.0605,-2.0605,-2.0605,-2.0605,-2.0605,-2.0605,-2.0605,-2.0605,-2.0605,-2.0624,-2.0615,-2.0449,-1.8711,-1.9014,-2.0586,-2.0595,-2.0605,-2.0605,-2.0605,-2.0605,-1.9991,0.0,0.0,0.0,0.0,0.0,0.0,0.0,0.0,0.0,0.0,0.0,0.0,0.0,0.0,0.0,0.0,0.0,0.0,0.9466,0.7648,0.6599,0.6599,0.6599,0.7157,0.8326,0.8354,0.7589,0.6014,0.5538,0.5293,0.5293,0.5293,0.5293,0.5293,0.5293,0.4612,0.356,0.4778,0.5293,0.5266,0.4918,0.4985,0.5293,0.0,0.0,0.0,0.0,0.0,0.0,0.0,0.0,0.0,0.3546,0.3604,0.3484,0.2873,0.3126,0.2802,-0.0895,-0.0978,-0.1299,-0.6722,-0.962,-1.1592,-1.3333,-1.0428,-1.0673,-2.2355,-2.4767,-2.3637,-1.9936,-2.0129,-2.079,-2.0641,-2.0605,-2.0605,-2.0605,-2.0605,-2.0605,-2.0605,-2.0605,-2.0605,-2.0605,-2.0605,-2.0605,-2.0605,-2.0605,-2.0605,-2.0605,-2.0605,-2.0605,-2.0605,-2.0605,-2.0605,-2.0605,-2.0605,-2.0605,-2.0605,-2.0605,-2.0605,-2.0605,-2.0605,-2.0605,-2.0681,-2.1829,-2.0972,-1.873,-1.8223,-1.8311,-1.8887,-2.0136,-2.0605,-2.0605,-2.0605,-2.0605,-2.0401,0.0,0.0,0.0,0.0,0.0,0.0,0.0,0.0,0.0,0.0,0.0,0.0,0.0,0.0,0.0,0.0,0.0,0.0,0.0,0.7824,0.6599,0.6599,0.6599,0.6948,0.7686,0.7071,0.6275,0.5293,0.5293,0.5293,0.5293,0.5293,0.5293,0.5293,0.5293,0.4339,0.2812,0.4564,0.5293,0.5293,0.5293,0.5293,0.5293,0.0,0.0,0.0,0.0,0.0,0.0,0.0,0.0,0.0,0.3738,0.3604,0.3333,0.2023,0.1892,0.1395,-0.2107,-0.2928,-0.3452,-0.6292,-0.9514,-1.3031,-1.7077,-1.1882,-1.0066,-2.3687,-2.3615,-2.138,-2.2301,-2.3552,-2.4128,-2.3105,-2.2925,-2.2925,-2.2925,-2.0977,-2.0072,-2.1435,-2.039,-1.9852,-2.0537,-1.9989,-1.9834,-2.0556,-2.0605,-2.0605,-2.0605,-2.0605,-2.1308,-2.2888,-2.2925,-2.2925,-2.2925,-2.2925,-2.2925,-2.2925,-2.2925,-2.2484,-2.1634,-2.2539,-2.2462,-2.1642,-2.2654,-2.1916,-1.9933,-1.8553,-1.8408,-1.9131,-2.0204,-2.0605,-2.0605,-2.0605,-2.0605,-2.0605,0.0,0.0,0.0,0.0,0.0,0.0,0.0,0.0,0.0,0.0,1.1805,0.0,0.0,0.0,0.0,0.0,0.0,0.0,0.0,0.7723,0.6599,0.6599,0.6787,0.7153,0.7686,0.626,0.5529,0.5529,0.5529,0.5529,0.5514,0.5372,0.5293,0.5293,0.5293,0.4419,0.3056,0.4782,0.5435,0.5293,0.5293,0.5293,0.5293,0.5293,0.0,0.0,0.0,0.0,0.0,0.0,0.0,0.0,0.3927,0.3604,0.3176,0.0963,0.018,-0.0583,-0.3189,-0.5432,-0.7026,-0.7133,-0.9226,-1.2466,-1.699,-1.3652,-1.28,-2.3914,-1.9755,-1.6678,-2.4958,-2.6499,-2.6424,-2.6223,-2.6185,-2.6185,-2.6185,-2.1745,-1.9617,-2.272,-2.0354,-1.9093,-2.0687,-1.913,-1.8652,-2.0253,-2.0517,-2.0605,-2.0605,-2.0605,-2.2403,-2.6383,-2.6499,-2.6499,-2.6499,-2.6499,-2.6399,-2.6185,-2.6185,-2.5096,-2.3183,-2.5448,-2.528,-2.3108,-2.3321,-2.3296,-2.2854,-1.9748,-1.9326,-2.0586,-2.0429,-2.037,-2.037,-2.037,-2.037,-2.037,0.0,0.0,0.0,0.0,0.0,0.0,0.0,0.0,0.0,0.0,0.0,0.0,0.0,0.0,0.0,0.0,0.0,0.0,0.0,0.6862,0.6599,0.6599,0.8263,0.8716,0.7715,0.7362,0.7175,0.7175,0.7175,0.7175,0.716,0.5897,0.5293,0.5293,0.5293,0.5087,0.4852,0.6496,0.6459,0.5293,0.5293,0.5293,0.5293,0.5293,0.5293,0.0,0.0,0.0,0.0,0.0,0.0,0.0,0.3669,0.3604,0.349,0.2973,0.1477,-0.0915,-0.5122,-0.6634,-0.7226,-0.819,-1.2437,-1.6686,-1.775,-1.6949,-1.7526,-2.2748,-2.3702,-2.4181,-2.612,-2.6499,-2.5921,-2.413,-2.3822,-2.3822,-2.3822,-2.2787,-2.2267,-2.3005,-2.2463,-2.2157,-2.2548,-1.9786,-1.8164,-1.8535,-1.9842,-2.0605,-2.0605,-2.0605,-2.2403,-2.6383,-2.6499,-2.6499,-2.6499,-2.6499,-2.5619,-2.3822,-2.3822,-2.3559,-2.3183,-2.5448,-2.528,-2.3195,-2.4983,-2.4757,-2.3035,-2.2298,-2.1461,-2.0468,-1.9082,-1.8564,-1.8564,-1.8564,-1.8564,-1.8564,0.0,0.0,0.0,0.0,0.0,0.0,0.0,0.0,0.0,0.0,0.0,0.0,0.0,0.0,0.0,0.0,0.0,0.0,0.0,0.0,0.7075,0.8137,0.8612,0.8495,0.771,0.7695,0.7695,0.7695,0.7695,0.7695,0.7666,0.606,0.5293,0.5218,0.3517,0.3712,0.5356,0.6199,0.606,0.5293,0.5293,0.5293,0.5293,0.5293,0.5293,0.5293,0.5293,0.0,0.0,0.0,0.0,0.0,0.0,0.0,0.3604,0.3604,0.2704,0.0689,-0.4071,-0.6599,-0.8163,-0.9352,-1.2483,-1.5763,-1.7579,-1.8008,-1.8278,-1.9226,-2.2313,-2.487,-2.487,-2.487,-2.4494,-2.3296,-2.2205,-2.1027,-1.9602,-1.9424,-2.0327,-2.282,-2.3108,-2.3108,-2.3108,-2.1499,-1.9781,-1.81,-1.8838,-1.9382,-1.9382,-1.9382,-2.1034,-2.4761,-2.487,-2.487,-2.487,-2.487,-2.4293,-2.3108,-2.3108,-2.2543,-2.1619,-2.3853,-2.423,-2.317,-2.4368,-2.4205,-2.3108,-2.3108,-2.3221,-2.3058,-1.9422,-1.8008,-1.8008,-1.8008,-1.8008,-1.8008,0.0,0.0,0.0,0.0,0.0,0.0,0.0,0.0,0.0,0.0,0.0,0.0,0.0,0.0,0.0,0.0,0.0,0.0,0.0,0.0,0.0,0.9818,0.8734,0.808,0.808,0.7827,0.7695,0.7695,0.7695,0.7563,0.7244,0.5294,0.4384,0.4291,0.1949,0.2542,0.5293,0.5293,0.5293,0.5293,0.5293,0.5293,0.5293,0.5293,0.5293,0.5293,0.5293,0.5293,0.5108,0.387,0.0,0.0,0.0,0.0,0.3467,0.3573,0.3604,0.263,-0.1779,-0.6171,-0.9828,-1.1095,-1.2136,-1.3527,-1.6136,-1.6728,-1.6478,-1.5584,-1.904,-2.2128,-2.1813,-2.177,-2.177,-2.177,-2.0221,-1.8182,-1.5738,-1.541,-1.7162,-2.1972,-2.2531,-2.2531,-2.2531,-2.2531,-2.1522,-1.9079,-1.8327,-1.8008,-1.8008,-1.8008,-1.9584,-2.2975,-2.2525,-2.2494,-2.3095,-2.2719,-2.2531,-2.2531,-2.2531,-2.1566,-1.9861,-2.1691,-2.2744,-2.3108,-2.3108,-2.3108,-2.3035,-2.2463,-2.3321,-2.4554,-1.9829,-1.8008,-1.8008,-1.8008,-1.8008,-1.8008,0.0,0.0,0.0,0.0,0.0,0.0,0.0,0.0,0.0,0.0,0.0,0.0,0.0,0.0,0.0,0.0,0.0,0.0,0.934,0.0,0.0,0.988,0.9712,0.9595,0.9595,0.8354,0.7695,0.7695,0.7695,0.6996,0.5559,0.2241,0.0713,0.0815,0.3424,0.486,0.5293,0.5293,0.5293,0.5293,0.5293,0.5293,0.5293,0.5293,0.5293,0.5293,0.5293,0.5293,0.5042,0.3382,0.3167,0.0,0.0,0.0,0.2921,0.3447,0.3604,0.2996,0.0268,-0.628,-1.2732,-1.4363,-1.4876,-1.4389,-1.2104,-1.1578,-1.2304,-1.4882,-1.7156,-1.821,-1.6726,-1.643,-1.643,-1.643,-1.6178,-1.5853,-1.5468,-1.541,-1.6602,-1.9844,-2.025,-2.025,-2.025,-2.025,-2.0849,-2.2317,-1.9683,-1.8008,-1.8008,-1.8008,-1.9584,-2.2975,-2.0225,-2.0096,-2.3078,-2.1189,-2.025,-2.025,-2.025,-2.01,-1.9811,-2.0112,-2.1305,-2.3108,-2.3108,-2.3108,-2.2884,-1.9901,-1.8863,-1.9056,-1.8291,-1.8008,-1.8008,-1.8008,-1.8008,-1.8008,0.0,0.0,0.0,0.0,0.0,0.0,0.0,0.0,0.0,0.0,0.0,0.0,0.0,0.0,0.0,0.7431,0.6891,0.7548,0.9755,0.9905,0.9905,0.9905,0.9905,0.9905,0.9905,0.8051,0.729,0.7695,0.7695,0.6876,0.5218,0.1656,0.0,0.0111,0.2685,0.3277,0.2459,0.4453,0.5293,0.5293,0.5293,0.5293,0.5293,0.5293,0.5293,0.5293,0.5293,0.49,0.418,0.3067,0.3099,0.3542,0.3204,0.0,0.0,0.0,0.1588,0.1343,0.0292,-0.5601,-1.1836,-1.3564,-1.3994,-1.363,-1.2208,-1.0688,-1.019,-1.2285,-1.3314,-1.4168,-1.5213,-1.541,-1.5098,-1.415,-1.3994,-1.3994,-1.3994,-1.4814,-1.6479,-1.9449,-1.8719,-1.7953,-1.7953,-1.9083,-2.0213,-2.1164,-1.9231,-1.8008,-1.8008,-1.8008,-1.8687,-2.0193,-1.7829,-1.7267,-1.8762,-1.945,-1.9798,-1.9786,-1.8543,-1.8606,-1.9798,-1.9798,-2.0338,-2.124,-2.124,-2.124,-2.1216,-2.0957,-1.9748,-1.8008,-1.8008,-1.8008,-1.8008,-1.8008,-1.8008,-1.8008,0.0,0.0,0.0,0.0,0.0,0.0,0.0,0.0,0.0,0.0,0.0,0.0,0.0,0.0,0.0,0.0,0.8,0.8137,0.9792,0.9905,0.9905,0.9905,0.9905,0.9905,0.9905,0.8275,0.7711,0.8255,0.7875,0.7086,0.5842,0.2777,0.0855,0.0067,0.1418,0.1263,0.0222,0.3788,0.478,0.4001,0.446,0.4644,0.4692,0.5135,0.5017,0.4644,0.4644,0.3035,0.1089,0.2291,0.3099,0.3522,0.3071,0.2928,0.0,0.0,0.0,-0.0135,-0.0739,-0.4683,-0.9051,-1.0939,-1.1827,-1.2367,-1.2807,-1.1301,-0.9892,-1.0112,-1.0144,-1.0876,-1.3285,-1.3714,-1.3525,-1.2987,-1.2905,-1.2905,-1.2905,-1.3965,-1.5591,-1.779,-1.7134,-1.65,-1.65,-1.8505,-1.9798,-1.9798,-1.8272,-1.7353,-1.7353,-1.7353,-1.7353,-1.7353,-1.6084,-1.541,-1.541,-1.7778,-1.897,-1.8945,-1.7277,-1.7353,-1.8982,-1.9547,-1.9798,-1.9798,-1.9798,-1.9798,-1.9936,-2.1578,-2.0587,-1.8008,-1.8008,-1.8008,-1.8008,-1.8008,-1.8008,-1.8008,0.0,0.0,0.0,0.0,0.0,0.0,0.0,0.0,0.0,0.0,0.0,0.0,1.1779,1.0664,1.0369,1.1499,1.045,0.978,0.9893,0.9905,0.9905,0.9905,0.9905,0.0,0.9905,0.9792,0.9742,0.979,0.8382,0.7652,0.7534,0.5832,0.3224,0.0,0.0089,0.0089,0.0222,0.3788,0.3349,0.0436,0.2141,0.2828,0.3006,0.4676,0.4274,0.2828,0.2828,-0.1168,-0.5515,0.0634,0.3099,0.3597,0.3566,0.3556,0.3096,0.0,0.0,0.0,-0.2796,-0.3682,-0.4491,-0.674,-0.8889,-1.087,-1.2524,-1.2774,-1.1961,-0.9427,-0.8898,-0.8951,-0.9104,-0.9157,-0.9982,-1.248,-1.2905,-1.2905,-1.2905,-1.2983,-1.3081,-1.3243,-1.5176,-1.65,-1.65,-1.8505,-1.9798,-1.9798,-1.7155,-1.5547,-1.5547,-1.5547,-1.5547,-1.5547,-1.5459,-1.541,-1.541,-1.6261,-1.6663,-1.6663,-1.655,-1.655,-1.6738,-1.8844,-1.9798,-1.9798,-1.9798,-1.9798,-1.9811,-1.9924,-1.9199,-1.8008,-1.8008,-1.8008,-1.8008,-1.8008,-1.8008,-1.8008,0.0,0.0,0.0,0.0,0.0,0.0,0.0,0.0,0.0,0.0,0.0,0.0,0.0,1.0664,1.0408,1.1692,1.064,0.9905,0.9905,0.9905,0.9905,0.9905,0.9905,0.9905,0.9905,0.9905,0.9437,0.8495,0.7961,0.7175,0.6152,0.5577,0.4615,0.3224,-0.061,-0.1454,0.0179,0.3015,0.2584,0.0155,0.1972,0.0195,-0.2969,0.2226,0.0986,-0.2985,0.1194,-0.1484,-0.6642,-0.4319,-0.0351,0.3604,0.3604,0.2526,0.112,0.0247,0.0,-0.0516,-0.2951,-0.3604,-0.3796,-0.4618,-0.6518,-0.8357,-0.8961,-0.9125,-0.8835,-0.7839,-0.7639,-0.7639,-0.7639,-0.829,-0.9699,-1.2446,-1.2905,-1.2905,-1.2905,-1.2905,-1.2905,-1.2905,-1.3658,-1.4789,-1.6358,-1.7215,-1.7036,-1.548,-1.5375,-1.541,-1.541,-1.541,-1.4912,-1.3828,-1.4844,-1.5622,-1.6093,-1.6376,-1.65,-1.65,-1.65,-1.65,-1.6525,-1.7315,-1.7666,-1.7754,-1.9183,-1.9798,-1.9798,-1.9798,-1.8416,-1.6455,-1.7568,-1.8008,-1.8008,-1.8008,-1.8008,-1.8008,0.0,0.0,0.0,0.0,0.0,0.0,0.0,0.0,0.0,1.1805,0.0,0.0,0.0,0.0,1.0712,1.1136,1.0384,0.9905,0.9905,0.9905,0.9905,0.9905,0.9905,0.9905,0.9905,0.9905,0.9183,0.7695,0.7695,0.6876,0.5293,0.5293,0.5293,0.5122,0.1165,0.0063,0.1253,0.2057,0.1123,-0.0648,0.2355,0.0754,-0.3181,-0.0846,-0.1913,-0.3985,0.1153,-0.0297,-0.478,-0.5588,-0.2188,0.1976,-0.0343,-0.0567,0.0,0.0,0.0,-0.0516,-0.2951,-0.3604,-0.3777,-0.4552,-0.5883,-0.7106,-0.7506,-0.8326,-0.8591,-0.7271,-0.7,-0.7,-0.7,-0.7646,-0.9232,-1.2376,-1.2905,-1.2905,-1.2905,-1.2406,-1.2034,-1.2034,-1.2588,-1.3915,-1.6262,-1.5836,-1.4702,-1.3025,-1.3926,-1.4561,-1.4561,-1.4561,-1.4043,-1.2944,-1.3975,-1.5197,-1.6491,-1.65,-1.65,-1.65,-1.65,-1.65,-1.65,-1.65,-1.65,-1.6626,-1.8844,-1.9798,-1.9798,-1.9798,-1.865,-1.6991,-1.8146,-1.7996,-1.7139,-1.7139,-1.751,-1.8008,0.0,0.0,0.0,0.0,0.0,0.0,0.0,0.0,1.1805,1.1805,0.0,0.0,0.0,0.0,0.0,1.0008,0.9905,0.9905,0.9905,0.9905,0.9905,0.9905,0.9905,0.988,0.9828,0.9828,0.913,0.7695,0.7695,0.6876,0.5293,0.5293,0.5293,0.5293,0.5293,0.4681,0.3485,0.1088,-0.0925,-0.2081,0.3123,0.4449,0.2524,-0.438,-0.4081,0.0314,0.266,0.199,-0.0359,-0.2704,-0.199,-0.1262,-0.7906,-0.5397,0.0,0.0,-0.0045,-0.0628,0.0,0.0,0.0,-0.6422,-0.7,-0.7306,-0.849,-1.0856,-1.171,-0.781,-0.7,-0.7,-0.7,-0.7042,-0.8368,-1.2201,-1.2827,-1.2827,-1.2827,-1.1369,-1.0322,-1.038,-1.2054,-1.4037,-1.6187,-1.4412,-1.3058,-1.2912,-1.2905,-1.2905,-1.2905,-1.2905,-1.2905,-1.2905,-1.2905,-1.4071,-1.6479,-1.65,-1.65,-1.65,-1.65,-1.65,-1.65,-1.65,-1.6538,-1.6713,-1.8882,-1.9761,-1.971,-1.9773,-1.9798,-1.9798,-1.9798,-1.7993,-1.541,-1.541,-1.6484,-1.793,0.0,0.0,0.0,0.0,0.0,0.0,1.1805,1.1805,1.1805,0.0,0.0,0.0,1.1805,1.0985,1.0285,0.9919,0.9905,0.9905,0.9905,0.9905,0.9905,0.9905,0.9905,0.9397,0.8326,0.8312,0.8109,0.7695,0.7695,0.6876,0.5293,0.5293,0.5293,0.5293,0.5293,0.5123,0.47,0.2766,0.1659,0.1329,0.2823,0.0404,-0.429,-0.6247,-0.4081,0.009,0.0762,0.0561,-0.0112,-0.0762,-0.1722,-0.263,-0.2802,-0.1544,0.0,0.0,-0.1232,-0.2749,-0.3423,0.0,0.0,0.0,0.0,0.0,-0.7419,-0.9318,-1.0252,-0.756,-0.7,-0.7,-0.7,-0.8305,-0.9754,-1.0835,-1.1017,-1.1017,-1.1017,-1.0606,-1.0821,-1.2234,-1.2873,-1.3436,-1.4049,-1.2283,-1.1603,-1.2802,-1.2905,-1.2905,-1.2905,-1.2905,-1.2905,-1.2905,-1.2905,-1.4071,-1.6479,-1.65,-1.65,-1.65,-1.65,-1.65,-1.65,-1.65,-1.7365,-1.8932,-1.9535,-1.8894,-1.7528,-1.9145,-1.9798,-1.9798,-1.9798,-1.7993,-1.541,-1.541,-1.5723,-1.6133,0.0,0.0,0.0,0.0,0.0,1.1805,1.1805,1.1805,1.1805,0.0,0.0,0.0,1.1078,1.0334,0.9905,0.9905,0.9331,0.8981,0.8981,0.8981,0.8981,0.8981,0.8981,0.8581,0.771,0.7695,0.7695,0.7695,0.7695,0.6876,0.5293,0.5293,0.5293,0.5293,0.5293,0.5293,0.523,0.4221,0.3364,0.2456,-0.0251,-0.2438,-0.4159,-0.4924,-0.35,-0.1022,-0.0261,0.0,0.0,0.0,-0.2853,-0.5657,-0.1355,0.0,-0.0202,-0.1208,-0.2504,-0.3604,0.0,0.0,-0.4144,-0.6422,0.0,0.0,-0.7,-0.7998,-0.8812,-0.8448,-0.7634,-0.7287,-0.8203,-0.943,-1.0303,-1.0303,-1.0303,-1.0303,-1.0303,-1.0303,-1.0725,-1.1854,-1.272,-1.3198,-1.3198,-1.1449,-1.1027,-1.2778,-1.2905,-1.2905,-1.2905,-1.2905,-1.2905,-1.2905,-1.3884,-1.5085,-1.65,-1.65,-1.6036,-1.5133,-1.6061,-1.65,-1.65,-1.65,-1.719,-1.843,-1.843,-1.8229,-1.799,-1.9271,-1.9798,-1.9798,-1.9798,-1.8756,-1.7086,-1.5853,-1.5869,-1.6494,0.0,0.0,1.1895,1.2179,1.1999,1.1805,1.1805,1.1805,1.1805,0.0,1.1681,1.1159,1.0021,0.9905,0.9905,0.9905,0.8554,0.7695,0.7695,0.7695,0.7695,0.7695,0.7695,0.7622,0.7436,0.7608,0.7695,0.7695,0.7695,0.6876,0.5293,0.5293,0.5198,0.5001,0.5001,0.0,0.5293,0.5293,0.4334,0.2277,-0.379,-0.388,-0.0539,-0.1893,-0.2534,-0.2497,-0.0871,-0.0168,0.0,0.0,-0.4417,-0.8762,-0.2103,-0.0177,-0.0874,-0.3278,-0.3796,0.0,0.0,0.0,0.0,-0.6486,-0.7,0.0,-0.7,-0.71,-0.7787,-0.9872,-0.8549,-0.774,-1.0158,-1.0596,-1.0686,-1.0943,-1.041,-1.002,-1.0264,-1.0303,-1.0303,-1.0303,-1.2018,-1.3198,-1.3198,-1.1634,-1.1185,-1.2504,-1.2798,-1.2905,-1.2905,-1.2905,-1.2817,-1.2621,-1.4905,-1.6137,-1.6137,-1.6375,-1.5397,-1.3223,-1.5447,-1.65,-1.65,-1.65,-1.65,-1.65,-1.65,-1.7626,-1.9459,-1.9698,-1.9798,-1.9798,-1.9798,-1.9798,-1.9463,-1.6862,-1.6655,-1.7754,0.0,0.0,1.249,1.4631,1.3238,1.1805,1.1805,1.1805,1.1805,1.1805,1.0914,1.0173,0.9919,0.9905,0.9905,0.9905,0.8554,0.7695,0.7695,0.7695,0.7695,0.7695,0.7695,0.7101,0.5804,0.7041,0.7695,0.7695,0.7695,0.6876,0.5293,0.5293,0.4548,0.32,0.32,0.3978,0.5293,0.5293,0.4577,0.3135,-0.0074,-0.1988,-0.2721,-0.1129,-0.1435,-0.2646,-0.2294,-0.1238,0.0,0.0,-0.3409,-0.676,-0.1614,-0.1335,-0.3341,-0.5658,-0.5026,-0.3604,-0.3604,-0.494,-0.6444,-0.6894,-0.7,0.0,-0.7,-0.7746,-0.8803,-1.0045,-0.8549,-0.8097,-1.1732,-1.2396,-1.3037,-1.4972,-1.0993,-0.8264,-1.005,-1.0303,-1.0303,-1.0303,-1.2018,-1.3198,-1.3198,-1.2873,-1.2123,-1.0904,-1.2113,-1.2905,-1.2905,-1.2905,-1.2259,-1.0851,-1.2772,-1.3837,-1.3837,-1.561,-1.5397,-1.3223,-1.5447,-1.65,-1.65,-1.65,-1.65,-1.65,-1.65,-1.6738,-1.7265,-1.907,-1.9798,-1.9798,-1.9798,-1.9798,-1.9721,-1.9137,-1.7662,-1.6123,0.0,1.1352,1.2224,1.3568,1.2688,1.2239,1.3598,1.3059,1.2102,1.0995,1.031,0.9905,0.9905,1.0883,1.1096,0.9993,0.9224,0.8495,0.7754,0.7695,0.7695,0.7695,0.7695,0.6951,0.534,0.6876,0.7695,0.7695,0.6897,0.6091,0.5293,0.5293,0.4371,0.2696,0.2696,0.3187,0.3995,0.3995,0.3836,0.3397,0.0976,-0.1272,-0.3044,-0.2143,-0.2182,-0.2696,-0.2696,-0.1542,0.0,0.0,-0.3849,-0.7633,-0.1824,-0.0835,-0.2703,-0.7293,-0.7064,-0.5303,-0.5303,-0.6124,-0.7,-0.7,-0.7,0.0,0.0,-0.8377,-0.9336,-1.1202,-1.0705,-1.0292,-1.1397,-1.1604,-1.1997,-1.3199,-1.0732,-0.865,-0.865,-0.9608,-1.0303,-1.0303,-1.1151,-1.1763,-1.1763,-1.1763,-1.1356,-1.038,-1.1917,-1.2905,-1.2905,-1.2905,-1.2504,-1.1623,-1.2639,-1.3198,-1.3198,-1.4287,-1.4287,-1.3223,-1.5447,-1.65,-1.65,-1.65,-1.65,-1.65,-1.65,-1.7114,-1.8154,-1.8154,-1.8807,-1.9798,-1.9798,-1.9798,-1.9798,-1.9798,-1.8862,-1.7506,1.2294,0.0,1.2568,1.2568,1.2568,1.3201,1.5023,1.439,1.2942,1.0814,1.0546,1.0546,1.0546,1.1748,1.2024,1.0645,1.0546,0.9308,0.641,0.7148,0.7695,0.7695,0.7695,0.7086,0.5788,0.6732,0.7235,0.7235,0.5936,0.5293,0.5293,0.5293,0.4371,0.2696,0.2696,0.2696,0.2596,0.0901,0.1254,0.2687,0.0287,-0.1294,-0.2234,-0.2713,-0.2603,-0.2228,-0.258,-0.1839,-0.0695,-0.0695,-0.4397,-0.8121,-0.2976,-0.1049,-0.1881,-0.7904,-0.8407,-0.7,-0.7,-0.7,-0.7053,-0.7286,-0.775,-0.8305,0.0,0.0,0.0,-1.194,-1.267,-1.2377,-1.0625,-1.0303,-1.041,-1.0753,-1.0518,-0.9815,-0.8399,-0.9739,-1.0725,-1.0341,-1.0303,-1.0303,-1.0303,-1.0303,-1.0303,-1.0303,-1.1917,-1.2905,-1.2905,-1.2905,-1.2905,-1.2905,-1.2734,-1.2826,-1.3198,-1.3198,-1.3411,-1.3849,-1.5648,-1.65,-1.65,-1.65,-1.625,-1.581,-1.581,-1.7002,-1.8809,-1.7015,-1.7339,-1.9006,-1.9579,-1.9798,-1.9798,-1.9798,-1.9798,-1.9475,1.5007,1.5349,0.0,1.5349,1.5349,1.4921,1.368,1.4643,1.4853,1.3051,1.2822,1.2822,1.2822,1.1297,1.0958,1.2689,1.2822,0.9424,0.1392,0.5165,0.7695,0.7695,0.7695,0.7622,0.7436,0.6214,0.5577,0.5577,0.5388,0.5293,0.5293,0.5293,0.4371,0.2696,0.2696,0.2696,0.22,-0.5535,-0.5253,0.0195,-0.2224,-0.2033,-0.0306,-0.0379,-0.0362,-0.052,-0.2125,-0.2914,-0.3198,-0.3198,-0.3719,-0.4583,-0.5818,-0.4813,-0.3741,-0.6552,-0.7203,-0.7,-0.7,-0.7,-0.7253,-0.8318,-1.0416,-1.1869,-1.0446,0.0,-1.0225,-1.0536,0.0,-1.2377,-1.0625,0.0,0.0,-1.2357,-1.131,-1.081,-1.2289,-1.2714,-1.2234,-1.0505,-1.0303,-1.0303,-1.0303,-1.0303,-1.0303,-1.0303,-1.1917,-1.2905,-1.2905,-1.2905,-1.2905,-1.2905,-1.1413,-1.1468,-1.3181,-1.3198,-1.4175,-1.6124,-1.6375,-1.65,-1.65,-1.65,-1.5332,-1.332,-1.332,-1.4286,-1.5891,-1.5642,-1.5672,-1.6148,-1.8782,-1.9798,-1.9798,-1.9798,-1.9798,-1.9747,1.4149,1.5119,0.0,1.5799,1.5799,1.5551,1.4814,1.5329,1.5551,1.4799,1.3835,1.271,1.1435,0.6077,0.0,0.0,0.9201,0.8826,0.2512,0.1499,0.3096,0.7514,0.6807,0.6747,0.7681,0.7041,0.6229,0.5293,0.5293,0.4778,0.3816,0.4826,0.4371,0.2696,0.2696,0.2118,0.0802,-0.4277,-0.3938,-0.0202,-0.2627,-0.2996,-0.2381,-0.4982,-0.4355,-0.218,-0.2941,-0.3385,-0.3604,-0.3604,-0.3604,-0.3777,-0.4727,-0.5754,-0.6802,-0.7766,-0.7539,-0.7,-0.7,-0.7506,-0.856,-1.0639,-1.3086,-1.416,-1.1025,-1.0303,-1.0303,-1.0303,0.0,0.0,0.0,0.0,0.0,0.0,-1.1719,-1.1861,-1.156,-1.2496,-1.2908,-1.2072,-1.1982,-1.1542,-1.0409,-1.0303,-1.0303,-1.0303,-1.0978,-1.1398,-1.1398,-1.1398,-1.1398,-1.1398,-1.0684,-1.0687,-1.1505,-1.265,-1.3661,-1.4588,-1.5886,-1.65,-1.65,-1.65,-1.5954,-1.4903,-1.3501,-1.3838,-1.5303,-1.4346,-1.4521,-1.5517,-1.6761,-1.829,-1.9798,-1.9798,-1.9798,-1.9798,1.3917,0.0,0.0,0.0,1.5799,1.5799,1.5799,1.5799,1.5624,1.5149,1.4,1.239,1.0235,0.2412,-0.1449,0.0,0.5773,0.6481,0.2381,-0.0844,0.0408,0.7214,0.5161,0.4843,0.6987,0.7041,0.6474,0.5293,0.4826,0.3935,0.2729,0.3995,0.3914,0.2706,0.287,0.2135,0.0586,-0.1664,-0.199,-0.1186,-0.3576,-0.453,-0.4826,-0.7458,-0.6439,-0.3604,-0.3604,-0.399,-0.453,-0.453,-0.453,-0.453,-0.453,-0.6266,-0.8639,-1.0398,-1.029,-0.9601,-0.9601,-0.8959,-0.8774,-1.0791,-1.3405,-1.4599,-1.1094,-1.0303,-1.044,-1.0919,-1.1017,0.0,0.0,0.0,-1.086,-1.0381,0.0,-1.209,-1.1226,-1.2306,-1.3198,-1.3198,-1.3198,-1.2443,-1.0486,-1.0303,-1.0525,-1.1057,-1.1668,-1.1495,-1.0361,-1.0303,-1.0303,-1.0303,-1.0303,-1.0303,-1.0303,-1.2234,-1.3198,-1.3223,-1.4833,-1.5911,-1.65,-1.65,-1.6129,-1.5433,-1.3658,-1.3584,-1.4619,-1.3414,-1.3887,-1.541,-1.541,-1.6705,-1.8703,-1.9501,-1.9798,-1.9798,1.5726,1.5755,0.0,0.0,1.5799,1.5799,1.5799,1.5799,1.5195,1.3497,1.3232,1.2455,1.0502,0.2525,-0.0142,0.6225,0.4417,0.1646,-0.1425,-0.0686,0.2022,0.6824,0.2628,0.1802,0.5302,0.5372,0.5356,0.5293,0.3609,0.2746,0.2696,0.2762,0.2746,0.2723,0.331,0.3216,0.2489,0.0667,-0.141,-0.3685,-0.5969,-0.6894,-0.6656,-0.4591,-0.3729,-0.3604,-0.3604,-0.5026,-0.6894,-0.6894,-0.6894,-0.6894,-0.6894,-0.6963,-0.828,-1.4428,-1.6232,-1.6191,-1.6191,-1.1728,-0.7081,-0.7159,-1.0123,-1.2539,-1.0724,-1.0303,-1.0782,-1.2475,-1.2827,-1.2837,-1.2895,-1.2856,-1.2269,-1.0577,-1.0351,0.0,0.0,-1.3163,-1.3198,-1.3198,-1.3198,-1.2443,-1.0486,-1.0303,-1.1075,-1.2978,-1.5084,-1.4529,-1.0498,-1.0303,-1.0303,-1.0303,-1.0303,-1.0303,-1.0303,-1.2234,-1.3198,-1.3198,-1.3273,-1.4431,-1.65,-1.65,-1.522,-1.3017,-1.2929,-1.2935,-1.2983,-1.2925,-1.3887,-1.541,-1.541,-1.5468,-1.5882,-1.8756,-1.9798,-1.9798,0.0,0.0,0.0,0.0,0.0,1.5404,1.4262,1.5058,1.5165,1.3425,1.0799,0.8845,0.8195,0.1285,-0.2255,0.0346,-0.0309,-0.1303,-0.2329,-0.1642,0.0406,0.4007,0.1482,0.0567,0.1765,-0.1248,-0.0733,0.3577,0.299,0.2696,0.2696,0.2696,0.2696,0.2656,0.1661,0.1102,0.0987,0.1964,0.0067,-0.3667,-0.4443,-0.5647,-0.6915,-0.614,-0.584,-0.584,-0.584,-0.6352,-0.7224,-0.8691,-0.9182,-0.9182,-0.9182,-0.8182,-0.7419,-0.9571,-1.02,-1.02,-1.02,-0.8648,-0.8012,-1.2224,-1.1113,-0.9539,-1.1563,-1.2025,-1.2191,-1.2788,-1.2905,-1.2905,-1.2905,-1.2905,-1.2719,-1.2122,-1.1056,-1.0525,0.0,-1.2389,-1.3198,-1.3198,-1.3198,-1.2943,-1.227,-1.2216,-1.2496,-1.3146,-1.3758,-1.3493,-1.2099,-1.0929,-1.0303,-1.0303,-1.0303,-1.0303,-1.0303,-1.0943,-1.1282,-1.13,-1.2585,-1.4369,-1.65,-1.65,-1.5175,-1.2905,-1.2905,-1.2905,-1.2905,-1.2905,-1.3223,-1.374,-1.374,-1.4424,-1.5767,-1.8703,-1.9798,-1.9798,1.5536,0.0,0.0,1.4968,1.4876,1.3993,1.1381,1.32,1.447,1.334,0.6669,0.2029,0.2029,-0.207,-0.4245,-0.2818,-0.2696,-0.2696,-0.2696,-0.2331,-0.096,0.1628,0.062,0.0,0.0,-0.4201,-0.3733,0.174,0.0476,0.0837,0.2679,0.2042,0.2075,0.2613,0.0803,0.0,0.0164,0.257,0.082,-0.3604,-0.3604,-0.4961,-0.7084,-0.7874,-0.7696,-0.7105,-0.7895,-0.7772,-0.7572,-0.9609,-1.0303,-1.0303,-1.0303,-0.9321,-0.8018,-0.7224,-0.7551,-0.7998,-0.7203,-0.7,-0.7984,-1.2097,-1.0037,-0.8269,-1.3065,-1.4188,-1.4188,-1.4188,-1.3501,-1.3152,-1.4025,-1.3478,-1.2905,-1.2905,-1.1438,-1.0544,0.0,-1.2407,-1.3198,-1.3198,-1.3198,-1.3198,-1.3198,-1.3198,-1.3198,-1.3198,-1.3011,-1.3272,-1.4131,-1.1705,-1.0303,-1.0303,-1.0303,-1.0303,-1.0303,-1.0303,-1.0303,-1.0322,-1.1568,-1.3273,-1.5302,-1.4597,-1.3773,-1.2905,-1.2905,-1.2905,-1.2905,-1.2905,-1.2905,-1.2905,-1.2905,-1.3916,-1.5767,-1.8703,-1.9798,-1.9798,1.4956,1.5668,1.5149,1.348,1.3198,1.18,0.7632,1.0356,1.2735,1.2258,0.1196,-0.6734,-0.6979,-0.7,-0.5907,-0.3143,-0.2863,-0.2795,-0.2712,-0.2696,-0.189,-0.0084,0.0,0.0,0.0,-0.3305,-0.3489,-0.034,-0.3836,-0.2768,0.2527,0.0803,0.092,0.248,0.0643,-0.017,0.0017,0.228,0.0598,-0.3622,-0.3939,-0.5368,-0.7523,-0.954,-0.8993,-0.7426,-0.954,-0.9238,-0.809,-0.9755,-1.0303,-1.0303,-1.0303,-1.0303,-0.9893,-0.7779,-0.865,-0.9814,-0.7592,-0.7,-0.7,-0.7,-0.7,-0.8611,-1.4806,-1.6197,-1.6197,-1.6197,-1.4436,-1.3634,-1.6064,-1.4629,-1.3041,-1.2929,-1.1438,-1.0941,-1.2778,-1.3135,-1.3198,-1.3198,-1.3198,-1.3198,-1.3198,-1.3198,-1.3198,-1.3198,-1.3022,-1.3964,-1.638,-1.2555,-1.0303,-1.0303,-1.0303,-1.0303,-1.0303,-1.0303,-1.0303,-1.0303,-1.0303,-1.1319,-1.3146,-1.1397,-1.1522,-1.3089,-1.3089,-1.3089,-1.3089,-1.3089,-1.3017,-1.2905,-1.2905,-1.4021,-1.5968,-1.8756,-1.9798,-1.9798,1.3395,1.3868,1.3719,1.3284,1.3198,1.18,0.7632,0.7906,0.6088,-0.0904,-0.1812,-0.3125,-0.6622,-0.7,-0.6714,-0.5971,-0.5121,-0.4081,-0.2779,-0.2696,-0.189,-0.0084,0.0,0.0,0.0,-0.0899,-0.262,-0.5204,-0.7764,-0.5689,0.0687,0.0218,0.0252,0.059,-0.1667,-0.2419,-0.2003,-0.1816,-0.247,-0.4019,-0.8811,-1.1099,-1.1509,-1.0629,-0.9952,-0.9529,-1.0098,-1.0019,-0.9697,-1.0156,-1.0303,-1.0303,-1.0303,-1.0303,-1.0196,-0.9628,-0.9854,-0.9814,-0.7592,-0.7,-0.7,-0.7,-0.7,-0.7866,-1.1136,-1.1882,-1.1882,-1.1882,-1.2424,-1.3634,-1.6064,-1.5998,-1.4994,-1.3176,-1.1438,-1.0402,-1.0699,-1.2146,-1.3198,-1.3198,-1.3198,-1.3198,-1.3198,-1.3198,-1.3198,-1.3198,-1.3155,-1.4121,-1.6391,-1.2555,-1.0303,-1.0303,-1.0303,-1.0303,-1.0303,-1.0303,-1.0303,-1.0303,-1.0303,-1.1319,-1.3243,-1.4392,-1.5164,-1.5589,-1.5589,-1.5589,-1.5589,-1.5589,-1.4525,-1.2905,-1.2905,-1.5257,-1.8756,-1.9527,-1.9798,-1.9798,1.3138,1.3198,1.3198,1.3198,1.3198,1.2116,0.8927,0.7613,0.5103,-0.0189,-0.1288,-0.2581,-0.5233,-0.6401,-0.7,-0.7,-0.5952,-0.4564,-0.2812,-0.1956,-0.1071,-0.005,0.0,0.0369,0.1171,0.0402,-0.1805,-0.5518,-0.7971,-0.6419,-0.1188,-0.1188,-0.158,-0.2352,-0.3218,-0.3266,-0.277,-0.3872,-0.4345,-0.4713,-0.8819,-1.1066,0.0,-1.0725,-1.0303,-1.0303,-1.0303,-1.0303,-1.0303,-1.0303,-1.0303,-1.0303,-1.0303,-1.0303,-1.0303,-1.0303,-1.0303,-1.003,-0.8772,-0.8448,-0.8448,-0.8448,-0.8448,-0.8509,-0.8792,-0.9608,-1.0303,-1.0303,-1.1692,-1.3077,-1.3672,-1.5269,-1.57,-1.3296,-1.1438,-1.0249,-1.0106,-1.1892,-1.3198,-1.3198,-1.3198,-1.3198,-1.3198,-1.3198,-1.2797,-1.1836,-1.2647,-1.3736,-1.4996,-1.3763,-1.2191,-1.0361,-1.0303,-1.0303,-1.0303,-1.0303,-1.0303,-1.0312,-1.1076,-1.2559,-1.4682,-1.5936,-1.65,-1.65,-1.65,-1.65,-1.6423,-1.5354,-1.4131,-1.2983,-1.3701,-1.6361,-1.9798,-1.9798,-1.9798,-1.9798,1.3497,1.3198,1.3198,1.3198,1.3198,1.2141,0.8963,0.6341,0.484,0.5119,-0.0472,-0.4474,-0.4474,-0.5984,-0.7,-0.7,-0.5749,-0.4419,-0.3122,-0.1565,-0.0584,-0.0369,-0.0352,0.0602,0.2663,0.1154,-0.0704,-0.2897,-0.5678,-0.5545,-0.2696,-0.2696,-0.3626,-0.5267,-0.4412,-0.3679,-0.3175,-0.5124,-0.583,-0.5723,-0.695,-0.859,-1.0303,-1.0303,-1.0303,-1.0303,-1.0303,-1.0303,-1.0303,-1.0303,-1.0303,-1.0303,-1.0303,-1.0303,-1.0303,-1.0303,-1.0303,-1.0303,-1.0303,-1.0303,-1.0303,-1.0303,-1.0303,-0.9795,-0.7874,-0.8913,-1.0303,-1.0303,-1.1692,-1.2445,-1.0919,-1.3847,-1.57,-1.3296,-1.1438,-1.0303,-1.0303,-1.1963,-1.3198,-1.3198,-1.3198,0.0,-1.3198,-1.3198,-1.2397,-1.0483,-1.2112,-1.3198,-1.3198,-1.4772,-1.4275,-1.1212,-1.1112,-1.1075,-1.0978,-1.1348,-1.1247,-1.0665,-1.2181,-1.4154,-1.65,-1.65,-1.65,-1.65,-1.65,-1.65,-1.6337,-1.4247,-1.3176,-1.3052,-1.4502,-1.7005,-1.9798,-1.9798,-1.9798,-1.9798,1.3267,1.3198,1.3198,1.3198,1.3198,0.9946,0.0297,-0.463,-0.6613,-0.4786,-0.7215,-0.9118,-0.9118,-0.7859,-0.7,-0.7,-0.4635,-0.3642,-0.4772,-0.4547,-0.3732,-0.2291,-0.2228,-0.0681,0.263,0.2394,0.1784,0.0857,-0.2124,-0.3274,-0.2696,-0.2696,-0.3626,-0.5331,-0.6083,-0.5829,-0.5042,-0.8129,-0.8593,-0.7427,-0.906,-0.9952,-1.0303,-1.0303,-1.0303,-1.0303,-1.0303,-1.0303,-1.0303,-1.0303,-1.0303,-1.0303,-1.0303,-1.0303,-1.0303,-1.0303,-1.0303,-1.0303,-1.0303,-1.0303,-1.0303,-1.0303,-1.0303,-1.0205,-0.9805,-1.002,-1.0303,-1.0303,-1.1692,-1.2817,-1.2504,-1.4665,-1.57,-1.3296,-1.1438,-1.0303,-1.0303,-1.1963,-1.3198,-1.3198,-1.3198,-1.3198,-1.3198,-1.3198,-1.3035,-1.2647,-1.2973,-1.3198,-1.3198,-1.205,-1.2628,-1.5326,-1.5405,-1.5107,-1.452,-1.6914,-1.6224,-1.2455,-1.2758,-1.4154,-1.65,-1.65,-1.65,-1.65,-1.65,-1.65,-1.6466,-1.6042,-1.4698,-1.2935,-1.3203,-1.5997,-1.9798,-1.9798,-1.9798,-1.9798,1.2784,1.2389,1.0951,0.8624,0.6153,0.1865,-0.5894,-0.9771,-1.1424,-1.0366,-1.0253,-1.0303,-1.0303,-0.8546,-0.7021,-0.6192,-0.4842,-0.4403,-0.5246,-0.5293,-0.4922,-0.4081,-0.3187,-0.1883,-0.0133,0.0813,0.1465,0.1803,-0.2965,-0.4406,-0.2696,-0.2696,-0.3155,-0.4015,-0.547,-0.6789,-0.7938,-0.8651,-0.8994,-0.9207,-1.1061,-1.1207,-1.0303,-1.0303,-1.0303,-1.0303,-1.0303,-1.0303,-1.0303,-1.0303,-1.0303,-1.0303,-1.0303,-1.0303,-1.0303,-1.0303,-1.0303,-1.0303,-1.0303,-1.0303,-1.0303,-1.0303,-1.0303,-1.0303,-1.0303,-1.0303,-1.0303,-1.0303,-1.0978,-1.1829,-1.2739,-1.3113,-1.3604,-1.4609,-1.2247,-1.0303,-1.0303,-1.1963,-1.2628,-1.1099,-1.2281,-1.3564,-1.4454,-1.2822,-1.2108,-1.3116,-1.3198,-1.3198,-1.3198,-1.2306,-1.3255,-1.6403,-1.7603,-1.6899,-1.4128,-1.6352,-1.5966,-1.2905,-1.2905,-1.4154,-1.65,-1.65,-1.65,-1.65,-1.65,-1.65,-1.6402,-1.5164,-1.3954,-1.3017,-1.4271,-1.6836,-1.966,-1.8518,-1.8103,-1.8254,1.3087,1.1968,0.9038,0.5012,-0.0066,-0.5105,-0.9609,-1.1945,-1.3198,-1.3198,-1.1464,-1.0198,-1.0198,-0.8983,-0.754,-0.5952,-0.5804,-0.5804,-0.5804,-0.5804,-0.5804,-0.5804,-0.4167,-0.3131,-0.2873,-0.124,0.0212,0.1413,-0.4705,-0.6514,-0.4209,-0.3184,-0.3032,-0.3717,-0.597,-0.7948,-0.9545,-0.8627,-0.9271,-1.1057,-1.2567,-1.227,-1.0878,-1.0467,-1.0078,-0.9785,-1.0166,-1.0303,-1.0303,-1.0303,-1.0303,-1.0303,-1.0303,-1.0303,-1.0303,-1.0303,-1.0303,-1.0303,-1.0303,-1.0303,-1.0303,-1.0303,-1.0303,-1.0303,-1.0303,-1.0303,-1.0303,-1.0303,-1.0303,-1.0723,-1.2103,-1.1535,-1.1789,-1.4701,-1.2748,-1.0723,-1.0352,-1.1616,-1.1637,-0.9102,-1.0628,-1.2778,-1.503,-1.2242,-1.0924,-1.2478,-1.2978,-1.3012,-1.2615,-1.2978,-1.42,-1.6425,-1.7702,-1.6583,-1.2949,-1.4712,-1.4702,-1.2905,-1.2905,-1.3907,-1.5744,-1.6272,-1.6216,-1.5722,-1.5722,-1.5722,-1.5634,-1.4247,-1.3658,-1.3836,-1.5766,-1.7842,-1.9535,-1.7325,-1.65,-1.6814,1.5367,1.3013,0.954,0.7112,0.0978,-0.5105,-0.9609,-1.1945,-1.3198,-1.3198,-1.1297,-0.994,-0.994,-0.9795,-0.9091,-0.7603,-0.748,-0.748,-0.748,-0.748,-0.748,-0.748,-0.5913,-0.4546,-0.3451,-0.2249,-0.1034,0.0168,-0.5114,-0.822,-0.913,-0.4744,-0.4102,-0.6779,-1.0714,-1.0551,-0.7419,-0.9268,-1.1176,-1.2943,-1.3129,-1.3094,-1.2738,-1.0973,-0.9316,-0.8158,-0.9727,-1.0303,-1.0303,-1.0303,-1.0303,-1.0303,-1.0303,-1.0303,-1.0303,-1.0303,-1.0303,-1.0303,-1.0303,-1.0303,-1.0303,-1.0303,-1.0303,-1.0303,-1.0303,-1.0303,-1.0303,-1.0303,-1.0303,-1.0352,-1.0518,-1.1712,-1.226,-1.1075,-1.1885,-1.2103,-1.0518,-1.0467,-1.0131,-0.8942,-0.8075,-0.9127,-1.3067,-1.1549,-1.038,-1.0563,-1.2198,-1.2425,-1.0678,-1.2234,-1.42,-1.6425,-1.4585,-1.3346,-1.2905,-1.5234,-1.5223,-1.2905,-1.2905,-1.3017,-1.332,-1.55,-1.531,-1.3248,-1.3248,-1.3248,-1.3382,-1.5354,-1.6151,-1.6185,-1.6402,-1.7842,-1.9535,-1.7325,-1.65,-1.6814,0.6558,0.5265,0.4295,0.4856,0.0219,-0.5105,-0.9609,-1.0068,-0.9895,-0.9895,-0.9895,-0.9905,-0.9905,-0.9905,-0.8884,-0.6356,-0.6149,-0.6149,-0.6149,-0.6149,-0.6606,-0.7656,-0.6152,-0.5531,-0.6009,-0.3912,-0.2244,-0.1081,-0.3517,-0.6489,-0.9841,-0.7024,-0.7507,-1.0639,-0.8424,-0.7264,-0.714,-0.9361,-1.0745,-1.1468,-1.1468,-1.1468,-1.1375,-1.0602,-0.9853,-0.9355,-1.0058,-1.0303,-1.0303,-1.0303,-1.0303,-1.0303,-1.0303,-1.0303,-1.0303,-1.0303,-1.0303,-1.0303,-1.0303,-1.0303,-1.0303,-1.0303,-1.0303,-1.0303,-1.0303,-1.0303,-1.0303,-1.0303,-1.0303,-1.0625,-1.1672,-1.2436,-1.268,-1.1976,-1.474,-1.5773,-1.2341,-1.0958,-1.0147,-0.9746,-0.9287,-0.964,-1.1308,-1.1818,-1.156,-1.04,-1.1019,-1.1634,-1.2018,-1.166,-1.3011,-1.6403,-1.5567,-1.5062,-1.5062,-1.4594,-1.3836,-1.2905,-1.2905,-1.2905,-1.2929,-1.3907,-1.3813,-1.2905,-1.2905,-1.2905,-1.3089,-1.55,-1.65,-1.65,-1.65,-1.7842,-1.9535,-1.7325,-1.65,-1.6626,-0.0582,-0.1601,-0.1735,-0.0664,-0.3297,-0.6649,-0.9815,-0.8701,-0.7542,-0.768,-0.8609,-0.917,-0.8955,-0.8939,-0.8014,-0.5739,-0.4991,-0.4755,-0.5078,-0.5098,-0.5642,-0.6878,-0.5847,-0.5778,-0.691,-0.5022,-0.3639,-0.2827,-0.2744,-0.576,-1.1536,-0.7377,-0.7209,-1.0217,-0.6333,-0.5845,-0.808,-0.9648,-1.0303,-1.0303,-1.0303,-0.9999,-0.9531,-0.9531,-0.9531,-0.96,-1.0126,-1.0303,-1.0303,-1.0303,-1.0303,-1.0303,-1.0303,-1.0303,-1.0303,-1.0303,-1.0303,-1.0303,-1.0303,-1.0303,-1.0303,-1.0303,-1.0303,-1.0303,-1.0303,-1.0303,-1.0303,-1.0303,-1.0714,-1.1438,-1.268,-1.2905,-1.2905,-1.2905,-1.6206,-1.7397,-1.3447,-1.189,-1.0935,-1.038,-1.0802,-1.0935,-1.0361,-1.2,-1.2841,-1.2169,-1.0982,-1.0897,-1.227,-1.1524,-1.2414,-1.5342,-1.5444,-1.5788,-1.65,-1.4118,-1.2905,-1.2905,-1.2905,-1.2905,-1.2905,-1.2905,-1.2905,-1.2905,-1.2905,-1.2905,-1.3089,-1.55,-1.65,-1.6563,-1.7215,-1.843,-1.9535,-1.7325,-1.6901,-1.7365,-0.3084,-0.5367,-0.7606,-0.9747,-1.0186,-1.0235,-1.0303,-0.8431,-0.718,-0.7638,-0.771,-0.7457,-0.6721,-0.6637,-0.6624,-0.6582,-0.4699,-0.3965,-0.503,-0.5098,-0.5108,-0.5127,-0.5107,-0.5107,-0.5127,-0.5237,-0.5273,-0.5257,-0.3539,-0.7177,-1.5491,-0.5008,-0.1383,-0.3814,-0.599,-0.8182,-1.0264,-1.0283,-1.0303,-1.0303,-1.0303,-0.9268,-0.7725,-0.7725,-0.7725,-0.7963,-0.9678,-1.0303,-1.0303,-1.0303,-1.0303,-1.0303,-1.0303,-1.0303,-1.0303,-1.0303,-1.0303,-1.0303,-1.0303,-1.0303,-1.0303,-1.0303,-1.0303,-1.0303,-1.0303,-1.0303,-1.0303,-1.0303,-1.1672,-1.2876,-1.2905,-1.2905,-1.2905,-1.2905,-1.4949,-1.57,-1.3248,-1.3058,-1.2443,-1.0525,-1.2,-1.2407,-1.0486,-1.1881,-1.3875,-1.6256,-1.2628,-1.0322,-1.0322,-1.1959,-1.2886,-1.2954,-1.2954,-1.4095,-1.6479,-1.4118,-1.2905,-1.2905,-1.2905,-1.2905,-1.2905,-1.2905,-1.2905,-1.2905,-1.2905,-1.2905,-1.3089,-1.55,-1.65,-1.6713,-1.8907,-1.9773,-1.9535,-1.7325,-1.789,-1.9447,-0.547,-0.7728,-0.8993,-0.8182,-0.8059,-0.8569,-1.0079,-0.9707,-0.8874,-0.7844,-0.7695,-0.7609,-0.7382,-0.6286,-0.5852,-0.6547,-0.4699,-0.3647,-0.3986,-0.4686,-0.5098,-0.5098,-0.5098,-0.4755,-0.4027,-0.369,-0.3528,-0.3528,-0.2973,-0.4138,-0.6842,-0.5429,-0.4767,-0.4832,-0.6666,-0.7864,-0.8529,-0.8529,-0.912,-0.9931,-0.893,-0.8197,-0.7695,-0.7695,-0.7695,-0.7763,-0.8324,-0.9287,-1.0303,-1.0303,-1.0303,-1.0303,-1.0303,-1.0303,-1.0303,-1.0303,-0.9242,-0.8059,-0.8059,-0.8059,-0.8059,-0.8059,-0.9182,-1.0303,-1.0303,-1.0303,-1.0303,-1.0303,-1.0743,-1.1134,-1.1134,-1.1134,-1.1526,-1.2719,-1.2543,-1.2425,-1.2849,-1.4358,-1.4169,-1.0704,-1.0859,-1.1505,-1.2216,-1.1574,-1.1448,-1.2214,-1.3673,-1.3286,-1.0459,-1.1956,-1.4322,-1.7444,-1.6117,-1.5722,-1.65,-1.4118,-1.2905,-1.2905,-1.2905,-1.2905,-1.2905,-1.2905,-1.2905,-1.2905,-1.2905,-1.2905,-1.3042,-1.4951,-1.694,-1.8832,-1.9522,-1.9798,-1.971,-1.902,-1.9208,-1.9484,-0.7797,-0.9263,-0.9716,-0.8335,-0.8177,-0.8711,-1.0098,-1.0303,-0.9668,-0.7919,-0.818,-0.8312,-0.7754,-0.6732,-0.606,-0.6039,-0.4855,-0.4099,-0.4099,-0.4726,-0.5098,-0.5098,-0.4706,-0.4191,-0.3517,-0.2755,-0.2467,-0.2696,-0.3364,-0.3674,-0.3733,-0.6135,-0.6877,-0.6275,-0.7825,-0.8526,-0.8526,-0.8526,-0.9062,-0.9816,-0.8899,-0.8526,-0.8456,-0.7904,-0.811,-0.8665,-0.8665,-0.9375,-1.0303,-1.0303,-1.0303,-1.0303,-1.0303,-1.0303,-1.0303,-1.0303,-0.9321,-0.8059,-0.7224,-0.7,-0.7203,-0.8039,-0.9282,-1.0079,-0.9242,-0.9053,-0.9053,-0.9053,-0.9053,-0.9053,-0.9053,-0.9053,-0.9691,-1.1608,-1.1017,-1.0684,-1.177,-1.3205,-1.3211,-1.0616,-1.0303,-1.0783,-1.2,-1.1,-1.0303,-1.0303,-1.4143,-1.4965,-1.1458,-1.1342,-1.3152,-1.7012,-1.5857,-1.5164,-1.5164,-1.3658,-1.2905,-1.2905,-1.2905,-1.2905,-1.2905,-1.2905,-1.2905,-1.2905,-1.2905,-1.2905,-1.3042,-1.4707,-1.6489,-1.8155,-1.8155,-1.8155,-1.8155,-1.8155,-1.776,-1.7267,-0.9906,-1.006,-0.9905,-0.9905,-1.0119,-1.0231,-1.0146,-1.0126,-0.9531,-0.7909,-0.8981,-0.9285,-0.7691,-0.752,-0.6868,-0.5244,-0.5098,-0.5098,-0.5098,-0.5098,-0.5098,-0.5098,-0.4068,-0.3495,-0.3495,-0.2459,-0.223,-0.2878,-0.4622,-0.5467,-0.5498,-0.6996,-0.7754,-0.7918,-0.9291,-0.9905,-0.9905,-0.9905,-0.9905,-0.9905,-0.9905,-0.9905,-0.9751,-0.8382,-0.8793,-1.0136,-1.0263,-1.0303,-1.0303,-1.0303,-1.0303,-1.0303,-1.0303,-1.0303,-1.0303,-1.0303,-1.0303,-0.9854,-0.7799,-0.7224,-0.7716,-0.9785,-1.0303,-0.9755,-0.7696,-0.7105,-0.7,-0.7,-0.7,-0.7,-0.7,-0.7,-0.7675,-0.9726,-1.0205,-1.0303,-1.0303,-1.0303,-1.0244,-1.0098,-1.0215,-1.0352,-1.0469,-1.0371,-1.0352,-1.0479,-1.4057,-1.5265,-1.3017,-1.0285,-1.0053,-1.2808,-1.2905,-1.2905,-1.2905,-1.2905,-1.2905,-1.2905,-1.2905,-1.2905,-1.2905,-1.2905,-1.2905,-1.2905,-1.2905,-1.2905,-1.3023,-1.458,-1.5312,-1.541,-1.541,-1.541,-1.541,-1.541,-1.4414,-1.369,-1.0228,-0.9948,-0.9905,-0.9905,-0.9953,-0.9614,-0.8477,-0.8314,-0.8168,-0.7754,-0.8981,-0.8838,-0.6023,-0.571,-0.5545,-0.5137,-0.5098,-0.5098,-0.5098,-0.5098,-0.5098,-0.5098,-0.4068,-0.3495,-0.3495,-0.3234,-0.3619,-0.4676,-0.632,-0.7131,-0.7145,-0.7525,-0.8298,-0.9397,-0.9751,-0.9905,-0.9905,-0.9905,-0.9905,-0.9905,-0.9905,-0.9905,-0.9867,-0.9503,-0.8937,-0.849,-0.9833,-1.0303,-1.0303,-1.0303,-1.0303,-1.0303,-1.0303,-1.0303,-1.0303,-1.0303,-1.0303,-1.0196,-0.9667,-0.9529,-0.9648,-1.0176,-1.0303,-1.0157,-0.9648,-0.8203,-0.7,-0.7,-0.7,-0.7,-0.7,-0.7,-0.7161,-0.7696,-0.9202,-1.0303,-1.0303,-1.0303,-0.9667,-0.7977,-0.9282,-1.0821,-1.2162,-1.1085,-1.0851,-1.2191,-1.3208,-1.3491,-1.2929,-1.0285,-1.0053,-1.2808,-1.2905,-1.2905,-1.2905,-1.2905,-1.2905,-1.2905,-1.2905,-1.2905,-1.2905,-1.2905,-1.2905,-1.2905,-1.2905,-1.2905,-1.2935,-1.3336,-1.4248,-1.541,-1.541,-1.541,-1.541,-1.541,-1.5156,-1.5054,-1.0994,-0.9804,-0.8988,-0.8988,-0.9499,-0.9633,-0.883,-0.8138,-0.7413,-0.6616,-0.7214,-0.7035,-0.5294,-0.5098,-0.5098,-0.5098,-0.5098,-0.5098,-0.5098,-0.5098,-0.5098,-0.5098,-0.4068,-0.3495,-0.3495,-0.3495,-0.4449,-0.6398,-0.7944,-0.8706,-0.8706,-0.8706,-0.913,-0.9905,-0.9905,-0.9905,-0.9905,-0.9905,-0.9905,-0.9905,-0.9905,-0.9905,-0.9905,-0.9905,-0.8981,-0.7919,-0.9668,-1.0303,-1.0303,-1.0303,-1.0303,-1.0303,-1.0303,-1.0303,-1.0303,-1.0303,-1.0303,-1.0303,-1.0303,-1.0303,-1.0303,-1.0303,-1.0303,-1.0303,-1.0303,-0.9361,-0.8509,-0.8509,-0.7696,-0.7,-0.7,-0.7833,-0.8509,-0.8509,-0.9509,-1.0303,-1.0303,-1.0987,-1.0376,-0.7349,-0.8547,-0.9994,-1.0939,-1.0175,-0.9775,-1.0174,-1.2601,-1.3161,-1.1133,-1.0787,-1.1351,-1.2856,-1.2905,-1.2289,-1.1049,-1.2264,-1.2905,-1.2905,-1.2905,-1.2905,-1.2905,-1.2905,-1.2905,-1.2905,-1.2905,-1.2905,-1.2964,-1.3721,-1.458,-1.5303,-1.4561,-1.4727,-1.541,-1.541,-1.541,-1.5475,-1.1822,-0.9689,-0.7899,-0.7899,-0.8841,-0.9548,-0.9428,-0.8329,-0.695,-0.5312,-0.5098,-0.5156,-0.5309,-0.5319,-0.5319,-0.5319,-0.5319,-0.5262,-0.5108,-0.5098,-0.5098,-0.5098,-0.4232,-0.3741,-0.3741,-0.4211,-0.5631,-0.8023,-0.9291,-0.9905,-0.9905,-1.0097,-1.0185,-1.0185,-1.0185,-1.0084,-0.9905,-0.9905,-0.9905,-0.9905,-0.9905,-0.9764,-0.9569,-0.9569,-0.8789,-0.7919,-0.9668,-1.0303,-1.0303,-1.0303,-1.0303,-1.0303,-1.0303,-1.0303,-1.0303,-1.0303,-1.0303,-1.0303,-1.0303,-1.0303,-1.0303,-1.0303,-1.0303,-1.0303,-1.0303,-1.0508,-1.0625,-1.0352,-0.9009,-0.7882,-0.7882,-0.9209,-1.0303,-1.0303,-1.0303,-1.0253,-1.009,-1.1356,-1.1179,-0.8252,-0.8421,-0.8804,-0.8804,-0.8804,-0.8457,-0.7599,-1.1807,-1.285,-0.9275,-1.1272,-1.2789,-1.3262,-1.3042,-1.1576,-0.8831,-1.1535,-1.2905,-1.2905,-1.2905,-1.2905,-1.2905,-1.2905,-1.2905,-1.2905,-1.2905,-1.2905,-1.3013,-1.4434,-1.5186,-1.5264,-1.3828,-1.4141,-1.541,-1.541,-1.541,-1.541,-1.1982,-0.9689,-0.7899,-0.7899,-0.8077,-0.7969,-0.7229,-0.6922,-0.6373,-0.5244,-0.5098,-0.5423,-0.6269,-0.6369,-0.6369,-0.6369,-0.6369,-0.6007,-0.5156,-0.5098,-0.5098,-0.5098,-0.4942,-0.4853,-0.4853,-0.7519,-0.9127,-0.9568,-0.979,-0.9905,-0.9931,-1.1008,-1.1512,-1.1512,-1.1512,-1.0914,-0.9905,-0.9905,-0.9905,-0.9905,-0.9905,-0.9157,-0.8037,-0.8037,-0.7904,-0.7919,-0.9668,-1.0303,-1.0303,-1.0303,-1.0303,-1.0303,-1.0303,-1.0303,-1.0303,-1.0303,-1.0303,-1.0303,-1.0303,-1.0303,-1.0303,-1.0303,-1.0303,-1.0303,-1.0303,-1.1438,-1.2083,-1.0606,-1.1197,-1.1978,-1.1978,-1.1068,-1.0303,-1.0303,-1.0303,-1.0001,-0.9143,-0.9273,-1.0079,-1.179,-1.0101,-0.8804,-0.8804,-0.8804,-0.9145,-0.9983,-0.9897,-0.9974,-1.0302,-1.0741,-1.2216,-1.4934,-1.3633,-1.1576,-0.8831,-1.1535,-1.2905,-1.2905,-1.2905,-1.2905,-1.2905,-1.2905,-1.2905,-1.2905,-1.2905,-1.2905,-1.2925,-1.3189,-1.4121,-1.5381,-1.5127,-1.5186,-1.541,-1.541,-1.541,-1.541,-0.9872,-0.8731,-0.7899,-0.7899,-0.7899,-0.7761,-0.736,-0.7298,-0.7393,-0.7653,-0.6653,-0.6535,-0.8195,-0.7322,-0.6599,-0.6599,-0.7026,-0.6901,-0.597,-0.5907,-0.5907,-0.5907,-0.5907,-0.6462,-0.7668,-0.7972,-0.8701,-0.9905,-0.9905,-1.0248,-1.0949,-1.1523,-1.1805,-1.1805,-1.1805,-1.1089,-0.9905,-0.9905,-0.9905,-0.9905,-0.9905,-0.9021,-0.7695,-0.7695,-0.7695,-0.7802,-0.8607,-0.9502,-1.0303,-1.0303,-1.0303,-1.0303,-1.0303,-1.0303,-1.0303,-1.0303,-1.0303,-1.0303,-1.0303,-1.0303,-1.0303,-1.0303,-1.0303,-1.0303,-1.0303,-1.1653,-1.268,-1.1868,-1.2347,-1.2905,-1.2905,-1.225,-1.1398,-1.0449,-1.2191,-1.3011,-1.1263,-1.0208,-1.0427,-1.2643,-1.1043,-0.9782,-0.9782,-0.9782,-1.0003,-1.0553,-1.0084,-1.0769,-1.3072,-1.3205,-1.3083,-1.281,-1.2059,-1.1047,-0.9782,-1.0386,-1.1887,-1.4238,-1.332,-1.2905,-1.2905,-1.2905,-1.2905,-1.2905,-1.2905,-1.2905,-1.2905,-1.2905,-1.3887,-1.541,-1.541,-1.541,-1.541,-1.541,-1.541,-1.541,-0.7998,-0.7899,-0.7899,-0.7899,-0.7899,-0.7899,-0.7899,-0.7899,-0.8274,-0.9298,-0.8477,-0.8455,-1.0162,-0.8819,-0.7806,-0.7806,-0.8421,-0.8267,-0.6984,-0.6706,-0.6599,-0.6599,-0.6791,-0.7971,-1.0282,-0.8385,-0.8346,-1.0334,-1.0334,-1.0843,-1.1805,-1.1805,-1.1805,-1.1805,-1.1805,-1.1262,-1.0323,-1.0034,-0.9905,-0.9905,-0.9905,-0.9021,-0.7695,-0.7695,-0.7918,-0.8209,-0.8209,-0.9072,-1.0291,-1.0797,-1.0668,-1.0303,-1.0303,-1.0303,-1.0303,-1.0303,-1.0303,-1.0303,-1.0303,-1.0303,-1.04,-1.0802,-1.0909,-1.0909,-1.0909,-1.1946,-1.2905,-1.2905,-1.2905,-1.2905,-1.2905,-1.2905,-1.2338,-1.0586,-1.4217,-1.6105,-1.2758,-1.1496,-1.1555,-1.3287,-1.2439,-1.1717,-1.1717,-1.1717,-1.1717,-1.1717,-1.1717,-1.2779,-1.5255,-1.4688,-1.3144,-1.0681,-1.0593,-1.0593,-1.0593,-0.9695,-1.1307,-1.5391,-1.4092,-1.3287,-1.2905,-1.2905,-1.2905,-1.2905,-1.2905,-1.2905,-1.2905,-1.2905,-1.3887,-1.541,-1.541,-1.541,-1.541,-1.541,-1.541,-1.541,-0.7914,-0.7899,-0.7899,-0.7899,-0.7899,-0.7899,-0.7899,-0.7899,-0.793,-0.8034,-1.0012,-1.1484,-1.163,-1.1503,-1.1421,-1.1421,-1.1474,-1.0454,-0.7968,-0.7042,-0.6599,-0.6599,-0.7376,-0.9005,-1.16,-1.0333,-1.0309,-1.1659,-1.1659,-1.1703,-1.1805,-1.1805,-1.1805,-1.1805,-1.1805,-1.1747,-1.1579,-1.0396,-0.9905,-0.9905,-0.9905,-0.9021,-0.7695,-0.7695,-0.854,-0.9738,-0.9738,-0.981,-1.024,-1.23,-1.1799,-1.0303,-1.0303,-1.0303,-1.0303,-1.0303,-1.0303,-1.0303,-1.0303,-1.0303,-1.0694,-1.2308,-1.2719,-1.2719,-1.2719,-1.2817,-1.2905,-1.2905,-1.2905,-1.2905,-1.2905,-1.2905,-1.2338,-1.0586,-1.5509,-1.7424,-1.1348,-1.178,-1.332,-1.5019,-1.5129,-1.505,-1.505,-1.505,-1.505,-1.505,-1.505,-1.5138,-1.5381,-1.2565,-1.0839,-1.0624,-1.0593,-1.0593,-1.0593,-1.0506,-1.2134,-1.541,-1.5283,-1.4394,-1.2905,-1.2905,-1.2905,-1.2905,-1.2905,-1.2905,-1.2905,-1.2905,-1.3887,-1.541,-1.541,-1.541,-1.541,-1.541,-1.541,-1.541,-0.7977,-0.7899,-0.7899,-0.7899,-0.7899,-0.7899,-0.7899,-0.7899,-0.7899,-0.7899,-0.8761,-1.0004,-1.1625,-1.1805,-1.1479,-1.0688,-1.133,-1.1371,-1.0383,-1.0015,-0.9109,-0.7478,-0.9278,-1.0401,-1.0613,-1.0926,-1.1318,-1.1805,-1.1805,-1.1805,-1.1805,-1.1805,-1.1805,-1.1805,-1.1805,-1.1805,-1.1714,-1.0433,-0.9905,-0.9905,-0.9905,-0.9021,-0.7797,-0.872,-0.941,-0.9905,-0.9905,-0.9905,-1.0244,-1.2447,-1.1909,-1.0303,-1.0303,-1.0303,-1.0303,-1.0303,-1.0303,-1.0,-0.863,-0.8244,-0.8603,-1.0007,-1.1626,-1.2905,-1.2905,-1.2905,-1.2905,-1.2905,-1.2905,-1.3228,-1.4258,-1.4453,-1.3887,-1.2191,-1.3939,-1.5035,-1.3674,-1.4033,-1.4687,-1.5303,-1.541,-1.541,-1.541,-1.541,-1.541,-1.541,-1.541,-1.541,-1.541,-1.2351,-1.0593,-1.0593,-1.0593,-1.0593,-1.0593,-1.0593,-1.1202,-1.2443,-1.4442,-1.4521,-1.2905,-1.2905,-1.2905,-1.2905,-1.2905,-1.2905,-1.2905,-1.2905,-1.3887,-1.541,-1.541,-1.541,-1.541,-1.541,-1.541,-1.541,-0.8299,-0.8216,-0.8149,-0.7942,-0.8082,-0.8142,-0.7935,-0.7899,-0.7899,-0.7899,-0.7899,-0.8589,-1.0378,-1.1311,-1.1457,-1.0567,-1.1296,-1.1805,-1.1805,-1.1805,-1.0997,-0.9195,-1.0463,-1.0985,-1.0506,-1.1341,-1.1805,-1.1805,-1.1805,-1.1805,-1.1805,-1.1805,-1.1805,-1.1805,-1.1805,-1.1805,-1.1714,-1.0433,-0.9905,-0.9905,-0.9905,-0.9291,-0.8442,-0.9008,-0.949,-0.9993,-1.0696,-1.0933,-1.1171,-1.2685,-1.1909,-1.0303,-1.0303,-1.0303,-1.0303,-1.0303,-0.9805,-0.9073,-0.8264,-0.7802,-0.7759,-0.8604,-1.0208,-1.1834,-1.27,-1.2905,-1.3052,-1.359,-1.3698,-1.4033,-1.5195,-1.541,-1.5029,-1.3867,-1.3698,-1.4082,-1.5254,-1.541,-1.5215,-1.4678,-1.5088,-1.541,-1.541,-1.541,-1.541,-1.541,-1.541,-1.4952,-1.3957,-1.181,-1.0593,-1.0593,-1.0593,-1.0593,-1.0593,-1.0593,-1.0593,-1.0656,-1.3867,-1.4805,-1.3662,-1.315,-1.2905,-1.2905,-1.2905,-1.2905,-1.2905,-1.2905,-1.3887,-1.541,-1.541,-1.4776,-1.3897,-1.3897,-1.3897,-1.4046,-0.8897,-0.8891,-0.8679,-0.8026,-0.846,-0.8673,-0.7998,-0.7899,-0.7899,-0.7899,-0.7899,-0.7899,-0.7899,-1.0228,-1.1775,-1.1775,-1.179,-1.1805,-1.1805,-1.1805,-1.1805,-1.1805,-1.0592,-1.0506,-1.1768,-1.1794,-1.1794,-1.1794,-1.1805,-1.1805,-1.1805,-1.1805,-1.1805,-1.1805,-1.1805,-1.1805,-1.1714,-1.0433,-0.9905,-0.9905,-0.9905,-0.9905,-0.9738,-0.8255,-0.862,-1.018,-1.2409,-1.3198,-1.3198,-1.3198,-1.1927,-1.0322,-1.0303,-1.0303,-1.0303,-1.0303,-0.8731,-0.7467,-0.9687,-0.9541,-0.8804,-0.8804,-0.8804,-0.9524,-1.224,-1.2891,-1.3354,-1.5068,-1.541,-1.541,-1.541,-1.541,-1.541,-1.541,-1.541,-1.541,-1.541,-1.541,-1.4785,-1.313,-1.4385,-1.541,-1.541,-1.541,-1.541,-1.541,-1.5381,-1.3957,-1.0776,-1.0593,-1.0593,-1.0593,-1.0593,-1.0593,-1.0593,-1.0593,-1.0624,-1.0681,-1.3867,-1.541,-1.5352,-1.3672,-1.2915,-1.2905,-1.2915,-1.2915,-1.2905,-1.2915,-1.3896,-1.541,-1.541,-1.3438,-1.0618,-1.0624,-1.0593,-1.1052,-0.8897,-0.8522,-0.828,-0.8553,-0.8761,-0.8673,-0.7998,-0.7899,-0.7899,-0.7899,-0.7899,-0.7899,-0.7899,-0.8596,-0.906,-0.906,-1.0743,-1.1805,-1.1805,-1.1805,-1.1805,-1.1805,-1.1445,-1.1412,-1.1794,-1.0926,-1.047,-1.047,-1.1352,-1.1805,-1.1805,-1.1805,-1.1805,-1.1805,-1.1805,-1.1805,-1.1714,-1.0433,-0.9905,-0.9905,-0.9905,-0.9905,-0.9738,-0.8255,-0.8727,-1.0456,-1.2473,-1.3198,-1.3198,-1.3198,-1.2808,-1.209,-1.0725,-1.0303,-1.0303,-1.0303,-0.8731,-0.714,-0.7812,-0.8376,-0.8804,-0.8804,-0.8804,-0.9008,-0.9829,-1.0677,-1.2062,-1.4828,-1.541,-1.541,-1.541,-1.541,-1.541,-1.541,-1.541,-1.541,-1.541,-1.541,-1.5225,-1.4717,-1.5107,-1.541,-1.541,-1.541,-1.541,-1.541,-1.3317,-1.1624,-1.0656,-1.0593,-1.0593,-1.0593,-1.0593,-1.0593,-1.0593,-1.0593,-1.1717,-1.3986,-1.4923,-1.541,-1.5391,-1.4883,-1.4004,-1.2974,-1.4141,-1.3984,-1.2993,-1.416,-1.4961,-1.541,-1.541,-1.4805,-1.3687,-1.1445,-1.0593,-1.1052,-0.8559,-0.8182,-0.8108,-0.8789,-0.8897,-0.8673,-0.7998,-0.7899,-0.7899,-0.7899,-0.7899,-0.7899,-0.7899,-0.7899,-0.7899,-0.7899,-0.9345,-1.0258,-1.0258,-1.075,-1.1262,-1.1783,-1.1805,-1.1557,-1.1066,-1.0298,-0.9905,-0.9905,-1.1182,-1.1534,-1.1066,-1.1557,-1.1805,-1.1805,-1.1805,-1.1805,-1.1714,-1.0433,-0.9905,-0.9905,-0.9905,-1.0419,-1.1021,-0.9361,-0.9385,-1.0448,-1.1634,-1.2054,-1.2162,-1.2943,-1.2703,-1.1854,-1.0668,-1.0303,-1.0303,-1.0303,-0.9361,-0.8445,-0.9133,-0.9859,-1.0156,-0.9061,-0.8804,-0.8804,-0.8804,-0.9749,-1.1507,-1.4746,-1.541,-1.541,-1.541,-1.541,-1.541,-1.541,-1.541,-1.541,-1.541,-1.541,-1.541,-1.541,-1.541,-1.541,-1.541,-1.541,-1.4864,-1.3597,-1.1686,-1.0593,-1.0593,-1.0593,-1.0593,-1.0593,-1.0593,-1.1202,-1.2473,-1.1233,-1.2235,-1.541,-1.541,-1.541,-1.541,-1.541,-1.4853,-1.3936,-1.4971,-1.4834,-1.3965,-1.499,-1.541,-1.541,-1.541,-1.541,-1.5021,-1.1779,-1.0593,-1.087,-0.8019,-0.7957,-0.8182,-0.8801,-0.8897,-0.8691,-0.8089,-0.7942,-0.7899,-0.7899,-0.7899,-0.7899,-0.7899,-0.7899,-0.7899,-0.7899,-0.7899,-0.7899,-0.7899,-0.9156,-1.0421,-1.1579,-1.1736,-1.1116,-0.9629,-0.9805,-0.9905,-0.9905,-1.1066,-1.1043,-0.9919,-1.1089,-1.1637,-1.1637,-1.1637,-1.1637,-1.1546,-1.0384,-0.9905,-0.9918,-1.0119,-1.1397,-1.2995,-1.1038,-1.0303,-1.0303,-1.0303,-1.0303,-1.0602,-1.2549,-1.2018,-1.0525,-1.0351,-1.0303,-1.0303,-1.0303,-1.0303,-1.0684,-1.2436,-1.2905,-1.224,-0.9498,-0.8804,-0.8804,-0.8804,-0.9749,-1.1445,-1.4382,-1.5196,-1.541,-1.541,-1.541,-1.541,-1.541,-1.541,-1.541,-1.541,-1.541,-1.541,-1.541,-1.5138,-1.5079,-1.5381,-1.541,-1.4076,-1.0832,-1.0593,-1.0593,-1.0593,-1.0593,-1.0593,-1.0593,-1.0593,-1.202,-1.4923,-1.205,-1.2081,-1.4962,-1.4962,-1.5108,-1.541,-1.541,-1.541,-1.541,-1.541,-1.541,-1.541,-1.541,-1.541,-1.541,-1.541,-1.541,-1.505,-1.2112,-1.0839,-1.0606,-0.7935,-0.8319,-0.872,-0.8875,-0.8897,-0.8852,-0.8703,-0.8243,-0.7899,-0.7899,-0.7899,-0.7899,-0.7899,-0.7899,-0.7899,-0.7899,-0.7899,-0.7899,-0.7899,-0.9156,-1.0021,-1.031,-1.1262,-1.0386,-0.7389,-0.9014,-0.9905,-0.9905,-1.0173,-1.0173,-0.9906,-1.0173,-1.031,-1.031,-1.031,-1.031,-1.0298,-1.0021,-0.9905,-1.0056,-1.1798,-1.2772,-1.2995,-1.1038,-1.0303,-1.0303,-1.0303,-1.0303,-1.0602,-1.2549,-1.2925,-1.2318,-1.0783,-1.0303,-1.0303,-1.0303,-1.0303,-1.0684,-1.2436,-1.2905,-1.224,-0.9498,-0.8804,-0.8804,-0.8804,-0.9749,-1.0807,-1.1507,-1.3657,-1.541,-1.541,-1.541,-1.541,-1.541,-1.541,-1.541,-1.541,-1.541,-1.541,-1.541,-1.3174,-1.2626,-1.5167,-1.541,-1.4076,-1.0832,-1.0593,-1.0593,-1.0593,-1.0593,-1.0593,-1.0593,-1.0593,-1.0926,-1.1624,-1.0958,-1.0958,-1.1624,-1.1624,-1.2962,-1.541,-1.541,-1.541,-1.541,-1.541,-1.541,-1.541,-1.541,-1.541,-1.541,-1.541,-1.541,-1.5323,-1.4628,-1.2749,-1.072,-0.7956,-0.8441,-0.8456,-0.7045,-0.7965,-0.8897,-0.8897,-0.8325,-0.7899,-0.7899,-0.7899,-0.7899,-0.7899,-0.7899,-0.7899,-0.7899,-0.7899,-0.7899,-0.7899,-0.8566,-0.9505,-1.0753,-1.0867,-1.0035,-0.8221,-0.9315,-0.9905,-0.9905,-0.9905,-0.9905,-0.9905,-0.9905,-0.9905,-0.9905,-0.9905,-0.9905,-0.9968,-1.1034,-1.1472,-1.1585,-1.2735,-1.2576,-1.1536,-1.0646,-1.0303,-1.0303,-1.0303,-1.0897,-1.1836,-1.2873,-1.3198,-1.3012,-1.2,-1.1057,-1.0303,-1.0303,-1.0303,-1.0684,-1.2436,-1.2905,-1.224,-0.9498,-0.8804,-0.8951,-0.9512,-1.0151,-1.0593,-1.0593,-1.3166,-1.541,-1.541,-1.4136,-1.3114,-1.3114,-1.3114,-1.3114,-1.3114,-1.3114,-1.3114,-1.3114,-1.1624,-1.1264,-1.2962,-1.3114,-1.2412,-1.0713,-1.0593,-1.0593,-1.0593,-1.0593,-1.0593,-1.0593,-1.0593,-1.0593,-1.0593,-1.0593,-1.0593,-1.0593,-1.0593,-1.1476,-1.3166,-1.4688,-1.541,-1.541,-1.541,-1.541,-1.541,-1.541,-1.541,-1.541,-1.541,-1.541,-1.541,-1.541,-1.3703,-1.1511,-0.8182,-0.8108,-0.7353,-0.4836,-0.6425,-0.804,-0.804,-0.7961,-0.7899,-0.7899,-0.7899,-0.7899,-0.7899,-0.7899,-0.7899,-0.7899,-0.7899,-0.8094,-0.8544,-0.8154,-0.8865,-1.1042,-1.0121,-0.9485,-0.934,-0.934,-0.934,-0.934,-0.9717,-0.9905,-0.9905,-0.9905,-0.9905,-0.9905,-0.9905,-0.9905,-1.0018,-1.1861,-1.2847,-1.3198,-1.3198,-1.1874,-0.9909,-0.9867,-1.0048,-1.0303,-1.0303,-1.156,-1.3198,-1.3198,-1.3198,-1.3198,-1.3198,-1.1872,-1.0303,-1.0303,-1.0303,-1.0684,-1.2436,-1.2905,-1.2338,-1.0079,-0.914,-0.9112,-1.0325,-1.0593,-1.0593,-1.0593,-1.2718,-1.459,-1.459,-1.2381,-1.0593,-1.0593,-1.0593,-1.0593,-1.0593,-1.0593,-1.0593,-1.0593,-1.0593,-1.0593,-1.0593,-1.0593,-1.0593,-1.0593,-1.0593,-1.0593,-1.0593,-1.0593,-1.0593,-1.0593,-1.0593,-1.0593,-1.0593,-1.0593,-1.0593,-1.0593,-1.0593,-1.0593,-1.0713,-1.3927,-1.541,-1.541,-1.541,-1.541,-1.541,-1.541,-1.541,-1.541,-1.541,-1.541,-1.5449,-1.5712,-1.4739,-1.3266,-0.8789,-0.6786,-0.4856,-0.4111,-0.4314,-0.4571,-0.4571,-0.6473,-0.7899,-0.7899,-0.7899,-0.7899,-0.7899,-0.7899,-0.7899,-0.7899,-0.7899,-0.885,-1.1117,-0.915,-0.8064,-0.8409,-0.8254,-0.7818,-0.7056,-0.7037,-0.7037,-0.7037,-0.8964,-0.9905,-0.9905,-0.9905,-0.9905,-0.9905,-0.9905,-0.9905,-0.9918,-1.0219,-1.1447,-1.3198,-1.3198,-1.1874,-0.9775,-0.8513,-0.8994,-1.0303,-1.0303,-1.156,-1.3198,-1.3198,-1.3198,-1.3198,-1.3198,-1.1872,-1.0303,-1.0303,-1.0303,-1.0684,-1.2436,-1.2905,-1.2808,-1.2446,-1.0566,-0.9112,-1.0325,-1.0593,-1.0593,-1.0593,-1.0958,-1.1264,-1.1264,-1.0895,-1.0593,-1.0593,-1.0593,-1.0593,-1.0593,-1.0593,-1.0593,-1.0593,-1.0593,-1.0593,-1.0593,-1.0593,-1.0593,-1.0593,-1.0593,-1.0593,-1.0593,-1.0593,-1.0593,-1.0593,-1.0593,-1.0593,-1.0593,-1.0593,-1.0593,-1.0593,-1.0593,-1.0593,-1.0713,-1.3927,-1.541,-1.541,-1.541,-1.541,-1.541,-1.541,-1.541,-1.541,-1.541,-1.541,-1.5566,-1.71,-1.7456,-1.7226,-0.6403,-0.5059,-0.4107,-0.3938,-0.3906,-0.3906,-0.3906,-0.6489,-0.8319,-0.7957,-0.7899,-0.7899,-0.7899,-0.7899,-0.7899,-0.7899,-0.7899,-0.8394,-0.9539,-0.8544,-0.7899,-0.7899,-0.7899,-0.7717,-0.7337,-0.6849,-0.6599,-0.6599,-0.7586,-0.8062,-0.8087,-0.9328,-0.924,-0.8112,-0.9353,-0.9437,-0.8734,-0.9542,-0.9977,-1.0201,-1.1191,-1.1008,-1.0058,-0.9398,-0.9629,-1.0303,-1.0303,-1.0859,-1.1763,-1.2826,-1.3198,-1.3012,-1.1927,-1.0981,-1.0303,-1.0303,-1.0987,-1.1927,-1.27,-1.2905,-1.252,-1.099,-1.019,-0.995,-1.0472,-1.0593,-1.0593,-1.0593,-1.0593,-1.0593,-1.0593,-1.0593,-1.0593,-1.0593,-1.0593,-1.0593,-1.0593,-1.0593,-1.0593,-1.0593,-1.0593,-1.0593,-1.0593,-1.0593,-1.0593,-1.0593,-1.0593,-1.0593,-1.0593,-1.0593,-1.0593,-1.0593,-1.0593,-1.0593,-1.0593,-1.0593,-1.0593,-1.0593,-1.0593,-1.0593,-1.0656,-1.2081,-1.3717,-1.541,-1.541,-1.5967,-1.6787,-1.5811,-1.541,-1.5508,-1.6484,-1.6865,-1.6963,-1.7725,-1.8008,-1.8008]},{"header":{"parameterUnit":"m.s-1","parameterCategory":1,"la1":30.6,"la2":28.766,"lo1":-90.7593,"lo2":-88.6598,"dy":0.0162,"dx":0.0183,"nx":116,"ny":114,"refTime":"2023-06-06T12:00:00:Z","depth":0,"parameterNumber":3,"parameterNumberName":"V-component_of_WINDS"},"data":[0.0,0.0,0.0,0.0,0.0,0.0,0.0,0.0,0.0,0.0,0.0,0.0,0.0,0.0,0.0,0.0,0.0,0.0,0.0,0.0,0.0,0.0,0.0,0.0,0.0,0.0,0.0,0.0,0.0,0.0,0.0,0.0,0.0,0.0,0.0,0.0,0.0,0.0,0.0,0.0,0.0,0.0,0.0,0.0,0.0,0.0,0.0,0.0,0.0,0.0,0.0,0.0,0.0,0.0,0.0,0.0,0.0,0.0,0.0,0.0,0.0,0.0,0.0,0.0,0.0,0.0,0.0,0.0,0.0,0.0,0.0,0.0,0.0,0.0,0.0,0.0,0.0,0.0,0.0,0.0,0.0,0.0,0.0,0.0,0.0,0.0,0.0,0.0,0.0,0.0,0.0,0.0,0.0,0.0,0.0,0.0,0.0,0.0,0.0,0.0,0.0,0.0,0.0,0.0,0.0,0.0,0.0,0.0,0.0,0.0,0.0,0.0,0.0,0.0,0.0,0.0,0.0,0.0,0.0,0.0,0.0,0.0,0.0,0.0,0.0,0.0,0.0,0.0,0.0,0.0,0.0,0.0,0.0,0.0,0.0,0.0,0.0,0.0,0.0,0.0,0.0,0.0,0.0,0.0,0.0,0.0,0.0,0.0,0.0,0.0,0.0,0.0,0.0,0.0,0.0,0.0,0.0,0.0,0.0,0.0,0.0,0.0,0.0,0.0,0.0,0.0,0.0,0.0,0.0,0.0,0.0,0.0,0.0,0.0,0.0,0.0,0.0,0.0,0.0,0.0,0.0,0.0,0.0,0.0,0.0,0.0,0.0,0.0,0.0,0.0,0.0,0.0,0.0,0.0,0.0,0.0,0.0,0.0,0.0,0.0,0.0,0.0,0.0,0.0,0.0,0.0,0.0,0.0,0.0,0.0,0.0,0.0,0.0,0.0,0.0,0.0,0.0,0.0,0.0,0.0,0.0,0.0,0.0,0.0,0.0,0.0,0.0,0.0,0.0,0.0,0.0,0.0,0.0,0.0,0.0,0.0,0.0,0.0,0.0,0.0,0.0,0.0,0.0,0.0,0.0,0.0,0.0,0.0,0.0,0.0,0.0,0.0,0.0,0.0,0.0,0.0,0.0,0.0,0.0,0.0,0.0,0.0,0.0,0.0,0.0,0.0,0.0,0.0,0.0,0.0,0.0,0.0,0.0,0.0,0.0,0.0,0.0,0.0,0.0,0.0,0.0,0.0,0.0,0.0,0.0,0.0,0.0,0.0,0.0,0.0,0.0,0.0,0.0,0.0,0.0,0.0,0.0,0.0,0.0,0.0,0.0,0.0,0.0,0.0,0.0,0.0,0.0,0.0,0.0,0.0,0.0,0.0,0.0,0.0,0.0,0.0,0.0,0.0,0.0,0.0,0.0,0.0,0.0,0.0,0.0,0.0,0.0,0.0,0.0,0.0,0.0,0.0,0.0,0.0,0.0,0.0,0.0,0.0,0.0,0.0,0.0,0.0,0.0,0.0,0.0,0.0,0.0,0.0,0.0,0.0,0.0,0.0,0.0,0.0,0.0,0.0,0.0,0.0,0.0,0.0,0.0,0.0,0.0,0.0,0.0,0.0,0.0,0.0,0.0,0.0,0.0,0.0,0.0,0.0,0.0,0.0,0.0,0.0,0.0,0.0,0.0,0.0,0.0,0.0,0.0,0.0,0.0,0.0,0.0,0.0,0.0,0.0,0.0,0.0,0.0,0.0,0.0,0.0,0.0,0.0,0.0,0.0,0.0,0.0,0.0,0.0,0.0,0.0,0.0,0.0,0.0,0.0,0.0,0.0,0.0,0.0,0.0,0.0,0.0,0.0,0.0,0.0,0.0,0.0,0.0,0.0,0.0,0.0,0.0,0.0,0.0,0.0,0.0,0.0,0.0,0.0,0.0,0.0,0.0,0.0,0.0,0.0,0.0,0.0,0.0,0.0,0.0,0.0,0.0,0.0,0.0,0.0,0.0,0.0,0.0,0.0,0.0,0.0,0.0,0.0,0.0,0.0,0.0,0.0,0.0,0.0,0.0,0.0,0.0,0.0,0.0,0.0,0.0,0.0,0.0,0.0,0.0,0.0,0.0,0.0,0.0,0.0,0.0,0.0,0.0,0.0,0.0,0.0,0.0,0.0,0.0,0.0,0.0,0.0,0.0,0.0,0.0,0.0,0.0,0.0,0.0,0.0,0.0,0.0,0.0,0.0,0.0,0.0,0.0,0.0,0.0,0.0,0.0,0.0,0.0,0.0,0.0,0.0,0.0,0.0,0.0,0.0,0.0,0.0,0.0,0.0,0.0,0.0,0.0,0.0,0.0,0.0,0.0,0.0,0.0,0.0,0.0,0.0,0.0,0.0,0.0,0.0,0.0,0.0,0.0,0.0,0.0,0.0,0.0,0.0,0.0,0.0,0.0,0.0,0.0,0.0,0.0,0.0,0.0,0.0,0.0,0.0,0.0,0.0,0.0,0.0,0.0,0.0,0.0,0.0,0.0,0.0,0.0,0.0,0.0,0.0,0.0,0.0,0.0,0.0,0.0,0.0,0.0,0.0,0.0,0.0,0.0,0.0,0.0,0.0,0.0,0.0,0.0,0.0,0.0,0.0,0.0,0.0,0.0,0.0,0.0,0.0,0.0,0.0,0.0,0.0,0.0,0.0,0.0,0.0,0.0,0.0,0.0,0.0,0.0,0.0,0.0,0.0,0.0,0.0,0.0,0.0,0.0,0.0,0.0,0.0,0.0,0.0,0.0,0.0,0.0,0.0,0.0,0.0,0.0,0.0,0.0,0.0,0.0,0.0,0.0,0.0,0.0,0.0,0.0,0.0,0.0,0.0,0.0,0.0,0.0,0.0,0.0,0.0,0.0,0.0,0.0,0.0,0.0,0.0,0.0,0.0,0.0,0.0,0.0,0.0,0.0,0.0,0.0,0.0,0.0,0.0,0.0,0.0,0.0,0.0,0.0,0.0,0.0,0.0,0.0,0.0,0.0,0.0,0.0,0.0,0.0,0.0,0.0,0.0,0.0,0.0,0.0,0.0,0.0,0.0,0.0,0.0,0.0,0.0,0.0,0.0,0.0,0.0,0.0,0.0,0.0,0.0,0.0,0.0,0.0,0.0,0.0,0.0,0.0,0.0,0.0,0.0,0.0,0.0,0.0,0.0,0.0,0.0,0.0,0.0,0.0,0.0,0.0,0.0,0.0,0.0,0.0,0.0,0.0,0.0,0.0,0.0,0.0,0.0,0.0,0.0,0.0,0.0,0.0,0.0,0.0,0.0,0.0,0.0,0.0,0.0,0.0,0.0,0.0,0.0,0.0,0.0,0.0,0.0,0.0,0.0,0.0,0.0,0.0,0.0,0.0,0.0,0.0,0.0,0.0,0.0,0.0,0.0,0.0,0.0,0.0,0.0,0.0,0.0,0.0,0.0,0.0,0.0,0.0,0.0,0.0,0.0,0.0,0.0,0.0,0.0,0.0,0.0,0.0,0.0,0.0,0.0,0.0,0.0,0.0,0.0,0.0,0.0,0.0,0.0,0.0,0.0,0.0,0.0,0.0,0.0,0.0,0.0,0.0,0.0,0.0,0.0,0.0,0.0,0.0,0.0,0.0,0.0,0.0,0.0,0.0,0.0,0.0,0.0,0.0,0.0,0.0,0.0,0.0,0.0,0.0,0.0,0.0,0.0,0.0,0.0,0.0,0.0,0.0,0.0,0.0,0.0,0.0,0.0,0.0,0.0,0.0,0.0,0.0,0.0,0.0,0.0,0.0,0.0,0.0,0.0,0.0,0.0,0.0,0.0,0.0,0.0,0.0,0.0,0.0,0.0,0.0,0.0,0.0,0.0,0.0,0.0,0.0,0.0,0.0,0.0,0.0,0.0,0.0,0.0,0.0,0.0,0.0,0.0,0.0,0.0,0.0,0.0,0.0,0.0,0.0,0.0,0.0,0.0,0.0,0.0,0.0,0.0,0.0,0.0,0.0,0.0,0.0,0.0,0.0,0.0,0.0,0.0,0.0,0.0,0.0,0.0,0.0,0.0,0.0,0.0,0.0,0.0,0.0,0.0,0.0,0.0,0.0,0.0,0.0,0.0,0.0,0.0,0.0,0.0,0.0,0.0,0.0,0.0,0.0,0.0,0.0,0.0,0.0,0.0,0.0,0.0,0.0,0.0,0.0,0.0,0.0,0.0,0.0,0.0,0.0,0.0,0.0,0.0,0.0,0.0,0.0,0.0,0.0,0.0,0.0,0.0,0.0,0.0,0.0,0.0,0.0,0.0,0.0,0.0,0.0,0.0,0.0,0.0,0.0,0.0,0.0,0.0,0.0,0.0,0.0,0.0,0.0,0.0,0.0,0.0,0.0,0.0,0.0,0.0,0.0,0.0,0.0,0.0,0.0,0.0,0.0,0.0,0.0,0.0,0.0,0.0,0.0,0.0,0.0,0.0,0.0,0.0,0.0,0.0,0.0,0.0,0.0,0.0,0.0,0.0,0.0,0.0,0.0,0.0,0.0,0.0,0.0,0.0,0.0,0.0,0.0,0.0,0.0,0.0,0.0,0.0,0.0,0.0,0.0,0.0,0.0,0.0,0.0,0.0,0.0,0.0,0.0,0.0,0.0,0.0,0.0,0.0,0.0,0.0,0.0,0.0,0.0,0.0,0.0,0.0,0.0,0.0,0.0,0.0,0.0,0.0,0.0,0.0,0.0,0.0,0.0,0.0,0.0,0.0,0.0,0.0,0.0,0.0,0.0,0.0,0.0,0.0,0.0,0.0,0.0,0.0,0.0,0.0,0.0,0.0,0.0,0.0,0.0,0.0,0.0,0.0,0.0,0.0,0.0,0.0,0.0,0.0,0.0,0.0,0.0,0.0,0.0,0.0,0.0,0.0,0.0,0.0,0.0,0.0,0.0,0.0,0.0,0.0,0.0,0.0,0.0,0.0,0.0,0.0,0.0,0.0,0.0,0.0,0.0,0.0,0.0,0.0,0.0,0.0,0.0,0.0,0.0,0.0,0.0,0.0,0.0,0.0,0.0,0.0,0.0,0.0,0.0,0.0,0.0,0.0,0.0,0.0,0.0,0.0,0.0,0.0,0.0,0.0,0.0,0.0,0.0,0.0,0.0,0.0,0.0,0.0,0.0,0.0,0.0,0.0,0.0,0.0,0.0,0.0,0.0,0.0,0.0,0.0,0.0,0.0,0.0,0.0,0.0,0.0,0.0,0.0,0.0,0.0,0.0,0.0,0.0,0.0,0.0,0.0,0.0,0.0,0.0,0.0,0.0,0.0,0.0,0.0,0.0,0.0,0.0,0.0,0.0,0.0,0.0,0.0,0.0,0.0,0.0,0.0,0.0,0.0,0.0,0.0,0.0,0.0,0.0,0.0,0.0,0.0,0.0,0.0,0.0,0.0,0.0,0.0,0.0,0.0,0.0,0.0,0.0,0.0,0.0,0.0,0.0,0.0,0.0,0.0,0.0,0.0,0.0,0.0,0.0,0.0,0.0,0.0,0.0,0.0,0.0,0.0,0.0,0.0,0.0,0.0,0.0,0.0,0.0,0.0,0.0,0.0,0.0,0.0,0.0,0.0,0.0,0.0,0.0,0.0,0.0,0.0,0.0,0.0,0.0,0.0,0.0,0.0,0.0,0.0,0.0,0.0,0.0,0.0,0.0,0.0,0.0,0.0,0.0,0.0,0.0,0.0,0.0,0.0,0.0,0.0,0.0,0.0,0.0,0.0,0.0,0.0,0.0,0.0,0.0,0.0,0.0,0.0,0.0,0.0,0.0,0.0,0.0,0.0,0.0,0.0,0.0,0.0,0.0,0.0,0.0,0.0,0.0,0.0,0.0,0.0,0.0,0.0,0.0,0.0,0.0,0.0,0.0,0.0,0.0,0.0,0.0,0.0,0.0,0.0,0.0,0.0,0.0,0.0,0.0,0.0,0.0,0.0,0.0,0.0,0.0,0.0,0.0,0.0,0.0,0.0,0.0,0.0,0.0,0.0,0.0,0.0,0.0,0.0,0.0,0.0,0.0,0.0,0.0,0.0,0.0,0.0,0.0,0.0,0.0,0.0,2.2891,2.2132,0.0,0.0,0.0,0.0,0.0,0.0,0.0,0.0,0.0,0.0,0.0,0.0,0.0,0.0,0.0,0.0,0.0,0.0,0.0,0.0,0.0,0.0,0.0,0.0,0.0,0.0,0.0,0.0,0.0,0.0,0.0,0.0,0.0,0.0,0.0,0.0,0.0,1.4069,1.4069,1.4558,1.5539,1.7489,1.8614,1.8948,0.0,0.0,0.0,0.0,0.0,0.0,0.0,0.0,0.0,0.0,0.0,0.0,0.0,0.0,0.0,0.0,0.0,0.0,0.0,0.0,0.0,0.0,0.0,0.0,0.0,0.0,0.0,0.0,0.0,0.0,0.0,0.0,0.0,0.0,0.0,0.0,0.0,0.0,0.0,0.0,0.0,0.0,0.0,0.0,0.0,0.0,0.0,0.0,0.0,0.0,0.0,0.0,0.0,0.0,0.0,0.0,0.0,0.0,0.0,0.0,0.0,0.0,0.0,0.0,0.0,0.0,0.0,0.0,0.0,0.0,2.5609,2.397,0.0,0.0,0.0,0.0,0.0,0.0,0.0,0.0,0.0,0.0,0.0,0.0,0.0,0.0,0.0,0.0,0.0,0.0,0.0,0.0,0.0,0.0,0.0,1.143,1.1673,1.1097,1.1683,1.2145,0.0,0.0,0.0,0.0,0.0,0.0,0.0,1.3392,1.3851,1.4158,1.4588,1.5656,1.7332,1.9926,2.0794,2.016,2.0401,0.0,0.0,0.0,0.0,0.0,0.0,0.0,0.0,0.0,0.0,0.0,0.0,0.0,0.0,0.0,0.0,0.0,0.0,0.0,0.0,0.0,0.0,0.0,0.0,0.0,0.0,0.0,0.0,0.0,0.0,0.0,0.0,0.0,0.0,0.0,0.0,0.0,0.0,0.0,0.0,0.0,0.0,0.0,0.0,0.0,0.0,0.0,0.0,0.0,0.0,0.0,0.0,0.0,0.0,0.0,0.0,0.0,0.0,0.0,0.0,0.0,0.0,0.0,2.4962,2.4297,2.6791,2.6791,2.7216,2.8115,3.0923,2.8654,2.2757,2.031,0.0,0.0,0.0,0.0,0.0,0.0,0.0,0.0,0.0,0.0,0.0,0.0,0.0,0.0,0.0,0.0,0.0,0.0,0.0,0.0,0.0,1.0366,1.045,1.0813,1.1107,1.1553,1.2246,0.0,0.0,0.0,0.0,0.0,1.3961,1.4076,1.4473,1.5198,1.7362,1.8542,1.8881,2.2163,2.3657,2.3456,2.141,2.0914,2.1574,0.0,0.0,0.0,0.0,0.0,0.0,0.0,0.0,0.0,0.0,0.0,0.0,0.0,0.0,0.0,0.0,0.0,0.0,0.0,0.0,0.0,0.0,0.0,0.0,0.0,0.0,0.0,0.0,0.0,0.0,0.0,0.0,0.0,0.0,0.0,0.0,0.0,0.0,0.0,0.0,0.0,1.9958,1.9958,0.0,0.0,0.0,0.0,0.0,0.0,0.0,0.0,0.0,0.0,0.0,0.0,0.0,2.1576,2.4968,2.6898,2.8661,3.0234,3.2442,3.3213,3.2687,3.2687,3.481,3.8515,3.8977,0.0,3.2756,2.321,0.0,0.0,0.0,0.0,0.0,0.0,0.0,0.0,0.0,0.0,0.0,0.0,0.0,0.0,0.0,0.0,0.0,0.0,0.0,0.0,0.0,1.2401,1.2852,1.3085,1.4123,1.4465,1.3804,1.4287,0.0,0.0,0.0,1.4221,1.4857,1.4864,1.5485,1.6754,1.8848,2.0146,2.0674,2.3547,2.5117,2.5511,2.44,2.3391,2.2428,2.1584,0.0,0.0,0.0,0.0,0.0,0.0,0.0,0.0,0.0,0.0,0.0,0.0,0.0,0.0,0.0,0.0,0.0,0.0,0.0,0.0,0.0,0.0,0.0,0.0,0.0,0.0,0.0,0.0,0.0,0.0,0.0,0.0,0.0,0.0,0.0,0.0,0.0,0.0,0.0,2.0454,1.9297,1.9297,1.9297,1.9866,0.0,0.0,0.0,0.0,0.0,0.0,0.0,0.0,0.0,2.962,2.8898,2.9996,3.3327,3.4764,3.5666,3.6084,3.7584,3.8046,3.754,3.6851,3.8001,4.0473,3.9789,3.7619,3.3901,2.5505,2.0968,1.949,0.0,0.0,0.0,0.0,2.504,2.1762,0.0,0.0,0.0,0.0,0.0,0.0,0.0,0.0,0.0,0.0,0.0,0.0,1.3534,1.4598,1.5422,1.5774,1.6895,1.7035,1.5684,1.5886,1.5477,1.4124,1.4355,1.4812,1.5463,1.6286,1.7292,1.8481,2.0892,2.2501,2.3373,2.5595,2.7064,2.7824,2.7824,2.6484,2.4153,2.2932,2.1914,2.108,0.0,0.0,0.0,0.0,0.0,0.0,0.0,0.0,0.0,0.0,0.0,0.0,0.0,0.0,0.0,0.0,0.0,0.0,0.0,0.0,0.0,0.0,0.0,0.0,0.0,0.0,0.0,0.0,0.0,0.0,0.0,0.0,0.0,0.0,0.0,0.0,0.0,2.2106,2.0546,2.0546,1.9811,1.9958,0.0,0.0,0.0,0.0,0.0,0.0,2.9309,2.6071,2.6885,3.2788,3.5442,3.7988,4.0477,4.0496,4.0496,4.0496,4.0496,4.0496,4.0473,3.9564,3.9656,4.0438,3.9552,3.759,3.4614,2.898,2.4722,2.1785,2.1785,2.5177,3.0037,3.0037,2.6532,2.1894,0.0,0.0,0.0,0.0,0.0,0.0,0.0,0.0,0.0,0.0,0.0,1.2449,1.4908,1.5871,1.683,1.8105,1.7835,1.7566,1.7468,1.6019,1.5209,1.5313,1.5334,1.5458,1.568,1.8687,2.0274,2.0366,2.4345,2.6704,2.7541,2.9182,3.0393,3.1158,3.1158,2.9818,2.7412,2.5071,2.3621,2.2804,2.1996,0.0,0.0,0.0,0.0,0.0,0.0,0.0,0.0,0.0,0.0,0.0,0.0,0.0,0.0,0.0,0.0,0.0,0.0,0.0,0.0,0.0,0.0,0.0,0.0,0.0,0.0,0.0,0.0,0.0,0.0,0.0,0.0,0.0,0.0,0.0,0.0,0.0,0.0,2.3951,2.1206,0.0,0.0,0.0,0.0,2.081,2.3554,2.6894,3.0164,3.3134,3.6353,3.9881,4.0169,4.0323,4.0496,4.0496,4.0496,4.0496,4.0496,4.0496,4.0496,4.043,4.0438,4.0496,4.043,3.9673,3.8193,3.4743,3.1421,2.851,2.851,2.8746,2.9078,2.9078,2.8831,2.8639,0.0,0.0,0.0,0.0,0.0,0.0,0.0,0.0,1.3075,1.3244,1.3491,1.4202,1.5659,1.7675,1.91,1.9579,2.0046,1.9808,1.8639,1.7599,1.6762,1.6197,1.6296,1.6879,1.7993,2.0197,2.184,2.2887,2.5897,2.7787,2.8613,3.0228,3.1403,3.2173,3.2173,3.199,3.1439,2.797,2.575,2.4383,2.2547,2.1402,0.0,0.0,0.0,0.0,0.0,0.0,0.0,0.0,0.0,0.0,0.0,0.0,0.0,0.0,0.0,0.0,0.0,0.0,0.0,0.0,0.0,0.0,0.0,0.0,0.0,0.0,0.0,0.0,0.0,0.0,0.0,0.0,0.0,0.0,0.0,0.0,0.0,2.7359,2.2556,0.0,2.5474,2.5915,2.6161,2.6746,2.9942,3.3346,3.6719,3.8065,3.9265,4.0458,4.0496,4.0496,4.0496,4.0496,4.0496,4.0496,4.0496,4.0496,4.0496,4.0496,4.0496,4.0465,3.9679,3.9105,3.8615,3.7441,3.5037,3.21,3.21,3.21,3.21,3.21,3.21,3.225,0.0,0.0,0.0,0.0,0.0,0.0,0.0,0.0,1.3421,1.3453,1.4342,1.5515,1.6957,1.9325,2.1024,2.158,2.145,2.0981,2.0076,1.8558,1.7543,1.7215,1.733,1.8001,1.926,2.1464,2.3263,2.4603,2.7103,2.8843,2.9843,3.0979,3.2053,3.3023,3.328,3.3702,3.4027,3.1366,2.8998,2.6806,2.4401,2.3033,2.231,0.0,0.0,0.0,0.0,0.0,0.0,0.0,0.0,0.0,0.0,0.0,0.0,0.0,0.0,0.0,0.0,0.0,0.0,0.0,0.0,0.0,0.0,0.0,0.0,0.0,0.0,0.0,0.0,0.0,0.0,0.0,0.0,0.0,0.0,2.7811,3.0102,3.055,2.7787,2.6264,2.7346,2.7792,2.9612,3.3519,3.604,3.8389,4.063,4.0747,4.0747,4.0747,4.0577,4.0496,4.0496,4.0496,4.0496,4.0496,4.0496,4.0496,4.0458,3.9335,3.9438,4.043,3.9229,3.8707,3.8707,3.8707,3.7422,3.5349,3.4229,3.4486,3.533,3.4211,3.3807,3.3948,0.0,0.0,0.0,0.0,0.0,0.0,1.3295,1.3396,1.3454,1.362,1.4513,1.6169,1.885,2.0737,2.2446,2.4034,2.1904,2.0821,2.1683,1.8717,1.7364,1.8385,1.8466,1.8754,1.9367,2.2556,2.4613,2.5459,2.8111,3.0075,3.1385,3.1707,3.2536,3.3815,3.4646,3.5037,3.5055,3.5073,3.3293,3.021,2.7732,2.5588,2.3788,0.0,0.0,0.0,0.0,0.0,0.0,0.0,0.0,0.0,0.0,0.0,0.0,0.0,0.0,0.0,0.0,0.0,0.0,0.0,0.0,0.0,0.0,0.0,0.0,0.0,0.0,0.0,0.0,0.0,0.0,0.0,0.0,0.0,2.4502,2.7262,3.0454,3.3587,3.6762,3.7456,3.4315,3.5012,3.7007,4.0265,4.1025,4.1308,4.1211,4.1191,4.1191,4.1191,4.0752,4.05,4.0496,4.05,4.05,4.0496,4.0496,4.0458,4.0227,3.6988,3.7276,4.0276,3.9212,3.8765,3.8765,3.8765,3.8765,3.8437,3.5197,3.5899,3.8322,3.5128,3.3907,3.4012,0.0,0.0,0.0,0.0,0.0,0.0,1.3379,1.3396,1.3666,1.4437,1.5423,1.7043,1.9684,2.1148,2.2364,2.3393,2.1302,2.0017,2.026,1.8346,1.7811,1.9211,1.9838,2.0494,2.1247,2.3322,2.5165,2.6712,2.8613,3.0058,3.1058,3.2154,3.2967,3.3556,3.4809,3.5695,3.6268,3.6851,3.6476,3.5124,3.0907,2.8194,2.638,0.0,0.0,0.0,0.0,0.0,0.0,0.0,0.0,0.0,0.0,0.0,0.0,0.0,0.0,0.0,0.0,0.0,0.0,0.0,0.0,0.0,0.0,0.0,0.0,0.0,0.0,0.0,0.0,0.0,0.0,0.0,3.0118,3.388,3.1494,3.3972,3.6358,3.7257,3.8157,3.8697,3.8661,3.8947,3.9515,4.0439,4.3236,4.3828,4.1328,4.1191,4.1191,4.1191,4.1074,4.0836,4.0504,4.0832,4.0832,4.0496,4.0496,3.9219,3.6834,3.5923,3.6,3.6993,3.9088,4.0014,4.0014,4.0014,4.0014,3.982,3.8047,3.79,3.8597,3.7698,3.6379,3.5086,0.0,0.0,0.0,0.0,0.0,0.0,1.3345,1.3396,1.3657,1.4383,1.5595,1.7198,1.9277,2.0692,2.1704,2.2223,2.0666,1.9676,1.9693,1.889,1.8804,1.9657,2.054,2.1511,2.2609,2.4264,2.5812,2.7204,2.8912,3.0162,3.0931,3.1844,3.2701,3.3447,3.4599,3.5768,3.6918,3.7735,3.8106,3.7867,3.435,3.1863,2.9989,2.7064,2.464,2.2675,2.1702,2.0472,1.9921,2.3997,0.0,0.0,0.0,0.0,0.0,0.0,0.0,0.0,0.0,0.0,0.0,0.0,0.0,0.0,0.0,0.0,0.0,0.0,0.0,0.0,0.0,0.0,0.0,0.0,3.4856,3.9293,3.8799,3.8711,3.8892,3.9402,3.9445,3.9735,4.043,4.0496,4.1182,4.2815,4.5012,4.543,4.3437,4.1794,4.0906,4.0906,4.11,4.1072,4.079,4.1051,4.0967,4.0496,4.0496,3.9477,3.7546,3.6135,3.5581,3.5904,3.9308,4.0676,4.0496,4.0496,4.0623,4.0699,0.0,0.0,0.0,0.0,3.6773,3.5496,0.0,0.0,0.0,0.0,0.0,0.0,1.3049,1.3226,1.3457,1.3853,1.5389,1.692,1.8248,1.9691,2.0627,2.0866,1.9882,1.9307,1.9458,1.9834,2.0006,1.9976,2.1013,2.2236,2.3643,2.5236,2.6484,2.7407,2.9086,3.0224,3.0842,3.1162,3.202,3.3384,3.4251,3.5583,3.72,3.801,3.8674,3.9035,3.7572,3.5797,3.3844,3.1672,2.8532,2.5236,2.4869,2.2868,2.1666,2.9934,0.0,0.0,0.0,0.0,0.0,0.0,0.0,0.0,0.0,0.0,0.0,0.0,0.0,0.0,0.0,0.0,0.0,0.0,0.0,0.0,0.0,0.0,0.0,0.0,3.8565,4.1586,4.4677,4.1574,3.9369,4.0378,4.0894,4.1001,4.0628,4.0589,4.218,4.6015,4.6308,4.6308,4.6308,4.2612,0.0,0.0,0.0,4.1125,4.1125,4.1171,4.0981,4.0589,4.0589,4.0589,4.0473,3.7444,3.6225,3.665,3.9239,4.0341,4.029,4.029,4.0326,4.0342,4.0082,3.9997,3.9625,3.6506,3.5366,3.4974,0.0,0.0,0.0,0.0,0.0,0.0,1.1628,1.2185,1.2992,1.3877,1.5497,1.7006,1.8197,1.8696,1.9271,2.0118,1.8301,1.7374,1.803,1.9438,2.0478,2.0987,2.2484,2.3778,2.4776,2.5736,2.7071,2.8732,2.9102,2.9691,3.0509,3.1054,3.1909,3.3058,3.4399,3.5902,3.7481,3.8346,3.901,3.9455,3.8863,3.7502,3.555,3.3128,3.21,3.1604,2.9005,2.7666,2.7005,2.63,2.3061,1.9266,1.9063,1.8589,0.0,0.0,0.0,0.0,0.0,0.0,0.0,0.0,0.0,0.0,0.0,0.0,0.0,0.0,0.0,0.0,0.0,0.0,0.0,3.8273,4.0073,4.0862,4.1902,4.1289,4.066,4.0518,4.328,4.4099,4.1325,4.1051,4.2528,4.6035,4.6308,4.6308,4.6308,4.2612,4.0496,4.0496,4.0584,4.0636,4.0636,4.1009,4.115,4.1051,4.1051,0.0,4.1035,4.0006,3.9575,3.9464,3.6521,3.668,3.905,3.905,3.7546,3.5331,3.643,3.6869,3.6434,3.2817,3.1478,3.1658,0.0,0.0,0.0,0.0,0.0,0.0,1.1164,1.1555,1.2119,1.2729,1.4327,1.5675,1.6412,1.7306,1.7907,1.8041,1.7449,1.7397,1.8194,1.9915,2.1056,2.1383,2.3045,2.4339,2.5173,2.6447,2.7555,2.8492,2.9212,2.9762,3.0215,3.0519,3.1393,3.279,3.3638,3.5143,3.7165,3.8035,3.8717,3.9182,3.8872,3.8326,3.7549,3.6172,3.5899,3.6046,3.4417,3.2803,3.1164,2.9549,2.7915,2.6392,2.5525,2.3293,2.1424,0.0,0.0,0.0,0.0,0.0,0.0,0.0,0.0,0.0,0.0,0.0,0.0,0.0,0.0,2.5812,2.922,0.0,3.6369,4.0217,4.0844,4.0925,4.1171,4.1191,4.1103,4.0886,4.2573,4.3086,4.1367,4.1191,4.1914,4.3613,4.5332,4.5547,4.3848,4.1913,4.0732,4.0512,4.0496,4.0496,4.0496,4.0722,4.0967,4.1191,4.0964,4.084,4.0828,3.9976,3.9599,3.9416,3.6134,3.4851,3.5092,3.5092,3.4943,3.4623,3.3893,3.3146,3.2454,3.2188,3.2099,3.2137,0.0,0.0,0.0,0.0,0.0,0.0,0.0,1.094,1.1197,1.137,1.2933,1.4142,1.4423,1.582,1.6485,1.5926,1.7096,1.8081,1.8542,2.057,2.1754,2.1754,2.3413,2.4716,2.5538,2.6928,2.7818,2.8126,2.927,2.9904,3.0075,3.0254,3.1159,3.2672,3.3178,3.4737,3.7,3.77,3.835,3.886,3.8407,3.8448,3.8739,3.8436,3.8474,3.8707,3.8707,3.7,3.4651,3.4027,3.3807,3.3546,3.2161,2.8673,2.4957,2.4086,2.4014,0.0,0.0,0.0,0.0,0.0,0.0,0.0,0.0,2.7656,3.3923,3.1827,2.9712,2.9955,3.5577,3.9112,4.1191,4.1191,4.1191,4.1191,4.1191,4.1191,4.1191,4.1191,4.1125,4.1051,4.1051,4.1051,4.1101,4.1191,4.375,4.4101,4.1348,4.1191,4.1037,4.0654,4.0559,4.0496,4.0496,4.0496,4.0688,4.1069,4.0448,4.0157,4.0101,3.8736,3.81,3.7981,3.5766,3.3556,3.1511,3.1511,3.3114,3.5312,3.2357,3.0472,2.9737,3.2343,3.3299,3.3103,0.0,0.0,0.0,0.0,0.0,0.0,0.0,0.0,1.0596,1.0617,1.224,1.3464,1.3621,1.4432,1.5015,1.5114,1.7401,1.8543,1.7874,2.0865,2.2643,2.2643,2.4274,2.5577,2.6447,2.6659,2.7467,2.8973,2.9129,2.9592,3.0374,3.1149,3.2,3.2942,3.4513,3.6192,3.7853,3.7969,3.8473,3.9154,3.8029,3.7624,3.7612,3.7125,3.7664,3.8707,3.8707,3.8469,3.7716,3.478,3.3807,3.3762,3.356,3.119,2.7686,2.368,2.3301,2.3873,2.2361,2.3872,2.5604,2.4483,2.2014,2.0527,0.0,2.7441,3.1712,3.4385,3.6988,3.916,4.0345,4.0917,4.1191,4.1191,4.1191,4.1191,4.1191,4.1191,4.1191,4.1191,4.0824,4.0589,4.0589,4.0589,4.0742,4.1171,4.1543,4.1601,4.1211,4.1191,4.1171,4.1126,4.0721,4.0496,4.0496,4.0496,4.0523,4.0556,3.9431,3.8902,3.8826,3.6851,3.5946,3.5798,3.3109,3.1781,3.1511,3.1511,3.3114,3.5312,3.2357,3.1106,3.1005,3.1348,3.1487,3.1449,0.0,0.0,0.0,0.0,0.0,0.0,0.0,0.0,0.0,0.991,1.1086,1.1916,1.1976,1.3198,1.4434,1.5544,1.6739,1.7719,1.8411,2.0277,2.1543,2.2023,2.3697,2.4779,2.5144,2.6101,2.6948,2.764,2.849,2.9117,2.9493,3.0316,3.1443,3.2839,3.4167,3.5721,3.7379,3.7819,3.82,3.8473,3.7787,3.7222,3.67,3.5768,3.6124,3.722,3.8305,3.8707,0.0,3.0577,2.9457,3.1005,3.1005,2.9458,2.6962,2.334,2.1431,2.0902,2.286,2.4319,2.5075,2.4373,2.4575,2.5976,2.9883,3.3627,3.6755,3.8465,3.9922,4.0967,4.1151,4.1191,4.1191,4.1191,4.1191,4.1191,4.1191,4.1191,4.1191,4.1191,3.9238,3.8576,4.0323,4.0757,4.0998,4.1191,4.1191,4.1191,4.1191,4.1191,4.1191,4.1191,4.1009,4.0909,4.0909,4.0636,4.0496,4.0508,4.118,4.1479,4.1356,3.7408,3.4728,3.314,3.1992,3.1511,3.1511,3.1511,3.3114,3.5481,3.423,3.3761,3.3558,3.1833,3.119,3.119,0.0,0.0,0.0,0.0,0.0,0.0,0.0,0.0,0.0,0.0,1.0124,1.0732,1.1187,1.2567,1.406,1.5588,1.6063,1.6858,1.8163,1.955,2.0558,2.1135,2.2816,2.3744,2.3744,2.4928,2.5774,2.6231,2.731,2.8077,2.8581,2.9625,3.0938,3.2499,3.3923,3.5406,3.6874,3.7409,3.7507,3.7262,3.6774,3.5954,3.4909,3.3715,3.373,3.4639,3.6625,3.7936,3.7221,2.7475,2.5144,2.6327,2.6327,2.6179,2.5591,2.3449,2.1289,2.0241,2.3366,2.419,2.463,2.6392,2.9522,3.3025,3.6327,3.8955,4.0785,4.1126,4.1191,4.1191,4.1191,4.1191,4.1191,4.1191,4.1191,4.1191,4.1191,4.0371,3.9766,3.9766,3.661,3.5683,3.8822,4.0388,4.1191,4.1191,4.1191,4.1191,4.1191,4.1191,4.1191,4.1191,4.1191,4.1191,4.1191,4.0722,4.078,4.1335,4.2791,4.3515,4.3317,3.8025,3.452,3.2583,3.1838,3.1511,3.1511,3.1511,3.2676,3.4544,3.5293,3.56,3.5346,3.3203,3.1901,3.1309,0.0,0.0,0.0,0.0,0.0,0.0,0.0,0.0,0.0,0.0,0.0,0.0,0.0,1.2805,1.3688,1.4651,1.5693,1.6326,1.6387,1.8839,2.0308,2.0346,2.1947,2.2836,2.2836,2.2893,2.3716,2.5346,2.538,2.6264,2.7962,2.961,3.0859,3.1833,3.4346,3.593,3.6699,3.6738,3.6288,3.55,3.4635,3.3308,3.1706,3.0577,3.0326,3.0853,3.3131,3.6009,3.7221,2.7475,2.2161,1.9591,1.9591,2.175,2.427,2.416,2.4078,2.4032,2.4171,2.419,2.5695,3.1953,3.686,4.0301,4.0899,4.1113,4.1171,4.1191,4.1191,4.1191,4.1191,4.1191,4.1191,4.1191,4.1191,4.1191,4.1191,3.8281,3.6152,3.6152,3.2843,3.1908,3.5323,3.9014,4.1191,4.1191,4.1191,4.1191,4.1191,4.1191,4.1191,4.1191,4.1191,4.1191,4.1191,4.0722,4.1478,4.3418,4.3477,4.3515,4.3317,3.8025,3.5538,3.5339,3.2664,3.1511,3.1511,3.1511,3.1553,3.1894,3.4544,3.56,3.5583,3.5498,3.366,3.1613,0.0,0.0,0.0,0.0,0.0,0.0,0.0,0.0,0.0,0.0,0.0,0.0,0.0,0.0,0.0,0.0,1.4807,1.5641,1.6265,1.7688,1.852,1.8581,2.0735,2.1696,2.1158,2.2235,2.3086,2.3639,2.4221,2.4798,2.5414,2.7082,2.8679,3.0182,3.2112,3.3781,3.5065,3.4437,3.4026,3.3603,3.1608,3.0473,2.9827,2.8508,2.7599,2.7122,0.0,2.7448,2.6325,2.5282,2.2417,1.9778,2.2432,2.2517,2.2058,2.4271,2.4923,2.4923,2.4923,2.8241,3.2746,3.7148,3.9624,4.1007,4.1151,4.1191,4.1191,4.1191,4.1191,4.0488,3.8184,3.7754,3.7754,3.7754,3.7754,3.7754,3.7754,3.6543,3.4824,3.2551,3.3181,3.3346,3.2212,3.5324,3.8331,4.0572,4.0742,4.0859,4.1171,4.1191,4.1191,4.1191,4.1191,4.1191,4.1191,4.0722,4.1505,4.3515,4.3515,4.165,3.8192,3.6407,3.56,3.5447,3.2676,3.1511,3.1511,3.1511,3.1511,3.1752,3.452,3.56,3.56,3.56,3.4957,3.3981,0.0,0.0,0.0,0.0,0.0,0.0,0.0,0.0,0.0,0.0,0.0,0.0,0.0,0.0,0.0,0.0,0.0,1.4769,1.5679,1.6618,1.7282,1.765,1.9258,2.0196,2.0308,2.1047,2.1739,2.2331,2.2605,2.2893,2.3182,2.4274,2.5735,2.7503,2.8823,3.0375,3.1965,3.1361,3.1102,3.0968,2.9338,2.8472,2.8063,2.6865,2.5942,0.0,2.3942,2.2135,2.0808,2.4173,2.3568,2.1909,2.4487,2.3,2.0962,2.4327,2.5107,2.5767,2.9664,3.3949,3.7847,4.0172,4.0972,4.1191,4.1191,4.1191,4.1191,4.1191,4.0215,3.826,3.4665,3.4008,3.4048,3.4159,3.5195,3.6382,3.7469,3.6396,3.5135,3.4141,3.4885,3.4635,3.2442,3.4212,3.6385,3.8546,3.9823,4.0629,4.0928,4.1102,4.1191,4.1191,4.1191,4.1125,4.0959,4.1355,4.2336,4.3888,4.2803,3.994,3.56,3.56,3.5052,3.4037,3.2284,3.1511,3.1511,3.1511,3.1511,3.1752,3.452,3.56,3.56,3.56,3.56,3.5329,0.0,0.0,0.0,0.0,0.0,0.0,0.0,0.0,0.0,0.0,0.0,0.0,0.0,0.0,0.0,0.0,0.0,0.0,1.4651,1.5693,1.667,1.7506,1.7634,1.8465,2.0135,1.9392,1.9777,2.137,2.0654,2.0692,2.1446,2.1485,2.2408,2.4072,2.4889,2.6173,2.7761,2.7722,2.7703,2.7703,2.7607,2.7101,2.6313,2.5481,2.5231,2.4865,2.15,2.0308,2.0788,2.3981,2.5038,2.5034,2.4995,2.2815,2.0913,2.4317,2.5055,2.7075,3.7638,4.0527,4.0642,4.1098,4.1171,4.1171,4.1191,4.1055,4.0937,4.0937,3.8008,3.4351,3.0795,3.0135,3.0259,3.0581,3.3359,3.6467,3.932,3.743,3.6949,4.0131,3.77,3.575,3.575,3.5689,3.5667,3.5667,3.862,4.0414,4.0414,4.089,4.1151,4.1151,4.1151,4.1034,4.0754,4.2744,4.4103,4.4752,4.1724,3.871,3.5819,3.5667,3.4186,3.171,3.1553,3.1511,3.1511,3.1511,3.1511,3.1752,3.452,3.56,3.56,3.56,3.56,3.56,0.0,0.0,0.0,0.0,0.0,0.0,0.0,0.0,0.0,0.0,0.0,0.0,0.0,0.0,0.0,0.0,0.0,0.0,1.4646,1.5602,1.629,1.6612,1.7327,1.7911,1.835,1.8769,1.9215,1.9646,2.0081,2.0404,2.0615,2.1216,2.2081,2.3163,2.4028,2.4986,2.5923,2.5317,2.5072,2.4952,2.3639,2.3389,2.3735,2.3524,2.4212,2.4865,2.15,2.0308,2.0423,2.1288,2.1577,2.1482,2.0985,2.0245,2.0307,2.4175,2.8765,3.3765,3.9054,4.0767,4.1046,4.1171,4.0947,4.0762,4.1125,3.9199,3.7324,3.7324,3.2372,2.7733,2.678,2.6596,2.6699,2.6987,2.7754,2.8529,2.91,3.4988,3.9534,4.04,0.0,3.9219,3.9219,3.8409,3.7873,3.7873,3.8675,3.9168,3.9168,4.0119,4.067,4.067,4.067,4.1847,4.4286,4.6146,4.7174,4.7309,4.4155,4.1347,3.887,3.6614,3.5207,3.4447,3.2407,3.1511,3.1511,3.1511,3.1511,3.1752,3.452,3.56,3.56,3.56,3.56,3.56,0.0,0.0,0.0,0.0,0.0,0.0,0.0,0.0,0.0,0.0,0.0,0.0,0.0,0.0,0.0,0.0,0.0,0.0,0.0,1.5114,1.5687,1.6106,1.638,1.6875,1.7642,1.8155,1.8619,1.8992,1.9488,1.9735,1.9735,1.9792,2.0296,2.1143,2.1647,2.2316,2.3077,2.262,2.2643,0.0,0.0,2.2158,2.3139,2.2893,2.3832,2.4865,2.15,2.0102,1.9904,2.0208,2.0098,2.0042,2.1105,2.2704,2.4605,2.6872,3.2365,3.8143,4.0243,4.1005,4.1149,4.0933,4.0693,4.019,3.8972,3.4955,3.1443,3.132,2.8209,2.5479,2.5479,2.5479,2.6476,2.9502,3.1403,3.2376,3.2017,3.6899,4.0496,0.0,4.0496,0.0,4.0496,3.9414,3.8318,3.7415,3.8185,3.8302,3.7396,3.8859,4.0363,4.1765,4.1822,4.3428,4.6755,4.7783,4.759,4.6177,4.436,4.2829,4.1472,3.743,3.56,3.5515,3.3962,3.261,3.1511,3.1511,3.1511,3.1752,3.452,3.56,3.56,3.56,3.56,3.56,0.0,0.0,0.0,0.0,0.0,0.0,0.0,0.0,0.0,0.0,0.0,0.0,0.0,0.0,0.0,0.0,0.0,0.0,0.0,0.0,1.5066,1.5865,1.5319,1.5758,1.7388,1.75,1.7911,1.8665,1.878,1.8838,1.8819,1.8045,1.8164,1.8992,1.8876,1.9315,2.0119,2.0,2.0369,2.1004,2.1119,2.1885,2.2904,0.0,2.337,2.4269,2.1346,1.992,1.9513,2.0098,2.0218,2.0749,2.4521,2.8176,3.1095,3.1127,3.5633,4.0676,4.1098,4.115,4.1009,4.0604,4.0169,3.895,3.5596,3.0058,2.5705,2.5936,2.6165,2.6341,2.6387,2.6016,2.7727,3.3889,3.8049,4.0512,4.0511,4.0496,4.0438,4.0274,4.0266,4.0266,4.0266,3.9314,3.8127,3.6737,3.7665,3.7506,3.5694,3.7323,3.9893,4.3387,4.3901,4.548,4.8269,4.8306,4.6673,4.3496,4.3695,4.3679,4.3334,3.8295,3.6011,3.6011,3.5717,3.4252,3.2048,3.2048,3.2048,3.2269,3.4681,3.56,3.56,3.56,3.56,3.56,0.0,0.0,0.0,0.0,0.0,0.0,0.0,0.0,0.0,0.0,0.8974,0.9129,0.0,0.0,0.0,0.0,0.0,0.0,0.0,0.0,0.0,1.5865,1.5319,1.5491,1.6498,1.6652,1.6776,1.693,1.7603,1.793,1.7911,1.7776,1.8164,1.8972,1.8261,1.8411,1.9184,1.8469,1.8238,1.843,1.9146,1.945,1.9558,2.0404,0.0,0.0,2.0519,2.022,2.0149,2.0264,2.2067,2.534,3.1574,3.4021,3.4671,3.4946,3.7895,4.11,4.1171,4.0916,4.0604,4.0515,3.8411,3.5462,3.2058,2.8213,0.0,2.894,2.9552,2.9672,2.9956,2.7637,2.7011,3.1039,3.4625,3.7737,4.0149,4.0496,4.0138,0.0,3.9013,3.9013,3.9013,3.8818,3.9644,4.1959,3.8408,3.5989,3.5622,3.5946,3.8413,4.3334,4.6085,4.7737,4.8306,4.8306,4.6673,4.3513,4.4682,4.4632,4.3387,3.9791,3.8168,3.8066,3.6357,3.5339,3.4887,3.4887,3.4887,3.4934,3.5407,3.56,3.56,3.56,3.56,3.56,0.0,0.0,0.0,0.0,0.0,0.0,0.0,0.8488,0.8616,0.8783,0.8913,0.9027,0.9083,0.9958,1.0834,0.0,0.0,0.0,0.0,0.0,0.0,0.0,1.4958,1.5036,1.5456,1.6075,1.6397,1.6397,0.0,1.7699,1.7699,1.7699,1.7911,1.8318,1.7891,1.8103,1.8757,1.835,1.783,1.733,1.8045,1.8796,1.9538,0.0,0.0,0.0,1.9575,2.0308,2.0323,2.0415,2.2713,2.6684,3.3388,3.55,3.5911,3.8085,3.9728,4.0848,4.0848,4.0665,4.0496,4.0496,3.7988,3.4135,2.8923,0.0,0.0,2.7058,2.7865,2.7991,2.8162,2.5292,2.4645,3.0038,3.3622,3.6046,3.6879,3.8494,3.9352,3.878,3.8707,3.8707,3.8707,3.8707,3.935,4.0891,3.7649,3.56,3.56,3.7094,3.9639,4.3372,4.6617,4.7498,4.581,4.7462,4.7043,4.4606,4.5283,4.5244,4.448,4.1156,3.9288,3.8643,3.7649,3.6606,3.56,3.56,3.56,3.56,3.56,3.56,3.56,3.56,3.56,3.56,0.0,0.0,0.0,0.0,0.0,0.0,0.0,0.8579,0.863,0.8824,0.8941,0.9088,0.9279,1.0081,1.0802,0.0,0.0,0.0,0.0,0.0,0.0,0.0,0.0,0.0,1.4707,0.0,0.0,1.6021,1.679,0.0,0.0,0.0,0.0,0.0,1.7257,1.7561,1.8212,1.7981,1.7346,0.0,0.0,1.7984,0.0,0.0,0.0,0.0,0.0,1.9212,1.9338,2.0247,2.1825,2.4487,3.0436,3.3327,3.5107,3.8113,3.7654,3.6803,3.9708,4.0496,4.0496,4.0496,3.7988,3.3712,2.6865,2.331,2.2204,2.4842,2.5552,2.5703,2.5703,2.3386,2.3529,2.9862,3.293,3.3611,3.106,3.533,3.8707,3.8707,3.9313,0.0,3.9735,3.9111,3.8707,3.8707,3.7174,3.6058,3.5605,3.8447,4.115,4.3427,4.5957,4.6067,4.3533,4.6012,4.6704,4.5594,4.5594,4.5594,4.5479,4.2055,3.9975,3.9091,3.9091,3.8003,3.6253,3.6253,3.6011,3.56,3.56,3.56,3.56,3.56,3.56,3.56,0.0,0.0,0.0,0.0,0.0,0.0,0.0,0.8165,0.829,0.8665,0.9081,0.9507,0.987,1.0744,1.1335,0.0,0.0,0.0,0.0,0.0,0.0,0.0,0.0,0.0,0.0,0.0,0.0,1.5125,1.5328,0.0,0.0,0.0,0.0,0.0,0.0,1.6038,1.6981,1.5942,0.0,0.0,0.0,0.0,0.0,0.0,0.0,0.0,0.0,1.5673,1.616,1.9274,1.8464,1.6844,2.0739,2.6263,3.1382,3.1738,0.0,0.0,3.7168,4.0496,4.0496,4.0496,3.7988,3.3712,2.6865,0.0,2.529,2.5602,2.5683,2.5703,2.5703,2.5429,2.6444,3.0273,3.1131,2.8822,2.1645,3.1054,3.8707,3.8707,0.0,0.0,4.3074,4.0414,3.8707,3.8707,3.853,3.7578,3.5694,3.8447,4.115,4.3427,4.379,4.3808,4.3515,4.379,4.4504,4.5594,4.5594,4.5594,4.5479,4.2055,4.0438,4.0336,4.0336,3.96,3.8417,3.8417,3.7286,3.56,3.56,3.56,3.56,3.56,3.56,3.56,0.0,0.0,0.0,0.0,0.0,0.0,0.8425,0.8274,0.8489,0.9573,0.9537,0.9615,1.0175,1.1119,1.1773,1.1931,0.0,0.0,0.0,0.0,0.0,0.0,0.0,0.0,0.0,0.0,1.4821,1.4821,1.4946,0.0,0.0,0.0,0.0,0.0,0.0,1.5408,1.5737,1.536,0.0,0.0,0.0,0.0,0.0,0.0,0.0,0.0,0.0,0.0,1.5712,1.9154,1.9472,1.8335,1.7674,2.0718,2.4538,0.0,2.6957,3.1077,3.8496,4.0496,4.0496,4.0496,3.7988,3.3712,2.6865,0.0,2.5703,2.5703,2.5703,2.5703,2.5703,2.5703,2.6152,2.7539,2.9531,2.9817,2.6718,3.1742,3.6486,3.8469,3.8724,3.9231,4.0482,3.946,3.8707,3.8707,4.0487,3.9842,3.5801,3.6755,3.8376,4.0549,4.2488,4.3515,4.3515,4.3515,4.3772,4.4341,4.5203,4.5594,4.5479,4.2055,4.0496,4.0496,4.0496,4.0239,3.9735,3.8998,3.8218,3.747,3.747,3.747,3.7305,3.6058,3.56,3.56,0.0,0.0,0.0,0.0,0.0,0.765,0.8391,0.8227,0.8515,0.9923,0.9805,0.9892,1.0636,1.1474,1.2136,1.2472,1.3147,0.0,0.0,0.0,0.0,0.0,0.0,0.0,0.0,0.0,1.464,1.464,1.4785,1.4881,0.0,0.0,1.4991,1.5018,0.0,0.0,0.0,0.0,0.0,0.0,0.0,0.0,0.0,0.0,0.0,0.0,0.0,0.0,0.0,0.0,0.0,1.8577,1.6113,1.7662,2.043,2.056,2.6303,3.3759,3.9052,4.0496,4.0496,4.0496,3.7988,3.3442,0.0,0.0,2.5703,2.5703,2.5703,2.5703,2.5703,2.5703,2.5703,2.5703,2.7754,2.9726,3.0742,3.1756,3.3238,3.5569,3.6239,3.6847,3.7703,3.7773,3.7773,3.7773,4.0444,4.0455,3.6728,3.7419,3.817,3.8679,4.1809,4.3515,4.3515,4.3515,4.371,4.4132,4.5131,4.5075,4.4017,4.1593,4.0496,4.0496,4.0496,4.0496,4.043,3.9587,3.9008,3.8707,3.8707,3.8707,3.8449,3.6378,3.56,3.56,0.0,0.0,0.0,0.0,0.0,0.0,0.7724,0.7796,0.8188,0.9274,0.9811,1.0454,1.1399,1.19,1.2406,1.2951,1.3243,0.0,0.0,0.0,0.0,0.0,0.0,0.0,0.0,0.0,1.4493,1.4493,1.4639,1.4797,1.4991,1.4991,1.4991,1.5018,0.0,0.0,0.0,0.0,0.0,0.0,0.0,0.0,0.0,0.0,0.0,0.0,0.0,0.0,0.0,0.0,0.0,0.0,0.0,1.7673,2.0605,2.0605,2.3066,2.7947,3.7816,4.0496,4.0496,4.0496,3.7988,3.2846,2.2673,2.3137,2.5703,2.5703,2.5703,2.5703,2.5703,2.5703,2.5703,2.5703,2.5723,2.6953,3.041,2.9825,2.906,2.9097,3.4752,3.7878,3.5832,3.5627,3.5627,3.5627,3.7578,3.8728,3.8676,4.1701,4.1957,3.8799,4.1809,4.3515,4.3515,4.3515,4.4204,4.5577,4.5586,4.3825,4.0554,4.0516,4.0496,4.0496,4.0496,4.0496,4.0496,4.0489,3.9778,3.8707,3.8707,3.8707,3.8449,3.6378,3.56,3.56,0.0,0.0,0.0,0.0,0.0,0.0,0.0,0.7979,0.8099,0.9308,0.9754,1.0233,1.0946,1.1728,1.2261,1.2431,1.2869,0.0,0.0,0.0,0.0,0.0,0.0,0.0,0.0,0.0,1.4493,1.4493,1.4537,1.459,1.4668,1.4752,1.4788,1.4792,1.4933,1.5063,0.0,0.0,0.0,0.0,0.0,0.0,1.4556,0.0,0.0,0.0,0.0,0.0,0.0,0.0,0.0,0.0,0.0,0.0,0.0,2.0433,2.1269,2.3416,2.8907,3.3664,3.7084,3.7084,3.4519,3.0609,2.5225,2.4877,2.5039,2.2695,2.4062,2.5703,2.5703,2.5703,2.5703,2.5703,2.5703,2.6914,3.041,3.0544,2.999,2.9104,3.0821,3.4422,4.0418,3.9594,3.7821,3.5752,3.6211,3.7193,3.8627,4.1754,4.3037,4.2011,4.2982,4.3515,4.3515,4.3515,4.4204,4.5575,4.3228,4.1554,4.0496,4.0496,4.0496,4.0496,4.0496,4.0496,4.0496,4.0496,3.9789,3.8707,3.8707,3.8707,3.8627,3.7964,3.6808,3.56,0.0,0.0,0.0,0.0,0.0,0.0,0.0,0.7632,0.7853,0.9316,0.9644,1.011,1.1066,1.1697,1.2086,1.2179,1.25,0.0,0.0,0.0,0.0,0.0,0.0,0.0,1.383,1.4005,1.4213,1.4493,1.4493,1.4493,1.4493,1.4585,1.468,1.4776,1.4863,1.4915,0.0,0.0,0.0,0.0,0.0,0.0,1.4556,0.0,0.0,0.0,0.0,0.0,0.0,0.0,0.0,0.0,0.0,0.0,0.0,0.0,2.0493,2.1055,2.3203,2.7708,3.1808,3.1808,2.9226,2.6536,2.5854,2.5703,2.5098,2.2969,2.4219,2.5703,2.5703,2.5703,2.5703,2.5703,2.6695,2.8227,3.0401,3.0402,3.0791,3.2465,3.2985,3.5581,4.1636,4.1711,4.0254,3.7502,3.7297,3.77,3.8651,4.0598,4.168,4.168,4.168,4.2268,4.3496,4.4031,4.4075,4.3651,4.1516,4.0266,3.9821,3.9821,3.9821,3.9821,3.9821,3.9821,0.0,4.03,3.9789,3.8707,3.8707,3.8707,3.8707,3.8707,3.7396,3.56,0.0,0.0,0.0,0.0,0.0,0.0,0.0,0.6917,0.7496,0.916,0.9427,1.004,1.1495,1.1717,1.1854,1.2107,0.0,0.0,0.0,0.0,0.0,0.0,0.0,0.0,1.3396,1.3396,1.3746,1.4429,1.447,1.4493,1.4493,1.4493,1.4624,1.4877,1.4877,1.4727,0.0,0.0,0.0,0.0,0.0,0.0,0.0,0.0,0.0,0.0,0.0,0.0,0.0,0.0,0.0,0.0,0.0,0.0,0.0,0.0,0.0,0.0,0.0,2.3105,2.5644,2.5391,2.2949,2.1426,2.4609,2.5527,0.0,2.5703,2.5507,2.5311,2.5311,2.5332,2.5312,2.525,2.7961,3.007,3.007,2.9456,3.1358,3.7713,3.9437,4.0171,4.0336,4.2248,4.262,4.0514,4.0124,3.9621,3.8761,3.8707,3.8707,3.8707,3.8707,4.0184,4.326,4.4577,4.3632,4.0496,4.0414,3.9789,3.8707,3.8707,3.8707,3.8707,3.8707,3.8707,3.8792,3.9905,3.9712,3.8707,3.8707,3.8707,3.8707,3.8707,3.7488,3.5788,0.0,0.0,0.0,0.0,0.0,0.0,0.0,0.0,0.0,0.0,0.8774,0.9485,1.0256,1.0986,1.1431,0.0,0.0,0.0,0.0,0.0,0.0,0.0,0.0,0.0,1.3396,1.3396,1.3479,1.3661,1.4213,1.4493,1.4493,1.4493,1.4528,1.46,1.46,1.4561,0.0,0.0,0.0,0.0,0.0,0.0,0.0,0.0,0.0,0.0,1.4493,1.4794,0.0,0.0,0.0,0.0,0.0,0.0,0.0,0.0,2.0476,2.0605,2.0605,0.0,2.5078,2.2441,2.1191,2.0801,0.0,2.3828,2.5703,2.5703,2.3509,2.1564,2.1564,2.1682,2.1589,2.0906,2.4183,2.6806,2.6806,2.8072,3.0816,3.5734,3.8542,4.0791,4.2524,4.3196,4.3286,4.2735,4.042,3.8931,3.8713,3.8707,3.8707,3.8707,3.8707,3.9513,4.1196,4.1534,4.1304,4.0489,3.9564,3.897,3.8707,3.8707,3.8707,3.8707,3.8707,3.8707,3.8719,3.9013,3.8956,3.8707,3.8707,3.8707,3.8707,3.8707,3.8401,3.7738,0.0,0.0,0.0,0.0,0.0,0.0,0.0,0.0,0.0,0.0,0.0,0.0,0.0,0.0,0.0,0.0,0.0,0.0,0.0,0.0,0.0,0.0,0.0,1.3396,1.3396,1.3396,1.3396,1.3396,1.3796,1.4167,1.4493,1.4493,1.4493,1.4493,1.4493,1.4493,0.0,0.0,0.0,0.0,1.4356,0.0,0.0,0.0,0.0,0.0,1.4747,1.4857,0.0,1.4869,1.5018,1.5192,0.0,0.0,0.0,0.0,1.9269,2.0605,2.0605,2.3105,2.4883,2.1445,2.0605,2.0605,2.0605,2.2031,2.3359,2.3359,2.3043,2.2788,2.2788,2.2874,2.2135,1.9701,2.2901,2.5333,2.4299,2.6953,3.1542,3.8417,3.8038,3.7899,3.9708,4.0744,4.1295,4.1295,3.968,3.8707,3.8707,3.8707,3.8707,3.8707,3.9242,3.9842,4.0489,4.0496,4.0211,3.9668,3.9013,3.8707,3.8707,3.8707,3.8185,3.7341,3.8285,3.8707,3.8707,3.8707,3.8707,3.8707,3.8707,3.8707,3.8707,3.8707,3.8707,3.8401,0.0,0.0,0.0,0.0,0.0,0.0,0.0,0.0,0.0,0.0,0.0,0.0,0.0,0.0,0.0,0.0,0.0,0.0,0.0,0.0,0.0,0.0,1.3167,1.3278,1.3396,1.3396,1.3396,1.3396,1.3396,1.3723,1.4332,1.4447,1.4441,1.4338,1.4453,1.4493,0.0,0.0,0.0,0.0,1.4256,0.0,0.0,0.0,0.0,0.0,0.0,0.0,0.0,1.4493,1.4803,1.5192,1.5192,0.0,0.0,0.0,0.0,0.0,2.0605,2.2715,2.4336,2.1926,2.0928,2.0561,2.0586,0.0,0.0,0.0,0.0,2.5078,2.5605,2.5703,2.4508,2.0803,2.3992,2.627,2.4334,2.7086,3.2391,4.063,3.7433,3.4821,3.5528,3.7488,3.8707,3.8707,3.8707,3.8707,3.8707,3.8707,3.8707,3.8707,3.9701,4.03,4.0496,4.0496,3.9894,3.8707,3.8707,3.8707,3.8707,3.8707,3.7738,3.6169,3.7929,3.8707,3.8707,3.8707,3.8707,3.8707,3.8707,3.8707,3.8707,3.8707,3.8707,3.8401,0.0,0.0,0.0,0.0,0.0,0.0,0.0,0.0,0.0,0.0,0.0,0.0,0.0,0.0,0.0,0.0,0.0,0.0,0.0,0.0,0.0,1.1526,1.2132,1.2762,1.3388,1.3396,1.3396,1.3396,1.3396,1.3463,1.3575,1.4218,1.4161,1.3608,1.4213,1.4493,1.4493,1.4493,0.0,0.0,1.4453,0.0,0.0,0.0,0.0,0.0,0.0,0.0,0.0,1.4493,1.4803,1.5192,1.5192,0.0,0.0,0.0,0.0,0.0,2.0605,2.0977,2.1905,2.405,2.2454,2.0394,2.0561,2.0605,2.0605,0.0,0.0,2.2266,2.5176,2.5703,2.5407,2.4519,2.8974,3.242,3.2077,3.1361,3.1428,3.2917,3.5961,3.7337,3.5737,3.7488,3.8707,3.8707,3.8707,3.8707,3.8707,3.8707,3.8707,3.8707,3.8892,3.9476,4.0489,4.0496,3.9894,3.8707,3.8707,3.8707,3.8707,3.8707,3.853,3.8234,3.8562,3.8707,3.8707,3.8707,3.8707,3.8707,3.8707,3.8707,3.8707,3.8707,3.8707,3.8401,0.0,0.0,0.0,0.0,0.0,0.0,0.0,0.0,0.0,0.0,0.0,0.0,0.0,0.0,0.0,0.0,0.0,0.0,0.0,0.0,1.1089,1.0156,1.1357,1.231,1.2953,1.3252,1.3396,1.3396,1.3396,1.3598,1.4005,1.4338,1.4319,1.3991,1.3934,1.3906,1.3934,1.4332,1.4493,0.0,0.0,0.0,0.0,0.0,0.0,0.0,0.0,0.0,0.0,0.0,1.5796,1.7165,1.5675,0.0,0.0,0.0,0.0,0.0,2.0605,2.0605,2.0954,2.2395,2.1525,2.0324,2.0418,2.0449,2.0467,2.0584,2.0605,2.1074,2.2656,2.5848,2.8036,2.739,3.2439,3.645,3.645,3.5762,3.485,3.3705,3.5613,3.6646,3.5694,3.7488,3.8707,3.8707,3.8707,3.8707,3.8707,3.9314,3.9377,3.8719,3.8707,3.897,3.9517,3.9529,3.9255,3.8707,3.8707,3.8707,3.8707,3.8707,3.8083,3.7022,3.7022,3.7667,3.8707,3.8707,3.8707,3.8707,3.8707,3.8707,3.8707,3.8707,3.8707,3.8401,0.0,0.0,0.0,0.0,0.0,0.0,0.0,0.0,0.0,0.0,0.0,0.0,0.0,0.0,0.0,0.0,0.0,0.0,0.0,1.0934,1.0603,0.9255,1.0279,1.1068,1.1499,1.251,1.3148,1.3396,1.3559,1.3949,1.4493,1.4493,1.4493,1.4464,1.3738,1.3396,1.3438,1.4005,1.4338,0.0,0.0,0.0,0.0,0.0,0.0,0.0,0.0,0.0,0.0,0.0,0.0,0.0,0.0,0.0,0.0,1.8526,1.9939,2.0605,2.0605,2.0605,2.0605,2.0605,2.0447,2.0308,2.0308,2.0182,2.0108,2.0254,2.0305,2.0214,1.9983,2.6732,3.2108,3.139,3.5445,3.8707,3.8707,3.8707,3.7929,3.5854,3.56,3.56,3.56,3.7041,3.8185,3.8658,3.8707,3.8707,3.8707,3.9576,3.9656,3.8719,3.8707,3.8707,3.8707,3.8707,3.8707,3.8707,3.8707,3.8707,3.8673,3.8201,3.7098,3.56,3.56,3.6504,3.7998,3.8499,3.8707,3.8707,3.8707,3.8707,3.8707,3.8707,3.8707,3.8401,0.0,0.0,0.0,0.0,0.0,0.0,0.0,0.0,0.0,0.0,0.0,0.0,0.0,0.0,0.0,0.0,0.0,0.0,0.0,0.9911,0.933,0.921,0.8544,0.8199,0.8243,1.0653,1.2406,1.3396,1.4087,1.4447,1.4493,1.4493,1.4493,1.4464,1.3738,1.3396,1.3396,1.3463,1.387,1.4539,1.4977,0.0,0.0,0.0,0.0,0.0,0.0,0.0,0.0,0.0,0.0,0.0,0.0,0.0,1.5256,1.5515,1.7979,2.0605,2.0605,2.0605,2.0605,2.0605,2.0447,2.0308,2.0308,1.9817,1.9374,1.9381,1.9392,1.9107,1.8163,2.9023,3.8081,3.8025,3.8395,3.8707,3.8707,3.8707,3.7929,3.5854,3.56,3.56,3.56,3.5739,3.6626,3.8546,3.8707,3.8707,3.8707,3.8777,3.8792,3.8707,3.8707,3.8707,3.8707,3.8707,3.8707,3.8707,3.8707,3.8707,3.8627,3.6689,3.5722,3.56,3.56,3.5672,3.5968,3.7912,3.8707,3.8707,3.8707,3.8707,3.8707,3.8707,3.8707,3.8401,0.0,0.0,0.0,0.0,0.0,0.0,0.0,0.0,0.0,0.0,0.0,0.0,0.0,0.0,0.0,0.0,0.0,0.0,0.0,0.986,0.927,0.8424,0.9629,1.0333,1.0333,1.1955,1.2989,1.3396,1.4134,1.4493,1.4493,1.4493,1.4263,1.3818,1.4005,1.3826,1.343,1.3891,1.4256,1.4511,1.4693,0.0,0.0,0.0,0.0,0.0,0.0,0.0,0.0,0.0,1.5673,1.75,1.9635,1.9404,1.7942,1.5827,1.7678,2.0439,2.0562,2.0605,2.0563,2.0443,2.2055,2.2967,2.0297,2.5745,3.0997,2.97,2.9453,2.8485,2.5338,2.7462,3.1659,3.7716,3.8707,3.8707,3.8707,3.8707,3.8417,3.7614,3.6399,3.56,3.56,3.56,3.5924,3.6709,3.6768,3.6768,3.6768,3.8016,3.8707,3.8707,3.8707,3.8707,3.8707,3.7415,3.6768,3.6768,3.6768,3.6768,3.6746,3.5968,3.56,3.56,3.56,3.4551,3.3062,3.5682,3.5685,3.4358,3.7487,3.8707,3.8707,3.8707,3.8707,3.8401,0.0,0.0,0.0,0.0,0.0,0.0,0.0,0.0,0.0,0.0,0.0,0.0,0.0,0.0,0.0,0.0,0.0,0.0,0.9943,0.9509,0.885,0.7944,0.9614,1.0962,1.1775,1.2524,1.3069,1.3396,1.4134,1.4493,1.4493,1.4493,1.4219,1.3759,1.4264,1.4213,1.3774,1.4288,1.4493,1.442,1.3393,1.3594,0.0,0.0,0.0,0.0,0.0,0.0,0.0,0.0,1.4803,1.5808,1.9212,2.0308,1.9635,1.6192,1.7615,2.0337,2.0556,2.0605,2.0995,2.2633,2.3373,2.2966,2.0242,2.951,3.81,3.6015,3.56,3.4391,3.0427,2.7105,2.7776,3.6338,3.772,3.772,3.772,3.772,3.772,3.772,3.6464,3.56,3.56,3.56,3.56,3.56,3.56,3.56,3.56,3.6944,3.772,3.772,3.772,3.772,3.772,3.6316,3.56,3.56,3.56,3.56,3.56,3.56,3.56,3.56,3.56,3.4433,3.2679,3.3761,3.3575,3.2927,3.6378,3.772,3.772,3.772,3.772,3.7596,0.0,0.0,0.0,0.0,0.0,0.0,0.0,0.0,0.0,0.0,0.0,0.0,0.0,0.0,0.0,0.0,0.0,0.0,0.9958,0.8656,0.7899,0.7899,0.7899,0.9128,1.1766,1.1826,1.2346,1.3405,1.4141,1.4493,1.4493,1.4493,1.4493,1.4493,1.4493,1.4493,1.4499,1.4493,1.4493,1.4218,1.1035,1.1659,1.4493,0.0,0.0,0.0,0.0,0.0,0.0,0.0,1.4845,1.5846,1.9231,2.0308,1.9635,1.6192,1.7615,2.0337,2.0498,2.0566,2.1946,2.7512,2.4088,1.9518,2.0241,2.983,3.8008,3.5977,3.5577,3.4648,3.1678,2.8703,2.8669,3.4636,3.56,3.56,3.56,3.56,3.56,3.56,3.56,3.56,3.56,3.56,3.56,3.56,3.56,3.56,3.56,3.56,3.56,3.56,3.56,3.56,3.56,3.56,3.56,3.56,3.56,3.56,3.56,3.56,3.56,3.56,3.5543,3.5526,3.5329,3.2408,3.2933,3.5566,3.5583,3.56,3.56,3.56,3.56,3.5881,0.0,0.0,0.0,0.0,0.0,0.0,0.0,0.0,0.0,0.0,0.0,0.0,0.0,0.0,0.0,0.0,0.0,0.0,1.1256,0.9135,0.7899,0.7899,0.7899,0.9476,1.2851,1.2926,1.3345,1.4167,1.4381,1.4493,1.4493,1.4493,1.4493,1.4493,1.4493,1.4683,1.4973,1.4651,1.4493,1.442,1.3466,1.3649,1.4493,0.0,0.0,0.0,0.0,0.0,0.0,0.0,0.0,0.0,1.9981,2.0308,1.9635,1.6192,1.7615,1.9783,1.7438,1.8666,2.0858,2.1902,2.18,2.2568,2.6962,2.865,2.9931,3.2224,3.2718,3.1296,2.6698,2.6651,2.9146,3.4695,3.56,3.56,3.56,3.56,3.56,3.56,3.56,3.56,3.56,3.56,3.56,3.56,3.56,3.56,3.56,3.56,3.56,3.56,3.56,3.56,3.56,3.56,3.56,3.56,3.56,3.56,3.56,3.56,3.56,3.5374,3.1614,3.0946,3.2442,3.1562,3.1715,3.2713,3.4788,3.56,3.56,3.56,3.56,3.5694,0.0,0.0,0.0,0.0,0.0,0.0,0.0,0.0,0.0,0.0,0.0,0.0,0.0,0.0,0.0,0.0,0.0,0.0,0.0,0.9345,0.7899,0.7899,0.7899,0.963,1.3312,1.3692,1.4053,1.4493,1.4493,1.4493,1.4493,1.4493,1.4493,1.4493,1.4493,1.4766,1.5171,1.4698,1.4493,1.4493,1.4493,1.4493,1.4493,0.0,0.0,0.0,0.0,0.0,0.0,0.0,0.0,0.0,1.9807,2.0308,1.9918,1.7933,1.8792,1.9951,1.7805,1.8619,1.9958,1.9437,2.2144,2.6065,3.026,2.7908,2.6137,3.0593,2.9556,2.7612,2.6874,2.8068,3.0197,3.3462,3.3987,3.3987,3.3987,3.3898,3.3488,3.2539,3.3273,3.4298,3.5481,3.4535,3.4353,3.5515,3.56,3.56,3.56,3.56,3.5115,3.4012,3.3987,3.3987,3.3987,3.3987,3.3987,3.3987,3.3987,3.3413,3.2454,3.3494,3.338,3.2237,2.8996,2.8432,2.9832,3.0801,3.1884,3.3136,3.4906,3.56,3.56,3.56,3.56,3.56,0.0,0.0,0.0,0.0,0.0,0.0,0.0,0.0,0.0,0.0,0.9905,0.0,0.0,0.0,0.0,0.0,0.0,0.0,0.0,0.9225,0.7899,0.7899,0.8124,0.9868,1.3312,1.406,1.4405,1.4405,1.4405,1.4405,1.4411,1.4464,1.4493,1.4493,1.4493,1.4742,1.5104,1.4608,1.4441,1.4493,1.4493,1.4493,1.4493,1.4493,0.0,0.0,0.0,0.0,0.0,0.0,0.0,0.0,1.9192,2.0308,2.0339,2.0524,2.0585,2.0539,2.0278,1.9755,1.937,1.9664,2.4513,2.9548,3.0889,2.7914,2.6027,3.0267,2.6881,2.4843,3.048,3.1511,3.1421,3.1182,3.1137,3.1137,3.1137,3.0982,3.0064,2.787,2.9546,3.1934,3.46,3.2639,3.2307,3.4991,3.5447,3.56,3.56,3.56,3.4333,3.1582,3.1511,3.1511,3.1511,3.1511,3.1391,3.1137,3.1137,2.9909,2.769,3.0328,3.0061,2.76,2.7854,2.7824,2.7785,2.9978,3.2728,3.5566,3.5295,3.5194,3.5194,3.5194,3.5194,3.5194,0.0,0.0,0.0,0.0,0.0,0.0,0.0,0.0,0.0,0.0,0.0,0.0,0.0,0.0,0.0,0.0,0.0,0.0,0.0,0.8214,0.7899,0.7899,0.9869,1.1725,1.3362,1.356,1.3638,1.3638,1.3638,1.3638,1.3646,1.4237,1.4493,1.4493,1.4493,1.4567,1.4606,1.3931,1.397,1.4493,1.4493,1.4493,1.4493,1.4493,1.4493,0.0,0.0,0.0,0.0,0.0,0.0,0.0,2.0038,2.0308,2.0308,2.035,2.0474,2.0448,1.9717,1.9405,1.9921,2.2501,2.6978,3.0811,3.1135,3.0421,2.9458,2.8599,2.9009,2.9928,3.1267,3.1511,3.0823,2.8757,2.8453,2.8453,2.8453,2.8393,2.8183,2.766,2.8052,2.8616,2.9252,3.0467,3.1461,3.2104,3.4281,3.56,3.56,3.56,3.4333,3.1582,3.1511,3.1511,3.1511,3.1511,3.0464,2.8453,2.8453,2.8139,2.769,3.0328,3.0061,2.7705,2.9774,2.9505,2.7635,2.8158,3.1227,3.5363,3.3051,3.2154,3.2154,3.2154,3.2154,3.2154,0.0,0.0,0.0,0.0,0.0,0.0,0.0,0.0,0.0,0.0,0.0,0.0,0.0,0.0,0.0,0.0,0.0,0.0,0.0,0.0,0.8469,0.9719,1.1559,1.2834,1.3388,1.3396,1.3396,1.3396,1.3396,1.3396,1.3413,1.4147,1.4493,1.4583,1.6544,1.6321,1.447,1.4087,1.4147,1.4493,1.4493,1.4493,1.4493,1.4493,1.4493,1.4493,1.4493,0.0,0.0,0.0,0.0,0.0,0.0,0.0,2.0308,2.0308,2.0368,2.0359,1.99,2.0692,2.2428,2.5695,2.9498,3.223,3.1389,3.119,3.0419,2.7714,2.8495,2.9639,2.9639,2.9639,2.919,2.7824,2.6522,2.6024,2.7041,2.7169,2.7284,2.756,2.76,2.76,2.76,2.8725,2.9957,3.1114,3.2628,3.3487,3.3487,3.3487,3.2312,2.9705,2.9639,2.9639,2.9639,2.9639,2.8951,2.76,2.76,2.6926,2.5764,2.8427,2.8876,2.7675,2.9041,2.8846,2.76,2.76,2.9991,3.3471,3.185,3.119,3.119,3.119,3.119,3.119,0.0,0.0,0.0,0.0,0.0,0.0,0.0,0.0,0.0,0.0,0.0,0.0,0.0,0.0,0.0,0.0,0.0,0.0,0.0,0.0,0.0,1.17,1.2649,1.3122,1.3122,1.332,1.3396,1.3396,1.3396,1.3471,1.3624,1.495,1.5546,1.5673,1.8354,1.767,1.4493,1.4493,1.4493,1.4493,1.4493,1.4493,1.4493,1.4493,1.4493,1.4493,1.4493,1.4493,1.4994,1.8306,0.0,0.0,0.0,0.0,1.9538,2.0135,2.0308,2.0319,2.0332,2.2063,2.4635,2.781,3.0612,3.2259,3.108,3.081,3.0035,2.7267,2.7511,2.8069,2.7546,2.743,2.743,2.743,2.5593,2.474,2.6454,2.6691,2.6745,2.6892,2.6911,2.6911,2.6911,2.6911,2.7922,3.0385,3.0958,3.119,3.119,3.119,3.0086,2.7685,2.8002,2.8027,2.7585,2.7136,2.6911,2.6911,2.6911,2.5758,2.367,2.5908,2.7165,2.76,2.76,2.76,2.7635,2.8052,2.9516,3.1428,3.1275,3.119,3.119,3.119,3.119,3.119,0.0,0.0,0.0,0.0,0.0,0.0,0.0,0.0,0.0,0.0,0.0,0.0,0.0,0.0,0.0,0.0,0.0,0.0,1.1132,0.0,0.0,1.1775,1.194,1.2009,1.2009,1.2926,1.3396,1.3396,1.3396,1.3731,1.4435,1.8084,1.9792,1.9651,1.6644,1.5014,1.4493,1.4493,1.4493,1.4493,1.4493,1.4493,1.4493,1.4493,1.4493,1.4493,1.4493,1.4493,1.4644,1.5575,1.7846,0.0,0.0,0.0,1.6462,1.9423,2.0308,2.0347,2.0506,2.1545,2.3268,2.6249,2.7327,2.7938,2.9043,2.9299,2.8811,2.7056,2.8837,2.9935,2.7294,2.6811,2.6811,2.6811,2.653,2.6385,2.6657,2.6691,2.6059,2.4342,2.4133,2.4133,2.4133,2.4133,2.5236,2.7869,3.0021,3.119,3.119,3.119,3.0086,2.7685,2.9635,2.9723,2.7625,2.5309,2.4133,2.4133,2.4133,2.3954,2.361,2.3969,2.539,2.76,2.76,2.76,2.776,2.9854,3.0933,3.125,3.1207,3.119,3.119,3.119,3.119,3.119,0.0,0.0,0.0,0.0,0.0,0.0,0.0,0.0,0.0,0.0,0.0,0.0,0.0,0.0,0.0,0.7318,0.762,0.9015,1.1625,1.1805,1.1805,1.1805,1.1805,1.1805,1.1805,1.0831,1.1334,1.3396,1.3396,1.3791,1.4583,1.8696,2.0605,2.0429,1.6601,1.6016,1.778,1.5465,1.4493,1.4493,1.4493,1.4493,1.4493,1.4493,1.4493,1.4493,1.4493,1.5903,1.7496,1.5779,1.7462,1.9962,1.8058,0.0,0.0,0.0,2.0466,2.0483,2.0584,2.0195,2.05,2.3494,2.4239,2.44,2.5099,2.5804,2.6633,2.7754,2.9047,2.9292,2.7095,2.6691,2.615,2.4509,2.4239,2.4239,2.4239,2.5659,2.5929,2.3858,2.2308,2.1395,2.1395,2.2742,2.4088,2.5279,2.8986,3.119,3.119,3.119,3.072,2.9657,2.9024,2.8177,2.7109,2.4783,2.3595,2.358,2.2099,2.2173,2.3595,2.3595,2.4238,2.5368,2.5368,2.5368,2.5566,2.8129,2.9978,3.119,3.119,3.119,3.119,3.119,3.119,3.119,0.0,0.0,0.0,0.0,0.0,0.0,0.0,0.0,0.0,0.0,0.0,0.0,0.0,0.0,0.0,0.0,0.8321,0.9719,1.167,1.1805,1.1805,1.1805,1.1805,1.1805,1.1805,0.9884,1.0232,1.2989,1.3269,1.3684,1.4281,1.7535,1.9591,2.0488,1.7775,1.8061,2.0331,1.6244,1.5101,1.5971,1.5056,1.4673,1.4658,1.455,1.4571,1.4673,1.4673,1.6997,1.9559,1.6305,1.7462,1.9846,1.7308,1.65,0.0,0.0,0.0,2.0585,2.0534,1.9504,1.8923,2.1014,2.1336,2.1366,2.2127,2.3042,2.4483,2.7226,2.7776,2.7434,2.6286,2.6066,2.5237,2.2722,2.2296,2.2296,2.2296,2.4188,2.5011,2.3449,2.1159,1.9708,1.9708,2.2054,2.3595,2.3595,2.7606,3.0057,3.0057,3.0057,3.0057,3.0057,2.7858,2.6691,2.6691,2.3971,2.2607,2.2577,2.0636,2.0726,2.2622,2.3295,2.3595,2.3595,2.3595,2.3595,2.3759,2.5773,2.8401,3.119,3.119,3.119,3.119,3.119,3.119,3.119,0.0,0.0,0.0,0.0,0.0,0.0,0.0,0.0,0.0,0.0,0.0,0.0,0.9906,1.1043,1.1241,0.9843,1.0869,1.1655,1.179,1.1805,1.1805,1.1805,1.1805,0.0,1.1805,1.167,1.1687,1.1876,1.2908,1.3421,1.3488,1.439,1.6882,2.0586,2.039,2.0429,2.0331,1.6244,1.6739,1.9976,1.6542,1.5168,1.5114,1.4663,1.4785,1.5168,1.5168,1.6972,1.892,1.614,1.7462,2.0269,2.0096,2.0038,2.0115,0.0,0.0,0.0,2.0375,2.0234,2.005,1.9575,1.8741,1.878,2.1637,2.2349,2.2795,2.4164,2.4447,2.4427,2.435,2.433,2.3876,2.2515,2.2296,2.2296,2.2296,2.2431,2.2487,2.237,2.0793,1.9708,1.9708,2.2054,2.3595,2.3595,2.5675,2.6928,2.6928,2.6928,2.6928,2.6928,2.6776,2.6691,2.6691,2.2177,1.9902,1.9902,1.9768,1.9768,1.9992,2.2458,2.3595,2.3595,2.3595,2.3595,2.361,2.3744,2.673,3.119,3.119,3.119,3.119,3.119,3.119,3.119,0.0,0.0,0.0,0.0,0.0,0.0,0.0,0.0,0.0,0.0,0.0,0.0,0.0,1.1043,1.1284,1.0008,1.1066,1.1805,1.1805,1.1805,1.1805,1.1805,1.1805,1.1805,1.1805,1.1805,1.2133,1.2834,1.3217,1.3638,1.4107,1.4387,1.5275,1.6783,1.9287,2.0476,2.0507,1.8902,1.9143,2.0273,1.6661,1.6268,1.786,1.8126,1.8059,1.76,1.5834,1.6966,1.9154,1.8165,1.8922,2.0308,2.0308,2.0391,2.0516,2.0584,2.0605,2.056,2.0354,2.0308,2.0233,2.0001,1.9341,1.9048,2.0127,2.0374,2.0502,2.0965,2.106,2.106,2.106,2.2776,2.3782,2.2511,2.2296,2.2296,2.2296,2.2296,2.2296,2.2296,2.1751,2.0926,1.98,2.0561,2.1562,2.2682,2.5213,2.6691,2.6691,2.6691,2.5828,2.3951,2.571,2.5245,2.2251,2.0541,1.9708,1.9708,1.9708,1.9708,1.9738,2.0681,2.11,2.1205,2.2862,2.3595,2.3595,2.3595,2.5464,2.8501,3.0429,3.119,3.119,3.119,3.119,3.119,0.0,0.0,0.0,0.0,0.0,0.0,0.0,0.0,0.0,0.9905,0.0,0.0,0.0,0.0,1.0996,1.0567,1.1307,1.1805,1.1805,1.1805,1.1805,1.1805,1.1805,1.1805,1.1805,1.1805,1.2326,1.3396,1.3396,1.3791,1.4493,1.4493,1.4493,1.4617,1.7207,1.914,2.0489,2.0424,1.9773,1.8563,1.5999,1.6839,1.9666,1.9884,1.9869,1.9479,1.7599,1.8123,1.9722,1.965,1.9978,2.0295,1.9665,1.9992,2.0605,2.0605,2.0605,2.056,2.0354,2.0308,2.0256,2.0016,1.9625,1.9591,2.0692,2.0608,2.0117,1.9447,1.9297,1.9297,1.9297,2.1078,2.2496,2.2327,2.2296,2.2296,2.2296,2.1434,2.0792,2.0792,2.0392,2.0012,1.9728,1.8914,1.9466,2.2113,2.412,2.522,2.522,2.522,2.4323,2.2364,2.4205,2.3457,1.9741,1.9708,1.9708,1.9708,1.9708,1.9708,1.9708,1.9708,1.9708,1.9857,2.2458,2.3595,2.3595,2.3595,2.4415,2.5854,2.7876,2.9081,2.9685,2.9685,3.0328,3.119,0.0,0.0,0.0,0.0,0.0,0.0,0.0,0.0,0.9905,0.9905,0.0,0.0,0.0,0.0,0.0,1.1692,1.1805,1.1805,1.1805,1.1805,1.1805,1.1805,1.1805,1.1801,1.1844,1.1844,1.2366,1.3396,1.3396,1.3791,1.4493,1.4493,1.4493,1.4493,1.4493,1.6599,2.015,2.0342,1.8414,1.517,1.4691,1.6824,2.0194,1.9555,1.9838,2.0564,2.0374,2.0431,2.0563,2.0368,2.0431,2.0273,1.8456,1.9136,2.0605,2.0605,2.0605,2.0557,0.0,0.0,0.0,1.9476,1.9297,2.0142,2.3327,2.3082,2.1623,1.97,1.9297,1.9297,1.9297,1.9282,1.9894,2.1843,2.2161,2.2161,2.2161,1.9642,1.7789,1.7755,1.6591,1.6803,1.9333,1.7329,1.7647,2.1975,2.2296,2.2296,2.2296,2.2296,2.2296,2.2296,2.2296,2.1462,1.9726,1.9708,1.9708,1.9708,1.9708,1.9708,1.9708,1.9708,1.9753,1.9962,2.2503,2.355,2.349,2.3565,2.3595,2.3595,2.3595,2.4879,2.6691,2.6691,2.8552,3.1055,0.0,0.0,0.0,0.0,0.0,0.0,0.9905,0.9905,0.9905,0.0,0.0,0.0,0.9905,1.0724,1.1423,1.1768,1.1805,1.1805,1.1805,1.1805,1.1805,1.1805,1.1805,1.2164,1.2944,1.2953,1.3104,1.3396,1.3396,1.3791,1.4493,1.4493,1.4493,1.4493,1.4493,1.5092,1.6126,1.6528,1.6126,1.5196,1.505,1.6831,1.9554,1.9369,1.9838,2.0586,2.0533,2.0559,2.0586,2.0533,2.0455,2.0319,1.9941,2.0175,2.0605,2.0605,2.051,2.0362,2.0319,0.0,0.0,0.0,0.0,0.0,2.0454,1.9813,1.908,1.9253,1.9297,1.9297,1.9297,1.8708,1.8394,1.8958,1.9034,1.9034,1.9034,1.8324,1.7444,1.6459,1.6039,1.6083,1.6818,1.7101,1.8659,2.2062,2.2296,2.2296,2.2296,2.2296,2.2296,2.2296,2.2296,2.1462,1.9726,1.9708,1.9708,1.9708,1.9708,1.9708,1.9708,1.9708,2.0741,2.2562,2.3281,2.2517,2.0936,2.2817,2.3595,2.3595,2.3595,2.4879,2.6691,2.6691,2.7232,2.7943,0.0,0.0,0.0,0.0,0.0,0.9905,0.9905,0.9905,0.9905,0.0,0.0,0.0,1.0628,1.1352,1.1805,1.1805,1.2215,1.2475,1.2475,1.2475,1.2475,1.2475,1.2475,1.2753,1.3388,1.3396,1.3396,1.3396,1.3396,1.3791,1.4493,1.4493,1.4493,1.4493,1.4493,1.4493,1.4516,1.478,1.5018,1.5292,1.6443,1.7211,1.7661,1.7606,1.7903,1.835,1.8416,1.8437,1.8437,1.8437,1.8808,1.9407,2.0326,2.0605,2.0585,2.0492,2.0394,2.0308,0.0,0.0,2.0144,1.9476,0.0,0.0,1.9297,1.8842,1.8475,1.8644,1.9013,1.917,1.8753,1.8211,1.78,1.78,1.78,1.78,1.78,1.78,1.7502,1.6735,1.6136,1.5799,1.5799,1.7014,1.9051,2.2076,2.2296,2.2296,2.2296,2.2296,2.2296,2.2296,2.1584,2.0715,1.9708,1.9708,1.9154,1.8075,1.9184,1.9708,1.9708,1.9708,2.0531,2.1964,2.1964,2.1724,2.144,2.2966,2.3595,2.3595,2.3595,2.4333,2.551,2.6385,2.7486,2.8569,0.0,0.0,0.9981,1.0219,1.0069,0.9905,0.9905,0.9905,0.9905,0.0,1.0021,1.0543,1.1681,1.1805,1.1805,1.1805,1.2771,1.3396,1.3396,1.3396,1.3396,1.3396,1.3396,1.3438,1.3519,1.3446,1.3396,1.3396,1.3396,1.3791,1.4493,1.4493,1.4528,1.4576,1.4576,0.0,1.4493,1.4493,1.4991,1.5952,1.8024,1.7685,1.5928,1.5844,1.5557,1.5226,1.5346,1.539,1.5469,1.5859,1.6853,1.8217,1.9594,2.0273,2.0528,2.0264,2.0233,0.0,0.0,0.0,0.0,1.9455,1.9297,0.0,1.9297,1.9572,1.9457,1.8087,1.8598,1.9097,1.842,1.8307,1.8232,1.8033,1.7986,1.7938,1.7822,1.78,1.78,1.78,1.6617,1.5799,1.5799,1.6888,1.8754,2.1603,2.211,2.2296,2.2296,2.2296,2.2144,2.1806,2.0143,1.9273,1.9273,1.9558,1.839,1.5829,1.845,1.9708,1.9708,1.9708,1.9708,1.9708,1.9708,2.1006,2.3191,2.3475,2.3595,2.3595,2.3595,2.3595,2.3822,2.5658,2.8204,3.0751,0.0,0.0,1.0457,1.225,1.1084,0.9905,0.9905,0.9905,0.9905,0.9905,1.0796,1.1523,1.1768,1.1805,1.1805,1.1805,1.2771,1.3396,1.3396,1.3396,1.3396,1.3396,1.3396,1.3677,1.4275,1.3708,1.3396,1.3396,1.3396,1.3791,1.4493,1.4493,1.4703,1.5054,1.5054,1.4847,1.4493,1.4493,1.6364,1.912,1.7012,1.7446,1.936,1.9499,1.7735,1.5201,1.5238,1.5302,1.582,1.8633,1.9331,1.8698,1.6955,1.8232,2.0234,1.9651,1.9882,2.0308,2.0308,1.9904,1.9469,1.9335,1.9297,0.0,1.9297,2.1353,2.2205,1.8548,1.8598,1.9731,2.1165,2.1417,2.0965,1.9556,1.9137,1.8726,1.7899,1.78,1.78,1.78,1.6617,1.5799,1.5799,1.6039,1.6879,1.8557,2.0927,2.2296,2.2296,2.2296,2.1181,1.8746,1.73,1.6563,1.6563,1.8644,1.839,1.5829,1.845,1.9708,1.9708,1.9708,1.9708,1.9708,1.9708,1.9992,2.0621,2.2727,2.3595,2.3595,2.3595,2.3595,2.3659,2.4059,2.5638,2.7926,0.0,1.0334,1.0257,1.136,1.0646,1.027,1.1385,1.2285,1.2369,1.1019,1.14,1.1805,1.1805,1.2999,1.3253,1.191,1.2296,1.2834,1.3363,1.3396,1.3396,1.3396,1.3396,1.3753,1.4476,1.3791,1.3396,1.3396,1.3759,1.4134,1.4493,1.4493,1.4757,1.5192,1.5192,1.5077,1.4843,1.4843,1.6954,2.0165,1.8627,1.7904,1.7947,1.9767,1.8268,1.5192,1.5192,1.6392,1.8262,2.0019,1.9686,1.8486,1.8111,1.9122,2.0191,1.8937,1.9149,1.979,1.979,1.9572,1.9297,1.9297,1.9297,0.0,0.0,2.3015,2.3402,2.0632,2.0454,2.0643,2.0144,2.0048,1.977,1.8893,1.8635,1.8551,1.8551,1.8118,1.78,1.78,1.7211,1.6799,1.6799,1.6799,1.7076,1.7755,2.0589,2.2296,2.2296,2.2296,2.1603,2.0082,1.7277,1.5799,1.5799,1.7103,1.7103,1.5829,1.845,1.9708,1.9708,1.9708,1.9708,1.9708,1.9708,2.0441,2.1635,2.1635,2.2413,2.3595,2.3595,2.3595,2.3595,2.3595,2.4251,2.5532,1.0805,0.0,1.0546,1.0546,1.0546,1.1249,1.3379,1.4611,1.4628,1.2802,1.2568,1.2568,1.2568,1.4032,1.4361,1.2714,1.2568,1.3201,1.4698,1.3916,1.3396,1.3396,1.3396,1.3684,1.4282,1.384,1.3606,1.3606,1.42,1.4493,1.4493,1.4493,1.4757,1.5192,1.5192,1.5192,1.521,1.556,1.7122,1.9424,2.0213,1.8803,1.6549,1.9302,1.8233,1.5248,1.5212,1.7501,2.0535,2.0535,1.9531,1.8512,1.9915,2.0442,2.0225,1.8563,1.8663,1.9297,1.9297,1.9297,1.9444,2.0087,2.0059,2.0427,0.0,0.0,0.0,2.1652,2.189,2.1383,1.8358,1.78,1.7986,1.8577,1.8172,1.7984,1.8537,1.7937,1.7502,1.7777,1.78,1.78,1.78,1.78,1.78,1.78,2.0589,2.2296,2.2296,2.2296,2.2296,2.2296,1.8313,1.6052,1.5799,1.5799,1.6053,1.6578,1.8689,1.9708,1.9708,1.9708,1.9889,2.0191,2.0191,2.1713,2.402,2.1926,2.2293,2.4163,2.3752,2.3595,2.3595,2.3595,2.3595,2.3837,1.3161,1.2822,0.0,1.2822,1.2822,1.3435,1.5226,1.4358,1.3942,1.518,1.5349,1.5349,1.5349,1.3493,1.3089,1.5155,1.5349,1.6615,1.9599,1.5778,1.3396,1.3396,1.3396,1.3438,1.3519,1.408,1.4387,1.4387,1.4458,1.4493,1.4493,1.4493,1.4757,1.5192,1.5192,1.5192,1.5292,1.6848,1.6918,1.621,1.9149,2.0191,2.0037,2.0426,1.8414,1.5362,1.5243,1.7414,2.0336,2.0336,2.0188,1.9949,1.9563,1.9855,2.0184,1.9371,1.9201,1.9297,1.9297,1.9297,1.9995,2.2932,2.2791,2.1357,1.9041,0.0,1.8494,1.8341,0.0,2.1383,1.8358,0.0,0.0,2.135,1.9541,1.7427,1.6345,1.6091,1.6459,1.7658,1.78,1.78,1.78,1.78,1.78,1.78,2.0589,2.2296,2.2296,2.2296,2.2296,2.2296,1.9232,1.7002,1.5813,1.5799,1.6968,1.9258,1.9558,1.9708,1.9708,1.9708,2.0532,2.2005,2.2005,2.3658,2.6317,2.6033,2.6083,2.6159,2.4313,2.3595,2.3595,2.3595,2.3595,2.3638,1.4845,1.3885,0.0,1.3198,1.3198,1.3459,1.4181,1.3682,1.3459,1.4198,1.5165,1.5214,1.3658,1.365,0.0,0.0,1.7582,1.7947,2.0275,1.8533,1.6211,1.3521,1.3803,1.3833,1.3405,1.3708,1.4074,1.4493,1.4493,1.4651,1.489,1.4635,1.4757,1.5192,1.5192,1.6367,1.8361,1.8997,1.8931,1.8534,1.9787,2.0347,2.031,1.9349,1.8679,1.8249,1.8182,1.9077,2.0308,2.0308,2.0308,2.0256,1.9976,2.1105,2.251,2.2238,2.0784,1.9297,1.9297,2.0692,2.23,2.2946,2.1941,2.027,1.8258,1.78,1.78,1.78,0.0,0.0,0.0,0.0,0.0,0.0,1.796,1.6706,1.6939,1.6285,1.6011,1.6578,1.6644,1.6952,1.7715,1.78,1.78,1.78,1.8966,1.9693,1.9693,1.9693,1.9693,1.9693,1.8459,1.7526,1.6977,1.6191,1.6353,1.7462,1.8974,1.9708,1.9708,1.9708,2.0102,2.0845,2.1871,2.3968,2.6573,2.4847,2.5152,2.6607,2.5748,2.4661,2.3595,2.3595,2.3595,2.3595,1.5089,0.0,0.0,0.0,1.3198,1.3198,1.3198,1.3198,1.3374,1.3852,1.5013,1.5199,1.3613,1.4508,1.6558,0.0,1.8311,1.7219,1.7495,1.8418,1.7788,1.5125,1.4831,1.4423,1.3713,1.3708,1.3963,1.4493,1.4635,1.4879,1.5186,1.4843,1.4865,1.525,1.6173,1.7546,1.9171,2.0029,2.0431,2.0493,2.0154,2.0021,1.9912,1.8873,1.9244,2.0308,2.0308,2.0176,2.0021,2.0021,2.0021,2.0021,2.0021,2.1325,2.2876,2.2949,2.1275,1.9416,1.9416,2.1107,2.2636,2.1703,2.094,1.9956,1.8193,1.78,1.8036,1.8865,1.9034,0.0,0.0,0.0,1.8763,1.7935,0.0,1.6565,1.7163,1.6405,1.5799,1.5799,1.5799,1.6326,1.767,1.78,1.7647,1.7272,1.7924,1.8174,1.7811,1.78,1.78,1.78,1.78,1.78,1.78,1.6459,1.5799,1.5829,1.7716,1.9004,1.9708,1.9708,1.9962,2.0481,2.1751,2.3528,2.5321,2.3175,2.4052,2.6691,2.6691,2.5784,2.4374,2.3815,2.3595,2.3595,1.3284,1.325,0.0,0.0,1.3198,1.3198,1.3198,1.3198,1.3802,1.5492,1.577,1.6268,1.7478,1.6171,1.6327,1.9089,1.6853,1.3907,1.0647,1.3655,1.6616,1.9007,1.6709,1.5088,1.4469,1.4464,1.447,1.4493,1.4961,1.5183,1.5192,1.518,1.5183,1.5346,1.8654,1.8353,1.5604,1.9109,2.0479,2.0253,1.96,1.9335,1.9398,1.9987,2.0245,2.0308,2.0308,1.9882,1.9335,1.9335,1.9335,1.9335,1.9335,1.9393,1.9507,1.9767,1.9778,1.9685,1.9685,1.9567,1.9455,1.9405,2.0813,2.1447,1.8481,1.78,1.8628,2.1552,2.2161,2.2178,2.2279,2.2212,2.1197,1.8273,1.7749,0.0,0.0,1.5827,1.5799,1.5799,1.5799,1.6326,1.767,1.78,1.726,1.5955,1.8218,1.9107,1.7867,1.78,1.78,1.78,1.78,1.78,1.78,1.6459,1.5799,1.5799,1.5888,1.7237,1.9708,1.9708,2.0615,2.2209,2.2282,2.2347,2.2431,2.233,2.4052,2.6691,2.6691,2.6657,2.6367,2.4333,2.3595,2.3595,0.0,0.0,0.0,0.0,0.0,1.3598,1.4737,1.395,1.3835,1.558,1.7158,1.8286,1.8735,1.8667,1.8043,1.6696,1.5739,1.4708,1.3551,1.247,1.3295,1.6453,1.367,1.2995,1.5053,1.679,1.6781,1.4969,1.5117,1.5192,1.5192,1.5192,1.5192,1.5259,1.6499,1.77,1.8841,1.9943,2.0351,2.0277,2.0041,1.9695,1.9327,1.9547,1.9638,1.9638,1.9638,1.9479,1.9193,1.8532,1.8316,1.8316,1.8316,1.8762,1.9328,1.9409,1.9439,1.9439,1.9439,1.9368,1.9344,1.9515,1.9945,2.0399,2.07,2.0775,2.1062,2.2093,2.2296,2.2296,2.2296,2.2296,2.1975,2.0944,1.9101,1.7647,0.0,1.6367,1.5799,1.5799,1.5799,1.5983,1.6432,1.6472,1.6285,1.5842,1.9287,2.1231,2.0799,1.8882,1.78,1.78,1.78,1.78,1.78,1.7344,1.7126,1.7113,1.6217,1.7162,1.9708,1.9708,2.0649,2.2296,2.2296,2.2296,2.2296,2.2296,2.2902,2.3799,2.3799,2.4983,2.6436,2.4374,2.3595,2.3595,1.3416,0.0,0.0,1.4019,1.4117,1.4778,1.6754,1.5387,1.4533,1.5653,1.7837,1.9308,1.9308,1.9696,1.8664,1.5488,1.5192,1.5192,1.5192,1.3135,1.2914,1.5167,1.2074,1.1895,1.5332,1.6847,1.6837,1.5272,1.5051,1.5035,1.5195,1.5255,1.525,1.5207,1.533,1.6641,1.8827,1.9854,2.0296,2.0308,2.0308,1.9899,1.9266,1.8893,1.8988,1.9259,1.8885,1.8089,1.726,1.7652,1.78,1.78,1.78,1.8245,1.8833,1.9193,1.9046,1.8842,1.9201,1.9297,1.9334,1.9502,1.9436,1.966,2.1062,2.1385,2.1385,2.1385,2.1871,2.2106,2.1493,2.1886,2.2296,2.2296,1.9761,1.7635,0.0,1.6353,1.5799,1.5799,1.5799,1.5799,1.5799,1.5799,1.5799,1.5799,1.9845,2.2034,2.14,1.9101,1.78,1.78,1.78,1.78,1.78,1.78,1.78,1.7789,1.691,1.7142,1.8317,1.8809,2.0229,2.2296,2.2296,2.2296,2.2296,2.2296,2.2296,2.2296,2.2296,2.4103,2.6436,2.4374,2.3595,2.3595,1.3917,1.3323,1.3852,1.5507,1.5799,1.6581,1.895,1.7406,1.5975,1.5975,1.7948,1.935,1.9305,1.9297,1.8247,1.5624,1.5261,1.5174,1.5189,1.5192,1.5254,1.539,1.2285,1.207,1.5332,1.4831,1.489,1.5582,1.4965,1.4842,1.5202,1.533,1.5324,1.5229,1.5514,1.5546,1.5605,1.8906,2.0304,2.0285,2.0146,1.9691,1.9036,1.8132,1.8387,1.9095,1.8132,1.6001,1.4048,1.6853,1.78,1.78,1.78,1.78,1.7986,1.8954,1.8551,1.8029,1.903,1.9297,1.9297,1.9297,1.9297,1.9341,1.9559,1.9604,1.9604,1.9604,2.1053,2.1766,2.0015,2.1039,2.2194,2.2282,1.9761,1.7299,1.5815,1.5724,1.5799,1.5799,1.5799,1.5799,1.5799,1.5799,1.5799,1.5799,1.9628,2.1299,1.9782,1.8483,1.78,1.78,1.78,1.78,1.78,1.78,1.78,1.78,1.78,1.7101,1.5842,1.726,1.9462,2.2166,2.2166,2.2166,2.2166,2.2166,2.2209,2.2296,2.2296,2.4042,2.6315,2.4333,2.3595,2.3595,1.5477,1.5134,1.527,1.5726,1.5799,1.6581,1.895,1.8796,1.8394,1.8396,1.9486,2.0011,1.9368,1.9297,1.9026,1.8309,1.6059,1.484,1.5177,1.5192,1.5254,1.539,1.4551,1.4492,1.5371,1.5247,1.6196,1.8298,1.7388,1.6405,1.5356,1.5389,1.5389,1.5457,1.793,1.7628,1.5476,1.8858,2.0299,2.009,1.7867,1.6849,1.6785,1.7516,1.7954,1.816,1.7894,1.731,1.6796,1.7546,1.78,1.78,1.78,1.78,1.7839,1.8107,1.8008,1.8029,1.903,1.9297,1.9297,1.9297,1.9297,1.9108,1.8442,1.8297,1.8297,1.8297,2.0424,2.1766,2.0015,2.0067,2.078,2.2092,1.9761,1.6646,1.3301,1.4539,1.5799,1.5799,1.5799,1.5799,1.5799,1.5799,1.5799,1.5799,1.6838,1.8115,1.9621,1.8483,1.78,1.78,1.78,1.78,1.78,1.78,1.78,1.78,1.78,1.7101,1.5888,1.8175,1.9629,2.0362,2.0362,2.0362,2.0362,2.0362,2.1134,2.2296,2.2296,2.3161,2.4333,2.3794,2.3595,2.3595,1.5797,1.5799,1.5799,1.5799,1.5799,1.6449,1.8354,1.9021,1.9298,1.9296,1.9978,2.0286,1.9788,1.9483,1.9297,1.9297,1.6353,1.4698,1.5171,1.5246,1.5314,1.5391,1.5391,1.5367,1.5307,1.5366,1.6817,1.9731,1.7144,1.5691,1.5306,1.5306,1.5191,1.517,1.8729,1.8404,1.5318,1.7026,1.7757,1.7744,1.7449,1.708,0.0,1.7502,1.78,1.78,1.78,1.78,1.78,1.78,1.78,1.78,1.78,1.78,1.78,1.78,1.78,1.791,1.8494,1.8644,1.8644,1.8644,1.8644,1.8616,1.8484,1.8118,1.78,1.78,2.02,2.1604,1.9301,1.9325,2.0277,2.202,1.9761,1.7015,1.4739,1.5222,1.5799,1.5799,1.5799,1.5799,1.5799,1.5799,1.5319,1.4137,1.5139,1.6443,1.7911,1.8389,1.8375,1.7811,1.78,1.78,1.78,1.78,1.78,1.7817,1.9135,1.8974,1.7536,1.9034,1.9708,1.9708,1.9708,1.9708,1.9747,2.0515,2.14,2.2431,2.3731,2.3973,2.3595,2.3595,2.3595,2.3595,1.5492,1.5799,1.5799,1.5799,1.5799,1.6333,1.7879,1.868,1.9144,1.9273,1.9682,1.9974,1.9974,1.9574,1.9297,1.9297,1.6405,1.4742,1.5091,1.5213,1.5301,1.5367,1.5367,1.532,1.5198,1.5308,1.6547,1.896,1.5392,1.4168,1.5192,1.5192,1.4957,1.4669,1.8465,1.8286,1.5099,1.4988,1.4707,1.4623,1.7813,1.8579,1.78,1.78,1.78,1.78,1.78,1.78,1.78,1.78,1.78,1.78,1.78,1.78,1.78,1.78,1.78,1.78,1.78,1.78,1.78,1.78,1.78,1.804,1.8893,1.8426,1.78,1.78,2.02,2.1502,1.8865,1.9103,2.0277,2.202,1.9761,1.78,1.78,1.6657,1.5799,1.5799,1.5799,0.0,1.5799,1.5799,1.4839,1.2493,1.4466,1.5799,1.5799,1.8121,1.903,1.8074,1.8044,1.8341,1.8966,1.8701,1.8489,1.8425,2.1045,2.1385,1.9708,1.9708,1.9708,1.9708,1.9708,1.9708,1.9818,2.1323,2.2092,2.255,2.5118,2.5093,2.3595,2.3595,2.3595,2.3595,1.5741,1.5799,1.5799,1.5799,1.5799,1.6718,1.9451,1.8834,1.8357,1.9197,1.8674,1.8238,1.8238,1.8857,1.9297,1.9297,1.6713,1.4954,1.4632,1.4642,1.4831,1.5219,1.5248,1.5219,1.5204,1.5223,1.4146,1.1883,1.3901,1.4998,1.5192,1.5192,1.4957,1.4646,1.7983,1.7677,1.4748,1.6484,1.5826,1.3858,1.6861,1.7954,1.78,1.78,1.78,1.78,1.78,1.78,1.78,1.78,1.78,1.78,1.78,1.78,1.78,1.78,1.78,1.78,1.78,1.78,1.78,1.78,1.78,1.7856,1.8012,1.7938,1.78,1.78,2.02,2.2144,2.1603,2.0512,2.0277,2.202,1.9761,1.78,1.78,1.6657,1.5799,1.5799,1.5799,1.5799,1.5799,1.5799,1.5604,1.5139,1.5529,1.5799,1.5799,1.7289,1.8504,1.9354,1.9366,2.1228,2.5085,2.3441,2.2228,2.1519,2.2043,2.1385,1.9708,1.9708,1.9708,1.9708,1.9708,1.9708,1.9711,2.0032,2.0991,2.2347,2.2868,2.3275,2.3595,2.3595,2.3595,2.3595,1.6036,1.6367,1.7107,1.798,1.8125,1.8323,1.8907,1.7719,1.6937,1.7423,1.767,1.78,1.78,1.6864,1.6392,1.6785,1.5594,1.4747,1.4511,1.4493,1.4603,1.484,1.5077,1.5196,1.5195,1.353,1.1824,1.0094,1.2906,1.4583,1.5192,1.5192,1.5084,1.4918,1.6232,1.6595,1.6186,1.5727,1.5578,1.5748,1.6475,1.7175,1.78,1.78,1.78,1.78,1.78,1.78,1.78,1.78,1.78,1.78,1.78,1.78,1.78,1.78,1.78,1.78,1.78,1.78,1.78,1.78,1.78,1.78,1.78,1.78,1.78,1.78,1.8966,2.0437,2.2009,2.0338,1.9205,2.0719,1.9177,1.78,1.78,1.6657,1.6872,1.9819,1.758,1.5433,1.4549,1.5905,1.6552,1.5841,1.5799,1.5799,1.5799,1.6405,1.7671,1.9636,2.1026,2.2579,2.4409,2.4942,2.4237,2.2296,2.2296,2.1385,1.9708,1.9708,1.9708,1.9708,1.9708,1.9708,1.9764,2.0681,2.1539,2.2209,2.1307,2.204,2.343,2.2069,2.1575,2.1754,1.694,1.7251,1.8278,1.9825,2.0215,1.9741,1.8073,1.667,1.5799,1.5799,1.6221,1.652,1.652,1.4446,1.3395,1.4193,1.4275,1.4275,1.4275,1.4275,1.4275,1.4275,1.4775,1.4729,1.4045,1.1555,1.0213,1.0136,1.2336,1.3772,1.4499,1.4978,1.5507,1.602,1.5156,1.6028,1.7952,1.5405,1.5506,1.7272,1.6231,1.6432,1.7408,1.7681,1.7411,1.6948,1.7563,1.78,1.78,1.78,1.78,1.78,1.78,1.78,1.78,1.78,1.78,1.78,1.78,1.78,1.78,1.78,1.78,1.78,1.78,1.78,1.78,1.78,1.78,1.8527,2.091,1.993,1.8866,1.9246,1.8989,1.8527,1.7884,1.6901,1.8222,2.3557,1.9676,1.5815,1.3924,1.6209,1.7356,1.6299,1.5955,1.5926,1.6219,1.5955,1.6998,1.9618,2.2056,2.2982,2.2316,2.4245,2.4228,2.2296,2.2296,2.1569,2.0243,1.9871,1.9892,2.026,2.026,2.026,2.0328,2.1323,2.1751,2.1615,2.0225,2.131,2.3281,2.0647,1.9708,2.0082,1.9147,1.8499,1.8132,1.9214,1.9898,1.9741,1.8073,1.667,1.5799,1.5799,1.3797,1.2358,1.2358,1.2123,1.237,1.3404,1.3495,1.3495,1.3495,1.3495,1.3495,1.3495,1.4188,1.3204,1.0276,1.0144,1.0162,1.0272,1.2384,1.2965,1.2171,1.423,1.653,1.8816,1.6656,1.6967,1.9077,1.7899,1.6845,1.5983,1.5856,1.5885,1.6122,1.7349,1.6136,1.4166,1.6847,1.78,1.78,1.78,1.78,1.78,1.78,1.78,1.78,1.78,1.78,1.78,1.78,1.78,1.78,1.78,1.78,1.78,1.78,1.78,1.78,1.78,1.78,1.7884,1.8172,2.0234,2.1022,1.8387,2.0178,2.091,1.8172,1.7681,1.9255,2.368,2.1106,1.8059,1.5781,1.6923,1.7755,1.7624,1.6485,1.634,1.7554,1.6459,1.6998,1.9618,2.1472,2.2377,2.2296,2.1016,2.1,2.2296,2.2296,2.2209,2.2005,2.043,2.0549,2.2049,2.2049,2.2049,2.1945,2.0515,1.9945,1.9942,1.9764,2.131,2.3281,2.0647,1.9708,2.0082,2.011,1.9821,1.9573,1.9844,2.0116,1.9741,1.8073,1.5841,1.4363,1.4363,1.2866,1.1805,1.1805,1.1805,1.1499,1.0763,1.0703,1.0703,1.0703,1.0703,1.1499,1.3328,1.4107,1.369,1.1954,1.0569,0.9965,1.0177,1.307,1.3567,1.1833,1.3386,1.5222,1.7235,1.8118,1.8802,1.9225,1.8225,1.7491,1.7002,1.7002,1.7002,1.7064,1.7601,1.7067,1.6204,1.7377,1.78,1.78,1.78,1.78,1.78,1.78,1.78,1.78,1.78,1.78,1.78,1.78,1.78,1.78,1.78,1.78,1.78,1.78,1.78,1.78,1.78,1.78,1.8358,2.0166,2.1485,2.1907,2.069,1.956,1.922,2.0338,1.8932,1.8448,2.0149,1.92,1.8035,1.7085,1.676,1.6939,1.7743,1.7296,1.6888,1.6617,1.6847,1.7827,1.9636,2.0379,2.0731,2.0731,2.1087,2.1615,2.2296,2.2296,2.2296,2.2282,2.1569,2.163,2.2296,2.2296,2.2296,2.2166,2.043,1.9708,1.9708,1.9708,2.131,2.3281,2.0647,1.9708,1.9857,2.05,2.0347,2.0081,1.9637,1.9568,1.9173,1.7984,1.6278,1.4723,1.354,1.2734,1.187,1.0767,1.0653,1.0097,0.8732,0.8935,0.9062,0.8908,0.8897,0.9846,1.1974,1.2574,1.2606,1.209,1.1447,1.1201,1.1393,1.3952,1.4167,1.2263,1.4479,1.6096,1.7216,1.9135,1.9576,1.8806,1.8097,1.78,1.78,1.78,1.7276,1.6509,1.6509,1.6509,1.6627,1.7495,1.78,1.78,1.78,1.78,1.78,1.78,1.78,1.78,1.78,1.78,1.78,1.78,1.78,1.78,1.78,1.78,1.78,1.78,1.78,1.78,1.78,1.851,1.9761,2.1907,2.2296,2.2296,2.2296,1.9572,1.8574,2.1836,1.9355,1.7372,1.7755,1.7455,1.7372,1.7766,1.775,1.7878,1.8342,1.8009,1.7396,1.6432,1.8132,1.9533,2.0452,2.0448,2.0208,1.9708,2.1432,2.2296,2.2296,2.2296,2.2296,2.2296,2.2296,2.2296,2.2296,2.2296,2.2296,2.2166,2.043,1.9708,1.9783,2.0561,2.1964,2.3281,2.0647,2.0187,2.0741,2.0334,1.9773,1.9003,1.7999,1.7822,1.7816,1.78,1.8609,1.7827,1.3921,1.3388,1.1992,0.8355,0.7944,0.7929,0.7914,0.9004,0.9456,0.8936,0.8897,0.8914,0.8948,0.8959,0.8959,0.8948,1.2566,1.4438,1.4444,1.4958,1.4514,1.3289,1.8211,2.0422,2.021,1.9593,1.8762,1.7822,1.7811,1.78,1.78,1.78,1.6052,1.3447,1.3447,1.3447,1.3828,1.6762,1.78,1.78,1.78,1.78,1.78,1.78,1.78,1.78,1.78,1.78,1.78,1.78,1.78,1.78,1.78,1.78,1.78,1.78,1.78,1.78,1.78,2.0166,2.2245,2.2296,2.2296,2.2296,2.2296,2.0813,2.0277,2.2049,1.8562,1.6326,1.7647,1.663,1.6353,1.767,2.0475,2.152,1.9808,1.8504,1.7789,1.7789,2.061,2.2262,2.2268,2.2268,2.1447,1.9726,2.1432,2.2296,2.2296,2.2296,2.2296,2.2296,2.2296,2.2296,2.2296,2.2296,2.2296,2.2166,2.043,1.9708,1.9962,2.2532,2.3565,2.3281,2.0647,2.1321,2.3176,1.9724,1.889,1.8387,1.8762,1.8815,1.8589,1.7905,1.8065,1.7092,1.3829,1.3396,1.295,1.1785,0.982,0.8396,0.7942,0.9004,0.9625,0.9447,0.9099,0.8897,0.8897,0.8897,0.9062,0.943,1.3083,1.4981,1.4981,1.5121,1.4986,1.4632,1.811,1.8517,1.6311,1.5609,1.5107,1.481,1.481,1.4384,1.3764,1.4502,1.4234,1.3396,1.3396,1.3396,1.3515,1.4454,1.6086,1.78,1.78,1.78,1.78,1.78,1.78,1.78,1.78,1.8285,1.8815,1.8815,1.8815,1.8815,1.8815,1.8316,1.78,1.78,1.78,1.78,1.78,1.856,1.9237,1.9237,1.9237,1.9913,2.1975,2.0122,1.9318,2.1922,2.0083,1.83,1.7858,1.742,1.6977,1.6472,1.8124,1.9006,1.8453,1.8819,1.8712,1.7844,2.0657,2.1084,1.8423,1.9771,2.026,1.9708,2.1432,2.2296,2.2296,2.2296,2.2296,2.2296,2.2296,2.2296,2.2296,2.2296,2.2296,2.242,2.3868,2.3639,2.2443,2.3266,2.3595,2.349,2.2667,2.2892,2.3221,1.8883,1.7017,1.5739,1.6358,1.7737,1.8523,1.7894,1.78,1.6745,1.3786,1.306,1.2953,1.3363,1.172,0.9962,0.8408,0.8965,0.9399,0.9399,0.9078,0.8897,0.8897,0.9088,0.9358,0.9694,1.2052,1.3904,1.5192,1.5018,1.4946,1.4971,1.641,1.6007,1.4053,1.3185,1.279,1.279,1.279,1.2416,1.1854,1.2533,1.279,1.2836,1.3252,1.4082,1.5046,1.5046,1.6238,1.78,1.78,1.78,1.78,1.78,1.78,1.78,1.78,1.8245,1.8815,1.9193,1.9297,1.9201,1.8824,1.8265,1.7905,1.8285,1.8358,1.8358,1.8358,1.8358,1.8358,1.8358,1.8358,1.8867,2.0361,1.9034,1.8459,2.0335,1.967,1.8693,1.7888,1.78,1.7467,1.663,1.7308,1.78,1.78,1.8983,1.9635,1.95,2.173,2.1673,1.877,1.998,2.0681,2.0681,2.1751,2.2296,2.2296,2.2296,2.2296,2.2296,2.2296,2.2296,2.2296,2.2296,2.2296,2.2533,2.5473,2.5946,2.476,2.476,2.476,2.476,2.476,2.4057,2.2914,1.7599,1.4367,1.1805,1.1805,1.4896,1.7412,1.7484,1.7495,1.6509,1.3769,1.2475,1.2127,1.2992,1.3091,1.1957,0.9151,0.8897,0.8897,0.8897,0.8897,0.8897,0.8897,0.9412,0.9702,0.9702,0.9955,1.1743,1.5159,1.466,1.4429,1.4417,1.3731,1.3363,1.3243,1.2246,1.1805,1.1805,1.1805,1.1805,1.1805,1.1805,1.1805,1.1908,1.2908,1.504,1.7512,1.7732,1.78,1.78,1.78,1.78,1.78,1.78,1.78,1.78,1.78,1.78,1.8008,1.8946,1.9193,1.898,1.8023,1.78,1.8061,1.8988,1.9259,1.9297,1.9297,1.9297,1.9297,1.9297,1.9297,1.8996,1.8055,1.7856,1.78,1.78,1.78,1.7833,1.7894,1.7828,1.7884,1.8087,1.7918,1.7884,1.8104,1.9216,2.0582,2.2209,2.3513,2.3613,2.2352,2.2296,2.2296,2.2296,2.2296,2.2296,2.2296,2.2296,2.2296,2.2296,2.2296,2.2296,2.2296,2.2296,2.2296,2.2499,2.5253,2.6522,2.6691,2.6691,2.6691,2.6691,2.6691,2.4966,2.2672,1.3666,1.2451,1.1805,1.1805,1.2597,1.351,1.432,1.4437,1.4183,1.3498,1.2475,1.1337,1.0098,0.9964,0.9676,0.8965,0.8897,0.8897,0.8897,0.8897,0.8897,0.8897,0.9412,0.9702,0.9702,0.9772,1.1392,1.4663,1.399,1.3661,1.3653,1.3471,1.2962,1.2164,1.1908,1.1805,1.1805,1.1805,1.1805,1.1805,1.1805,1.1805,1.1837,1.2082,1.3125,1.4742,1.6988,1.78,1.78,1.78,1.78,1.78,1.78,1.78,1.78,1.78,1.78,1.7839,1.8086,1.816,1.8097,1.785,1.78,1.7861,1.8097,1.8753,1.9297,1.9297,1.9297,1.9297,1.9297,1.9297,1.9217,1.8988,1.8306,1.78,1.78,1.78,1.8086,1.885,1.8265,1.8696,2.1011,1.9152,1.8746,2.1062,2.1501,2.1855,2.2282,2.3513,2.3613,2.2352,2.2296,2.2296,2.2296,2.2296,2.2296,2.2296,2.2296,2.2296,2.2296,2.2296,2.2296,2.2296,2.2296,2.2296,2.2347,2.304,2.4678,2.6691,2.6691,2.6691,2.6691,2.6691,2.6251,2.5179,1.1212,1.0108,0.943,0.943,1.0737,1.2003,1.2582,1.3086,1.2905,1.1516,1.0848,1.0071,0.9009,0.8897,0.8897,0.8897,0.8897,0.8897,0.8897,0.8897,0.8897,0.8897,0.9412,0.9702,0.9702,0.9702,1.1115,1.3998,1.3091,1.2668,1.2668,1.2668,1.2366,1.1805,1.1805,1.1805,1.1805,1.1805,1.1805,1.1805,1.1805,1.1805,1.1805,1.1805,1.2475,1.3786,1.6745,1.78,1.78,1.78,1.78,1.78,1.78,1.78,1.78,1.78,1.78,1.78,1.78,1.78,1.78,1.78,1.78,1.78,1.78,1.8225,1.8616,1.8616,1.8988,1.9297,1.9297,1.8911,1.8616,1.8616,1.817,1.78,1.78,1.8983,1.9722,1.9334,2.0136,2.1372,2.3,2.1697,2.0785,2.0919,2.3028,2.399,2.321,2.3265,2.3017,2.2324,2.2296,2.2575,2.3164,2.2588,2.2296,2.2296,2.2296,2.2296,2.2296,2.2296,2.2296,2.2296,2.2296,2.2296,2.2398,2.3765,2.5253,2.6573,2.522,2.5507,2.6691,2.6691,2.6691,2.6337,0.9854,0.8112,0.6599,0.6599,0.9056,1.1057,1.1186,1.1979,1.1683,0.9224,0.8897,0.8863,0.8749,0.8744,0.8744,0.8744,0.8744,0.8801,0.8891,0.8897,0.8897,0.8897,0.934,0.9589,0.9589,0.9861,1.1051,1.3157,1.2246,1.1805,1.1805,1.159,1.1512,1.1512,1.1512,1.1626,1.1805,1.1805,1.1805,1.1805,1.1805,1.1897,1.203,1.203,1.261,1.3786,1.6745,1.78,1.78,1.78,1.78,1.78,1.78,1.78,1.78,1.78,1.78,1.78,1.78,1.78,1.78,1.78,1.78,1.78,1.78,1.8155,1.8358,1.7884,1.8835,1.9755,1.9755,1.8673,1.78,1.78,1.78,1.8031,1.868,2.097,2.188,1.9984,2.2374,2.419,2.419,2.419,2.3235,2.0949,2.4208,2.5915,2.4974,2.3901,2.3192,2.297,2.2533,2.2905,2.418,2.2947,2.2296,2.2296,2.2296,2.2296,2.2296,2.2296,2.2296,2.2296,2.2296,2.2296,2.2482,2.5,2.6302,2.6437,2.3951,2.4492,2.6691,2.6691,2.6691,2.6691,0.9659,0.8112,0.6599,0.6599,0.7052,0.7662,0.8389,0.8644,0.8792,0.888,0.8897,0.8679,0.8114,0.8061,0.8061,0.8061,0.8061,0.8286,0.8863,0.8897,0.8897,0.8897,0.8984,0.9033,0.9033,1.0639,1.1656,1.2055,1.1876,1.1805,1.1783,1.07,1.0185,1.0185,1.0185,1.0796,1.1805,1.1805,1.1805,1.1805,1.1805,1.2346,1.3148,1.3148,1.3252,1.3786,1.6745,1.78,1.78,1.78,1.78,1.78,1.78,1.78,1.78,1.78,1.78,1.78,1.78,1.78,1.78,1.78,1.78,1.78,1.78,1.9761,2.0876,1.8324,1.9943,2.1832,2.1832,1.9612,1.78,1.78,1.78,1.9059,2.2701,2.3616,2.3389,2.2001,2.3231,2.419,2.419,2.419,2.5126,2.7336,2.5699,2.5648,2.8113,2.8074,2.7357,2.6064,2.3613,2.2905,2.418,2.2947,2.2296,2.2296,2.2296,2.2296,2.2296,2.2296,2.2296,2.2296,2.2296,2.2296,2.233,2.2786,2.4458,2.664,2.6201,2.6302,2.6691,2.6691,2.6691,2.6691,0.7888,0.731,0.6599,0.6599,0.6599,0.6732,0.7139,0.7203,0.7981,1.0178,0.9241,0.8771,0.9875,0.8746,0.7899,0.7899,0.7469,0.7531,0.8312,0.8358,0.8358,0.8358,0.8358,0.9017,1.0434,0.9955,1.0393,1.1805,1.1805,1.1457,1.076,1.0173,0.9905,0.9905,0.9905,1.0616,1.1805,1.1805,1.1805,1.1805,1.1805,1.2445,1.3396,1.3396,1.3396,1.3583,1.4945,1.6458,1.78,1.78,1.78,1.78,1.78,1.78,1.78,1.78,1.78,1.78,1.78,1.78,1.78,1.78,1.78,1.78,1.78,2.0132,2.1907,2.0504,2.1333,2.2296,2.2296,2.1164,1.9693,1.8053,1.8375,1.9845,2.2777,2.1768,2.1143,2.2177,2.495,2.6785,2.6785,2.6785,2.7391,2.8895,2.7611,2.7078,2.7717,2.7762,2.7819,2.7946,2.6614,2.6183,2.6785,2.4469,2.3776,2.4661,2.3071,2.2296,2.2296,2.2296,2.2296,2.2296,2.2296,2.2296,2.2296,2.2296,2.4052,2.6691,2.6691,2.6691,2.6691,2.6691,2.6691,2.6691,0.6448,0.6599,0.6599,0.6599,0.6599,0.6599,0.6599,0.6599,0.7565,1.0236,0.9292,0.9127,1.1139,0.9562,0.8371,0.8371,0.7751,0.7427,0.7588,0.7783,0.7899,0.7899,0.7709,0.8776,1.1294,0.9688,0.9644,1.1352,1.1352,1.0867,0.9905,0.9905,0.9905,0.9905,0.9905,1.0433,1.1389,1.167,1.1805,1.1805,1.1805,1.2445,1.3396,1.3396,1.3243,1.3042,1.3042,1.4483,1.6508,1.7113,1.7537,1.78,1.78,1.78,1.78,1.78,1.78,1.78,1.78,1.78,1.7969,1.8662,1.8848,1.8848,1.8848,2.064,2.2296,2.2296,2.2296,2.2296,2.2296,2.2296,2.1316,1.829,1.9389,2.0753,2.1181,1.9862,1.9963,2.2955,2.6374,2.8464,2.8464,2.8464,2.8464,2.8464,2.8464,2.796,2.6758,2.7051,2.7791,2.8952,2.9005,2.9005,2.9005,2.6547,2.5773,2.6657,2.4408,2.2955,2.2296,2.2296,2.2296,2.2296,2.2296,2.2296,2.2296,2.2296,2.4052,2.6691,2.6691,2.6691,2.6691,2.6691,2.6691,2.6691,0.6582,0.6599,0.6599,0.6599,0.6599,0.6599,0.6599,0.6599,0.6684,0.6953,0.8608,0.983,1.0021,0.9868,0.9754,0.9754,0.9692,0.8811,0.682,0.7453,0.7899,0.7899,0.7123,0.7742,0.9995,1.1008,1.103,1.0046,1.0046,0.9995,0.9905,0.9905,0.9905,0.9905,0.9905,0.9944,1.011,1.1296,1.1805,1.1805,1.1805,1.2445,1.3396,1.3396,1.2781,1.1918,1.1918,1.2061,1.2617,1.5121,1.6773,1.78,1.78,1.78,1.78,1.78,1.78,1.78,1.78,1.78,1.8476,2.1265,2.1975,2.1975,2.1975,2.2144,2.2296,2.2296,2.2296,2.2296,2.2296,2.2296,2.1316,1.829,2.0912,2.2102,1.861,2.0352,2.3071,2.6015,2.6672,2.6873,2.6873,2.6873,2.6873,2.6873,2.6873,2.6824,2.6708,2.8057,2.8893,2.8994,2.9005,2.9005,2.9005,2.8767,2.7991,2.6691,2.6471,2.4932,2.2296,2.2296,2.2296,2.2296,2.2296,2.2296,2.2296,2.2296,2.4052,2.6691,2.6691,2.6691,2.6691,2.6691,2.6691,2.6691,0.6474,0.6599,0.6599,0.6599,0.6599,0.6599,0.6599,0.6599,0.6599,0.6599,0.7335,0.8375,0.9755,0.9905,1.0223,1.102,1.0359,0.9541,0.8713,0.8959,0.8532,0.7158,0.8083,0.9406,1.1038,1.0784,1.0371,0.9905,0.9905,0.9905,0.9905,0.9905,0.9905,0.9905,0.9905,0.9905,0.9983,1.1262,1.1805,1.1805,1.1805,1.2445,1.3337,1.2658,1.2154,1.1805,1.1805,1.1805,1.2209,1.4899,1.6696,1.78,1.78,1.78,1.78,1.78,1.78,1.7949,1.856,1.8735,1.9495,2.2675,2.2879,2.2296,2.2296,2.2296,2.2296,2.2296,2.2296,2.2854,2.4695,2.5033,2.4052,2.1062,2.1827,2.2932,2.3272,2.4306,2.5439,2.6573,2.6691,2.6691,2.6691,2.6691,2.6691,2.6691,2.6691,2.6691,2.6691,2.8152,2.9005,2.9005,2.9005,2.9005,2.9005,2.9005,2.8713,2.8112,2.7161,2.5152,2.2296,2.2296,2.2296,2.2296,2.2296,2.2296,2.2296,2.2296,2.4052,2.6691,2.6691,2.6691,2.6691,2.6691,2.6691,2.6691,0.5988,0.6135,0.6224,0.6547,0.6343,0.6233,0.6556,0.6599,0.6599,0.6599,0.6599,0.7175,0.8689,0.9491,1.0248,1.1136,1.0396,0.9905,0.9905,0.9905,0.9227,0.7698,0.9483,1.0724,1.1193,1.0347,0.9905,0.9905,0.9905,0.9905,0.9905,0.9905,0.9905,0.9905,0.9905,0.9905,0.9983,1.1262,1.1805,1.1805,1.1805,1.2246,1.2845,1.2455,1.2092,1.191,1.2747,1.3059,1.3343,1.5184,1.6696,1.78,1.78,1.78,1.78,1.78,1.8012,1.8348,1.8726,1.9808,2.139,2.3639,2.3547,2.2794,2.2391,2.2296,2.255,2.3479,2.3665,2.4306,2.6319,2.6691,2.6031,2.4019,2.3665,2.4391,2.642,2.6691,2.6353,2.5423,2.6133,2.6691,2.6691,2.6691,2.6691,2.6691,2.6691,2.6906,2.7391,2.8425,2.9005,2.9005,2.9005,2.9005,2.9005,2.9005,2.9005,2.8982,2.7437,2.5642,2.3663,2.2719,2.2296,2.2296,2.2296,2.2296,2.2296,2.2296,2.4052,2.6691,2.6691,2.7003,2.7422,2.7422,2.7422,2.7346,0.5098,0.5108,0.5423,0.6413,0.576,0.5433,0.6448,0.6599,0.6599,0.6599,0.6599,0.6599,0.6599,0.8564,0.988,0.988,0.9893,0.9905,0.9905,0.9905,0.9905,0.9905,1.1113,1.1193,0.9919,0.9918,0.9918,0.9918,0.9905,0.9905,0.9905,0.9905,0.9905,0.9905,0.9905,0.9905,0.9983,1.1262,1.1805,1.1805,1.1805,1.1805,1.1918,1.2989,1.275,1.2186,1.4854,1.5799,1.5799,1.5799,1.6683,1.7789,1.78,1.78,1.78,1.78,1.8513,1.9079,1.8076,2.0936,2.419,2.419,2.419,2.3873,2.2602,2.2327,2.3187,2.6099,2.6691,2.6691,2.6691,2.6691,2.6691,2.6691,2.6691,2.6691,2.6691,2.6691,2.5609,2.2685,2.4915,2.6691,2.6691,2.6691,2.6691,2.6691,2.6708,2.7391,2.8917,2.9005,2.9005,2.9005,2.9005,2.9005,2.9005,2.9005,2.8994,2.8952,2.7437,2.6691,2.659,2.368,2.2313,2.2296,2.2313,2.2313,2.2296,2.2313,2.4069,2.6691,2.6691,2.7628,2.8975,2.8994,2.9005,2.8791,0.5098,0.5667,0.6016,0.5621,0.529,0.5433,0.6448,0.6599,0.6599,0.6599,0.6599,0.6599,0.6599,0.7197,0.7586,0.7586,0.9014,0.9905,0.9905,0.9905,0.9905,0.9905,1.026,1.0298,0.9918,1.0784,1.1227,1.1227,1.0334,0.9905,0.9905,0.9905,0.9905,0.9905,0.9905,0.9905,0.9983,1.1262,1.1805,1.1805,1.1805,1.1805,1.1918,1.2989,1.4489,1.5986,1.5858,1.5799,1.5799,1.5799,1.6066,1.6565,1.7502,1.78,1.78,1.78,1.8513,1.9225,1.8919,2.1471,2.419,2.419,2.419,2.4094,2.3728,2.5385,2.6934,2.6751,2.6691,2.6691,2.6691,2.6691,2.6691,2.6691,2.6691,2.6691,2.6691,2.6691,2.637,2.549,2.6167,2.6691,2.6691,2.6691,2.6691,2.6691,2.7686,2.8502,2.8982,2.9005,2.9005,2.9005,2.9005,2.9005,2.9005,2.9005,2.8464,2.7376,2.6922,2.6691,2.6657,2.5778,2.4255,2.2415,2.4492,2.4222,2.2448,2.4526,2.5913,2.6691,2.6691,2.6987,2.7527,2.8596,2.9005,2.8791,0.5611,0.618,0.6278,0.5281,0.5098,0.5433,0.6448,0.6599,0.6599,0.6599,0.6599,0.6599,0.6599,0.6599,0.6599,0.6599,0.7824,0.8589,0.8589,0.9893,1.0433,0.9931,0.9905,1.0135,1.064,1.1412,1.1805,1.1805,1.0519,1.016,1.064,1.0135,0.9905,0.9905,0.9905,0.9905,0.9983,1.1262,1.1805,1.1805,1.1805,1.2445,1.3518,1.4693,1.6255,1.7692,1.6888,1.6591,1.6512,1.5983,1.615,1.6735,1.7537,1.78,1.78,1.78,1.8225,1.8967,2.0156,2.195,2.3569,2.4074,2.419,2.419,2.419,2.6693,2.857,2.7019,2.6691,2.6691,2.6691,2.6691,2.6691,2.6691,2.6691,2.6691,2.6691,2.6691,2.6691,2.6691,2.6691,2.6691,2.6691,2.6691,2.6954,2.7572,2.8476,2.9005,2.9005,2.9005,2.9005,2.9005,2.9005,2.8713,2.8098,2.87,2.8224,2.6691,2.6691,2.6691,2.6691,2.6691,2.5727,2.4137,2.593,2.5693,2.4188,2.5964,2.6691,2.6691,2.6691,2.6691,2.689,2.8438,2.9005,2.8881,0.6422,0.653,0.618,0.5262,0.5098,0.5404,0.6334,0.6547,0.6599,0.6599,0.6599,0.6599,0.6599,0.6599,0.6599,0.6599,0.6599,0.6599,0.6599,0.9862,1.1273,1.011,0.9957,1.0389,1.1425,1.1685,1.1805,1.1805,1.064,1.0664,1.1768,1.0616,1.0072,1.0072,1.0072,1.0072,1.0147,1.1307,1.1805,1.182,1.2059,1.3613,1.5941,1.7284,1.78,1.78,1.78,1.78,1.7601,1.6244,1.6617,1.7647,1.7749,1.78,1.78,1.78,1.78,1.8459,2.1485,2.2296,2.2602,2.3884,2.419,2.419,2.419,2.6693,2.8596,2.7192,2.6791,2.6691,2.6691,2.6691,2.6691,2.6691,2.6691,2.6691,2.6691,2.6691,2.6691,2.6691,2.6824,2.6857,2.6708,2.6691,2.733,2.8875,2.9005,2.9005,2.9005,2.9005,2.9005,2.9005,2.9005,2.8316,2.6922,2.8303,2.829,2.6923,2.6923,2.6841,2.6691,2.6691,2.6691,2.6691,2.6691,2.6691,2.6691,2.6691,2.6691,2.6691,2.6691,2.6691,2.6873,2.8277,2.8893,2.9042,0.6556,0.5961,0.5357,0.5137,0.5098,0.5175,0.5385,0.6099,0.6599,0.6599,0.6599,0.6599,0.6599,0.6599,0.6599,0.6599,0.6599,0.6599,0.6599,0.9862,1.1681,1.14,1.0433,0.9538,0.8766,1.0743,1.1805,1.1805,1.1523,1.1523,1.1779,1.1523,1.14,1.14,1.14,1.14,1.1412,1.1681,1.1805,1.1984,1.4092,1.5289,1.5941,1.7284,1.78,1.78,1.78,1.78,1.7601,1.6244,1.5997,1.6421,1.7467,1.78,1.78,1.78,1.78,1.8459,2.1485,2.2296,2.2602,2.3884,2.419,2.419,2.419,2.6693,2.8905,2.857,2.7542,2.6691,2.6691,2.6691,2.6691,2.6691,2.6691,2.6691,2.6691,2.6691,2.6691,2.6691,2.7776,2.8029,2.6808,2.6691,2.733,2.8875,2.9005,2.9005,2.9005,2.9005,2.9005,2.9005,2.9005,2.8839,2.8502,2.8827,2.8827,2.8502,2.8502,2.7876,2.6691,2.6691,2.6691,2.6691,2.6691,2.6691,2.6691,2.6691,2.6691,2.6691,2.6691,2.6691,2.6741,2.7083,2.7974,2.9354,0.65,0.5788,0.4845,0.4047,0.4564,0.5098,0.5098,0.5952,0.6599,0.6599,0.6599,0.6599,0.6599,0.6599,0.6599,0.6599,0.6599,0.6599,0.6599,0.8308,0.98,1.0847,1.0843,1.0483,0.9776,1.1102,1.1805,1.1805,1.1805,1.1805,1.1805,1.1805,1.1805,1.1805,1.1805,1.1805,1.188,1.3178,1.3703,1.3837,1.5244,1.502,1.4182,1.6792,1.78,1.78,1.78,1.7396,1.6747,1.6039,1.5799,1.5926,1.663,1.7272,1.78,1.78,1.78,1.8459,2.1485,2.2296,2.2602,2.3884,2.419,2.4593,2.6135,2.7794,2.9005,2.9005,2.7759,2.6691,2.6691,2.7299,2.7805,2.7805,2.7805,2.7805,2.7805,2.7805,2.7805,2.7805,2.8502,2.8688,2.7876,2.7805,2.8125,2.894,2.9005,2.9005,2.9005,2.9005,2.9005,2.9005,2.9005,2.9005,2.9005,2.9005,2.9005,2.9005,2.9005,2.8583,2.7759,2.7051,2.6691,2.6691,2.6691,2.6691,2.6691,2.6691,2.6691,2.6691,2.6691,2.6691,2.6691,2.6691,2.8649,3.1518,0.618,0.5443,0.4256,0.2949,0.387,0.4783,0.4783,0.5824,0.6599,0.6599,0.6599,0.6599,0.6599,0.6599,0.6599,0.6599,0.6599,0.6762,0.7137,0.6812,0.7423,0.9265,1.0345,1.0983,1.1132,1.1132,1.1132,1.1132,1.158,1.1805,1.1805,1.1805,1.1805,1.1805,1.1805,1.1805,1.1939,1.4167,1.5379,1.5799,1.5799,1.4182,1.2182,1.5714,1.736,1.78,1.78,1.6939,1.5799,1.5799,1.5799,1.5799,1.5799,1.6722,1.78,1.78,1.78,1.8459,2.1485,2.2296,2.2548,2.3602,2.4044,2.5034,2.8271,2.9005,2.9005,2.9005,2.7988,2.7082,2.7082,2.8139,2.9005,2.9005,2.9005,2.9005,2.9005,2.9005,2.9005,2.9005,2.9005,2.9005,2.9005,2.9005,2.9005,2.9005,2.9005,2.9005,2.9005,2.9005,2.9005,2.9005,2.9005,2.9005,2.9005,2.9005,2.9005,2.9005,2.9005,2.9005,2.894,2.7407,2.6691,2.6691,2.6691,2.6691,2.6691,2.6691,2.6691,2.6691,2.6691,2.6691,2.6759,2.7283,2.997,3.3357,0.5281,0.4027,0.299,0.3176,0.3393,0.3539,0.3539,0.5289,0.6599,0.6599,0.6599,0.6599,0.6599,0.6599,0.6599,0.6599,0.6599,0.741,0.9328,0.7661,0.6737,0.7025,0.7206,0.7649,0.8409,0.8424,0.8424,0.8424,1.0683,1.1805,1.1805,1.1805,1.1805,1.1805,1.1805,1.1805,1.182,1.2179,1.3673,1.5799,1.5799,1.4182,1.1964,1.3427,1.5578,1.78,1.78,1.6939,1.5799,1.5799,1.5799,1.5799,1.5799,1.6722,1.78,1.78,1.78,1.8459,2.1485,2.2296,2.2352,2.2511,2.3388,2.5034,2.8271,2.9005,2.9005,2.9005,2.8827,2.8688,2.8688,2.8851,2.9005,2.9005,2.9005,2.9005,2.9005,2.9005,2.9005,2.9005,2.9005,2.9005,2.9005,2.9005,2.9005,2.9005,2.9005,2.9005,2.9005,2.9005,2.9005,2.9005,2.9005,2.9005,2.9005,2.9005,2.9005,2.9005,2.9005,2.9005,2.894,2.7407,2.6691,2.6691,2.6691,2.6691,2.6691,2.6691,2.6691,2.6691,2.6691,2.6691,2.7029,2.9617,3.1011,3.1562,0.4339,0.3501,0.3053,0.3268,0.3306,0.3306,0.3306,0.4693,0.5961,0.653,0.6599,0.6599,0.6599,0.6599,0.6599,0.6599,0.6599,0.7012,0.7987,0.7137,0.6599,0.6599,0.6599,0.6782,0.7163,0.7657,0.7899,0.7899,0.906,0.9629,0.9659,1.1117,1.1012,0.9689,1.1147,1.2133,1.2649,1.205,1.2827,1.4602,1.6245,1.6205,1.5196,1.568,1.6678,1.78,1.78,1.742,1.6799,1.6052,1.5799,1.5926,1.6683,1.732,1.78,1.78,1.8983,2.0606,2.1941,2.2296,2.247,2.317,2.5142,2.7244,2.8675,2.9005,2.9005,2.9005,2.9005,2.9005,2.9005,2.9005,2.9005,2.9005,2.9005,2.9005,2.9005,2.9005,2.9005,2.9005,2.9005,2.9005,2.9005,2.9005,2.9005,2.9005,2.9005,2.9005,2.9005,2.9005,2.9005,2.9005,2.9005,2.9005,2.9005,2.9005,2.9005,2.9005,2.9005,2.9005,2.8982,2.829,2.7512,2.6691,2.6691,2.7655,2.9076,2.7385,2.6691,2.686,2.8552,2.9211,2.9381,3.07,3.119,3.119]}]]